[[{"header":{"parameterUnit":"m.s-1","parameterCategory":1,"la1":30.6,"la2":29.2853,"lo1":-89.7004,"lo2":-87.6739,"dy":0.0162,"dx":0.0183,"nx":112,"ny":82,"refTime":"2023-09-22T00:00:00:Z","depth":0,"parameterNumber":2,"parameterNumberName":"U-component_of_WINDS"},"data":[0.0,0.0,0.0,0.0,0.0,0.0,0.0,0.0,0.0,0.0,0.0,0.0,0.0,0.0,0.0,0.0,0.0,0.0,0.0,0.0,0.0,0.0,0.0,0.0,0.0,0.0,0.0,0.0,0.0,0.0,0.0,0.0,0.0,0.0,0.0,0.0,0.0,0.0,0.0,0.0,0.0,0.0,0.0,0.0,0.0,0.0,0.0,0.0,0.0,0.0,0.0,0.0,0.0,0.0,0.0,0.0,0.0,0.0,0.0,0.0,0.0,0.0,0.0,0.0,0.0,0.0,0.0,0.0,0.0,0.0,0.0,0.0,0.0,0.0,0.0,0.0,0.0,0.0,0.0,0.0,0.0,0.0,0.0,0.0,0.0,0.0,0.0,0.0,0.0,0.0,0.0,0.1014,-0.2059,-0.3944,-0.3753,-0.3976,-0.2893,-0.0029,0.0,0.0,0.0,0.0,0.0,0.0,0.0,0.0,0.0,0.0,0.0,0.0,0.0,0.0,0.0,0.0,0.0,0.0,0.0,0.0,0.0,0.0,0.0,0.0,0.0,0.0,0.0,0.0,0.0,0.0,0.0,0.0,0.0,0.0,0.0,0.0,0.0,0.0,0.0,0.0,0.0,0.0,0.0,0.0,0.0,0.0,0.0,0.0,0.0,0.0,0.0,0.0,0.0,0.0,0.0,0.0,0.0,0.0,0.0,0.0,0.0,0.0,0.0,0.0,0.0,0.0,0.0,0.0,0.0,0.0,0.0,0.0,0.0,0.0,0.0,0.0,0.0,0.0,0.0,0.0,0.0,0.0,0.0,0.0,0.0,0.0,0.0,0.0,0.0,0.0,0.0,0.0,0.0,0.0,0.0,0.0,0.0,0.0,0.0,0.0,0.0,0.0,0.0,0.0,-0.1221,-0.6129,-0.7477,-0.8141,-0.8448,-0.8093,-0.6922,-0.4709,0.0,0.0,0.0,0.0,0.0,0.0,0.0,0.0,0.0,0.0,0.0,0.0,0.0,0.0,0.0,0.0,0.0,0.0,0.0,0.0,0.0,0.0,0.0,0.0,0.0,0.0,0.0,0.0,0.0,0.0,0.0,0.0,0.0,0.0,0.0,0.0,0.0,0.0,0.0,0.0,0.0,0.0,0.0,0.0,0.0,0.0,0.0,0.0,0.0,0.0,0.0,0.0,0.0,0.0,0.0,0.0,0.0,0.0,0.0,0.0,0.0,0.0,0.0,0.0,0.0,0.0,0.0,0.0,0.0,0.0,0.0,0.0,0.0,0.0,0.0,0.0,0.0,0.0,0.0,0.0,0.0,0.0,0.0,0.0,0.0,0.0,0.0,0.0,0.0,0.0,0.0,0.0,0.0,0.0,0.0,0.0,0.0,0.0,0.0,0.0,0.0,0.0,0.0,-0.2813,-0.631,-1.0319,-1.1207,-1.1631,-1.1971,-1.195,-1.0902,-0.8399,-0.4394,0.0,0.0,0.0,0.0,0.0,0.0,0.0,0.0,0.0,0.0,0.0,0.0,0.0,0.0,0.0,0.0,0.0,0.0,0.0,0.0,0.0,0.0,0.0,0.0,0.0,0.0,0.0,0.0,0.0,0.0,0.0,0.0,0.0,0.0,0.0,0.0,0.0,0.0,0.0,0.0,0.0,0.0,0.0,0.0,0.0,0.0,0.0,0.0,0.0,0.0,0.0,0.0,0.0,0.0,0.0,0.0,0.0,0.0,0.0,0.0,0.0,0.0,0.0,0.0,0.0,0.0,0.0,0.0,0.0,0.0,0.0,0.0,0.0,0.0,0.0,0.0,0.0,0.0,0.0,0.0,0.0,0.0,0.0,0.0,0.0,0.0,0.0,0.0,0.0,0.0,0.0,0.0,0.0,0.0,0.0,0.0,0.0,0.0,0.0,0.0,0.0,0.0,-0.8493,-1.0883,-1.3396,-1.4112,-1.4605,-1.5006,-1.5316,-1.441,-1.1828,-0.9453,0.0,0.0,0.0,0.0,0.0,0.0,0.0,0.0,0.0,0.0,0.0,0.0,0.0,0.0,0.0,0.0,0.0,0.0,0.0,0.0,0.0,0.0,0.0,0.0,0.0,0.0,0.0,0.0,0.0,0.0,0.0,0.0,0.0,0.0,0.0,0.0,0.0,0.0,0.0,0.0,0.0,0.0,0.0,0.0,0.0,0.0,0.0,0.0,0.0,0.0,0.0,0.0,0.0,0.0,0.0,0.0,0.0,0.0,0.0,0.0,0.0,0.0,0.0,0.0,0.0,0.0,0.0,0.0,0.0,0.0,0.0,0.0,0.0,0.0,0.0,0.0,0.0,0.0,0.0,0.0,0.0,0.0,0.0,0.0,0.0,0.0,0.0,0.0,0.0,0.0,0.0,0.0,0.0,0.0,0.0,0.0,0.0,0.0,0.0,0.0,0.0,0.0,-1.1145,-1.3798,-1.5904,-1.6476,-1.6983,-1.7755,-1.7836,-1.705,-1.5168,-1.3253,0.0,0.0,0.0,0.0,0.0,0.0,0.0,0.0,0.0,0.0,0.0,0.0,0.0,0.0,0.0,0.0,0.0,0.0,0.0,0.0,0.0,0.0,0.0,0.0,0.0,0.0,0.0,0.0,0.0,0.0,0.0,0.0,0.0,0.0,0.0,0.0,0.0,0.0,0.0,0.0,0.0,0.0,0.0,0.0,0.0,0.0,0.0,0.0,0.0,0.0,0.0,0.0,0.0,0.0,0.0,0.0,0.0,0.0,0.0,0.0,0.0,0.0,0.0,0.0,0.0,0.0,0.0,0.0,0.0,0.0,0.0,0.0,0.0,0.0,0.0,0.0,0.0,0.0,0.0,0.0,0.0,0.0,0.0,0.0,0.0,0.0,0.0,0.0,0.0,0.0,0.0,0.0,0.0,0.0,0.0,0.0,0.0,0.0,0.0,0.0,0.0,0.0,-1.312,-1.563,0.0,-1.7914,-1.8569,-2.004,-1.953,-1.8731,-1.7704,0.0,0.0,0.0,0.0,0.0,0.0,0.0,0.0,0.0,0.0,0.0,0.0,0.0,0.0,0.0,0.0,0.0,0.0,0.0,0.0,0.0,0.0,0.0,0.0,0.0,0.0,0.0,0.0,0.0,0.0,0.0,0.0,0.0,0.0,0.0,0.0,0.0,0.0,0.0,0.0,0.0,0.0,0.0,0.0,0.0,0.0,0.0,0.0,0.0,0.0,0.0,0.0,0.0,0.0,0.0,0.0,0.0,0.0,0.0,0.0,0.0,0.0,0.0,0.0,0.0,0.0,0.0,0.0,0.0,0.0,0.0,0.0,0.0,0.0,0.0,0.0,0.0,0.0,0.0,0.0,0.0,0.0,0.0,0.0,0.0,0.0,0.0,0.0,0.0,0.0,0.0,0.0,0.0,0.0,0.0,0.0,0.0,0.0,0.0,0.0,0.0,0.0,-1.2201,-1.5073,-1.7518,0.0,-1.9542,-2.025,-2.1945,-2.1284,-2.0515,-1.9896,0.0,0.0,0.0,0.0,0.0,0.0,0.0,0.0,0.0,0.0,0.0,0.0,0.0,0.0,0.0,0.0,0.0,0.0,0.0,0.0,0.0,0.0,0.0,0.0,0.0,0.0,0.0,0.0,0.0,0.0,0.0,0.0,0.0,0.0,0.0,0.0,0.0,0.0,0.0,0.0,0.0,0.0,0.0,0.0,0.0,0.0,0.0,0.0,0.0,0.0,0.0,0.0,0.0,0.0,0.0,0.0,0.0,0.0,0.0,0.0,0.0,0.0,0.0,0.0,0.0,0.0,0.0,0.0,0.0,0.0,0.0,0.0,0.0,0.0,0.0,0.0,0.0,0.0,0.0,0.0,0.0,0.0,0.0,0.0,0.0,0.0,0.0,0.0,0.0,0.0,0.0,0.0,0.0,0.0,0.0,0.0,0.0,0.0,0.0,0.0,0.0,0.0,-1.377,-1.7023,-1.965,-2.1078,-2.1495,-2.2237,-2.3514,-2.3183,-2.2569,0.0,0.0,0.0,0.0,0.0,0.0,0.0,0.0,0.0,0.0,0.0,0.0,0.0,0.0,0.0,0.0,0.0,0.0,0.0,0.0,0.0,0.0,0.0,0.0,0.0,0.0,0.0,0.0,0.0,0.0,0.0,0.0,0.0,0.0,0.0,0.0,0.0,0.0,0.0,0.0,0.0,0.0,0.0,0.0,0.0,0.0,0.0,0.0,0.0,0.0,0.0,0.0,0.0,0.0,0.0,0.0,0.0,0.0,0.0,0.0,0.0,0.0,0.0,0.0,0.0,0.0,0.0,0.0,0.0,0.0,0.0,0.0,0.0,0.0,0.0,0.0,0.0,0.0,0.0,0.0,0.0,0.0,0.0,0.0,0.0,0.0,0.0,0.0,0.0,0.0,0.0,0.0,0.0,0.0,0.0,0.0,0.0,0.0,0.0,0.0,0.0,0.0,0.0,-1.5174,-1.7972,-2.0313,-2.1817,-2.24,-2.3335,-2.4883,-2.3855,-2.3059,-2.2983,0.0,0.0,0.0,0.0,0.0,0.0,0.0,0.0,0.0,0.0,0.0,0.0,0.0,0.0,0.0,0.0,0.0,0.0,0.0,0.0,0.0,0.0,0.0,0.0,0.0,0.0,0.0,0.0,0.0,0.0,0.0,0.0,0.0,0.0,0.0,0.0,0.0,0.0,0.0,0.0,0.0,0.0,0.0,0.0,0.0,0.0,0.0,0.0,0.0,0.0,0.0,0.0,0.0,0.0,0.0,0.0,0.0,0.0,0.0,0.0,0.0,0.0,0.0,0.0,0.0,0.0,0.0,0.0,0.0,0.0,0.0,0.0,0.0,0.0,0.0,0.0,0.0,0.0,0.0,0.0,0.0,0.0,0.0,0.0,0.0,0.0,0.0,0.0,0.0,0.0,0.0,0.0,0.0,0.0,0.0,0.0,0.0,0.0,0.0,0.0,0.0,0.0,-1.602,-1.8901,-2.1182,-2.2456,-2.3365,-2.4425,-2.5814,-2.5033,-2.4381,-2.4197,0.0,0.0,0.0,0.0,0.0,0.0,0.0,0.0,0.0,0.0,0.0,0.0,0.0,0.0,0.0,0.0,0.0,0.0,0.0,0.0,0.0,0.0,0.0,0.0,0.0,0.0,0.0,0.0,0.0,0.0,0.0,0.0,0.0,0.0,0.0,0.0,0.0,0.0,0.0,0.0,0.0,0.0,0.0,0.0,0.0,0.0,0.0,0.0,0.0,0.0,0.0,0.0,0.0,0.0,0.0,0.0,0.0,0.0,0.0,0.0,0.0,0.0,0.0,0.0,0.0,0.0,0.0,0.0,0.0,0.0,0.0,0.0,0.0,0.0,0.0,0.0,0.0,0.0,0.0,0.0,0.0,0.0,0.0,0.0,0.0,0.0,0.0,0.0,0.0,0.0,0.0,0.0,0.0,0.0,0.0,0.0,0.0,0.0,0.0,0.0,0.0,0.0,-1.671,-1.9877,-2.2235,-2.3124,-2.4381,-2.5524,-2.6393,-2.6414,-2.6108,-2.5397,0.0,0.0,0.0,0.0,0.0,0.0,0.0,0.0,0.0,0.0,0.0,0.0,0.0,0.0,0.0,0.0,0.0,0.0,0.0,0.0,0.0,0.0,0.0,0.0,0.0,0.0,0.0,0.0,0.0,0.0,0.0,0.0,0.0,0.0,0.0,0.0,0.0,0.0,0.0,0.0,0.0,0.0,0.0,0.0,0.0,0.0,0.0,0.0,0.0,0.0,0.0,0.0,0.0,0.0,0.0,0.0,0.0,0.0,0.0,0.0,-2.7159,0.0,0.0,0.0,0.0,0.0,0.0,0.0,0.0,0.0,0.0,0.0,0.0,0.0,0.0,0.0,0.0,0.0,0.0,0.0,0.0,0.0,0.0,0.0,0.0,0.0,0.0,0.0,0.0,0.0,0.0,0.0,0.0,0.0,0.0,0.0,0.0,0.0,0.0,0.0,0.0,0.0,-1.8751,-2.1293,-2.3302,-2.4594,-2.578,-2.6598,-2.6833,-2.6593,-2.6446,-2.6543,0.0,0.0,0.0,0.0,0.0,0.0,0.0,0.0,0.0,0.0,0.0,0.0,0.0,0.0,0.0,0.0,0.0,0.0,0.0,0.0,0.0,0.0,0.0,0.0,0.0,0.0,0.0,0.0,0.0,0.0,0.0,0.0,0.0,0.0,0.0,0.0,0.0,0.0,0.0,0.0,0.0,0.0,0.0,0.0,0.0,0.0,0.0,0.0,0.0,0.0,0.0,0.0,0.0,0.0,0.0,0.0,0.0,0.0,0.0,0.0,0.0,-2.6988,0.0,0.0,0.0,0.0,0.0,0.0,0.0,0.0,0.0,0.0,0.0,0.0,0.0,0.0,0.0,0.0,0.0,0.0,0.0,0.0,0.0,0.0,0.0,0.0,0.0,0.0,0.0,0.0,0.0,0.0,0.0,0.0,0.0,0.0,0.0,0.0,0.0,0.0,0.0,0.0,-1.9987,-2.2267,-2.4176,-2.5712,-2.6749,-2.7312,-2.73,-2.7343,-2.7163,-2.6681,-2.5214,0.0,0.0,0.0,0.0,0.0,0.0,0.0,0.0,0.0,0.0,0.0,0.0,0.0,0.0,0.0,0.0,0.0,0.0,0.0,0.0,0.0,0.0,0.0,0.0,0.0,0.0,0.0,0.0,0.0,0.0,0.0,0.0,0.0,0.0,0.0,0.0,0.0,0.0,0.0,0.0,0.0,0.0,0.0,0.0,0.0,0.0,0.0,0.0,0.0,0.0,0.0,0.0,0.0,-3.1006,-3.0559,-2.9389,-2.9389,-2.9303,-2.9054,-2.8347,-2.8335,-2.8701,0.0,0.0,0.0,0.0,0.0,0.0,0.0,0.0,0.0,0.0,0.0,0.0,0.0,0.0,0.0,0.0,0.0,0.0,0.0,0.0,0.0,0.0,0.0,0.0,0.0,-2.0934,-2.0023,0.0,0.0,0.0,0.0,0.0,0.0,0.0,0.0,0.0,0.0,0.0,0.0,-2.1092,-2.3075,-2.4878,-2.6543,-2.7395,-2.7752,-2.7569,-2.7974,-2.7764,-2.6647,-2.6096,-2.5188,0.0,0.0,0.0,0.0,0.0,0.0,0.0,0.0,0.0,0.0,0.0,0.0,0.0,0.0,0.0,0.0,0.0,0.0,0.0,0.0,0.0,0.0,0.0,0.0,0.0,0.0,0.0,0.0,0.0,0.0,0.0,0.0,-3.2517,-3.2035,0.0,0.0,0.0,0.0,0.0,0.0,0.0,0.0,0.0,0.0,0.0,0.0,0.0,0.0,-3.359,-3.3142,-3.283,-3.2611,-3.2691,-3.2513,-3.2163,-3.2163,-3.2045,-3.1849,-3.1564,0.0,-2.8204,-2.8213,0.0,0.0,0.0,0.0,0.0,0.0,0.0,0.0,0.0,0.0,0.0,0.0,0.0,0.0,0.0,0.0,0.0,0.0,0.0,0.0,0.0,0.0,-2.329,-2.2566,-2.2481,-2.2268,0.0,-1.9763,-1.8237,-1.773,0.0,0.0,0.0,0.0,0.0,0.0,0.0,0.0,-2.2841,-2.4147,-2.5398,-2.7046,-2.7623,-2.7716,-2.7308,-2.748,-2.7493,-2.7204,-2.6477,-2.5704,-2.4918,-2.3521,0.0,0.0,0.0,0.0,0.0,0.0,0.0,0.0,0.0,0.0,0.0,0.0,0.0,0.0,0.0,0.0,0.0,0.0,0.0,0.0,0.0,0.0,0.0,0.0,0.0,0.0,0.0,0.0,0.0,-3.3167,-3.3484,-3.2323,-3.3786,-3.3752,0.0,0.0,0.0,0.0,0.0,0.0,0.0,0.0,0.0,-3.4416,-3.3929,-3.3712,-3.3803,-3.3376,-3.3086,-3.2988,-3.2765,-3.2527,-3.2327,-3.2327,-3.2034,-3.163,-3.1939,-3.1166,-2.9749,-2.9845,-2.9479,-2.8816,0.0,0.0,0.0,0.0,-2.5828,-2.4788,-2.5197,-2.4559,0.0,0.0,0.0,0.0,0.0,0.0,0.0,0.0,0.0,0.0,0.0,0.0,0.0,-2.314,-2.3045,-2.2951,-2.2328,-2.1364,-2.0321,0.0,-1.9087,-1.8717,-1.7787,0.0,0.0,0.0,0.0,0.0,-2.3381,-2.4516,-2.5728,-2.7395,-2.751,-2.7304,-2.6882,-2.6772,-2.641,-2.575,-2.5103,-2.4493,-2.3949,-2.2703,-2.1849,0.0,0.0,0.0,0.0,0.0,0.0,0.0,0.0,0.0,0.0,0.0,0.0,0.0,0.0,0.0,0.0,0.0,0.0,0.0,0.0,0.0,0.0,0.0,0.0,0.0,0.0,0.0,0.0,-3.434,-3.4188,-3.2681,-3.4114,-3.3979,0.0,0.0,0.0,0.0,0.0,0.0,-3.3974,-3.4221,-3.4401,-3.451,-3.4317,-3.4138,-3.4061,-3.3792,-3.3542,-3.3357,-3.3009,-3.2686,-3.2429,-3.2388,-3.206,-3.1564,-3.1937,-3.1759,-3.1252,-3.1193,-3.0811,-3.0217,-2.9997,-2.887,-2.7386,-2.7748,-2.6792,-2.5348,-2.578,-2.5079,-2.4051,-2.3875,0.0,-2.3477,-2.334,0.0,0.0,0.0,0.0,-2.5008,-2.4596,-2.4224,-2.389,-2.3616,-2.3501,-2.331,-2.2823,-2.2574,-2.2009,0.0,-2.0377,-2.0019,-1.9118,0.0,0.0,0.0,0.0,-2.1726,-2.361,-2.4545,-2.5664,-2.7279,-2.7122,-2.6753,-2.6482,-2.6143,-2.5516,-2.4429,-2.3965,-2.3397,-2.2698,-2.1847,-2.1361,-2.1288,0.0,0.0,0.0,0.0,0.0,0.0,0.0,0.0,0.0,0.0,0.0,0.0,0.0,0.0,0.0,0.0,0.0,0.0,0.0,0.0,0.0,0.0,0.0,0.0,0.0,0.0,0.0,0.0,0.0,-3.3973,-3.4462,0.0,0.0,0.0,0.0,-3.3794,-3.374,-3.3753,-3.3884,-3.3557,-3.3559,-3.393,-3.4097,-3.4286,-3.4471,-3.4564,-3.4513,-3.4306,-3.4111,-3.3859,-3.3594,-3.3437,-3.3194,-3.2993,-3.2581,-3.2221,-3.1962,-3.1953,-3.1552,-3.0955,-3.1012,-3.0138,-2.885,-2.8497,-2.7403,-2.6144,-2.5972,-2.5406,-2.4733,-2.4733,-2.4906,-2.5032,-2.4774,-2.495,0.0,0.0,-2.434,-2.4222,-2.3975,-2.3934,-2.3959,-2.4095,-2.3939,-2.3692,-2.3443,-2.3144,-2.2708,0.0,-2.14,-2.1072,-2.0817,0.0,-2.0307,-2.1167,-2.1218,-2.187,-2.3836,-2.4346,-2.5062,-2.6434,-2.637,-2.6172,-2.602,-2.5777,-2.5156,-2.4096,-2.3874,-2.3189,-2.1807,-2.1517,-2.1171,-2.0677,-2.0246,0.0,0.0,0.0,0.0,0.0,0.0,0.0,0.0,0.0,0.0,0.0,0.0,0.0,0.0,0.0,0.0,0.0,0.0,0.0,0.0,0.0,0.0,0.0,0.0,0.0,0.0,0.0,0.0,-3.4251,-3.5073,0.0,-3.2905,-3.3414,-3.3733,-3.3362,-3.3535,-3.37,-3.382,-3.3965,-3.4082,-3.4244,-3.4157,-3.411,-3.4001,-3.3917,-3.3755,-3.3513,-3.3159,-3.2957,-3.2853,-3.2612,-3.2307,-3.1925,-3.1969,-3.1649,-3.1125,-3.1228,-3.1245,-3.1214,-3.1214,-3.0648,-2.9721,-2.9094,-2.813,-2.7013,-2.6286,-2.5587,-2.4935,-2.465,-2.47,-2.4894,-2.4608,-2.4743,-2.4834,-2.4419,-2.4546,-2.4687,-2.4217,-2.4134,-2.4158,-2.3981,-2.3755,-2.3397,-2.2937,-2.2736,-2.255,-2.2085,-2.1833,-2.1617,-2.1268,-2.0996,-2.1015,-2.1632,-2.1851,-2.2476,-2.3908,-2.4074,-2.444,-2.5497,-2.4999,-2.4624,-2.4759,-2.4251,-2.3725,-2.3194,-2.2551,-2.1832,-2.1047,-2.038,-2.002,-1.9976,-1.93,-1.8801,0.0,0.0,0.0,0.0,0.0,0.0,0.0,0.0,0.0,0.0,0.0,0.0,0.0,0.0,0.0,0.0,0.0,0.0,0.0,0.0,0.0,0.0,0.0,0.0,0.0,0.0,-3.4526,-3.4262,-3.5137,-3.4998,-3.3158,-3.3622,-3.3847,-3.3501,-3.368,-3.3779,-3.3781,-3.3939,-3.4021,-3.3924,-3.4105,-3.3979,-3.3458,-3.3556,-3.3386,-3.2871,-3.2469,-3.2264,-3.2245,-3.1913,-3.1605,-3.1306,-3.1205,-3.0937,-3.0442,-3.0352,-3.0397,-3.0599,-3.0971,-3.0667,-2.9974,-2.9578,-2.8778,-2.7774,-2.6695,-2.5869,-2.5244,-2.481,-2.491,-2.5041,-2.4665,-2.4641,-2.4755,-2.4598,-2.4622,-2.4601,-2.435,-2.4162,-2.3987,-2.3718,-2.3397,-2.3038,-2.2929,-2.2526,-2.2274,-2.2375,-2.2034,-2.1756,-2.1627,-2.1268,-2.1263,-2.1881,-2.2071,-2.2539,-2.3586,-2.3585,-2.3723,-2.4486,-2.3859,-2.3529,-2.3826,-2.3297,-2.2767,-2.2262,-2.1558,-2.0921,-2.0338,-1.9746,-1.9509,-1.9658,-1.8588,-1.7888,-1.7582,0.0,0.0,0.0,0.0,0.0,0.0,0.0,0.0,0.0,0.0,0.0,0.0,0.0,0.0,0.0,0.0,0.0,0.0,0.0,0.0,0.0,0.0,0.0,-3.3506,-3.3914,-3.4151,-3.4096,-3.4513,-3.4462,-3.3666,-3.4097,-3.4397,-3.4356,-3.4189,-3.3949,-3.367,-3.3471,-3.327,-3.3043,-3.3839,-3.3882,-3.2988,-3.3615,-3.3488,-3.2624,-3.2208,-3.1977,-3.1945,-3.1516,-3.1306,-3.1217,-3.0487,-3.017,-3.008,-2.9405,-2.9082,-2.9165,-3.0317,-3.0292,-2.9653,-2.9853,-2.9258,-2.8269,-2.7048,-2.6236,-2.5635,-2.5391,-2.547,-2.5596,-2.5079,-2.4932,-2.4968,-2.5105,-2.4546,-2.4004,-2.4352,-2.396,-2.3464,-2.3406,-2.2937,-2.2677,-2.3479,-2.2577,-2.1928,-2.2677,-2.2034,-2.1502,-2.1878,-2.1259,-2.1024,-2.1996,-2.187,0.0,-2.2855,-2.2821,-2.2935,-2.3373,-2.3013,-2.2872,-2.3261,-2.2998,-2.2368,-2.1328,-2.0988,-2.0497,-1.9789,-1.9674,-1.966,-1.9714,-1.8206,-1.7223,-1.6772,0.0,0.0,0.0,0.0,0.0,0.0,0.0,0.0,0.0,0.0,0.0,0.0,0.0,0.0,0.0,0.0,0.0,0.0,0.0,0.0,0.0,0.0,-3.1867,-3.3001,-3.3212,-3.3375,-3.3753,-3.3939,-3.3927,-3.3688,-3.3804,-3.3852,-3.3683,-3.3496,-3.3283,-3.3013,-3.2766,-3.2927,-3.3501,-3.2815,-3.263,-3.3006,-3.2208,-3.1705,-3.1463,-3.1825,-3.1637,-3.1015,-3.1371,-3.1071,-3.0296,-3.0057,-2.9691,-2.9163,-2.8989,-2.8653,-2.8351,-2.91,-2.8987,-2.846,-2.8283,-2.748,-2.6415,-2.6102,-2.5847,-2.5664,-2.5382,-2.547,-2.5596,-2.5079,-2.5167,-2.5528,-2.5742,-2.6016,-2.6123,-2.5741,-2.5135,-2.4441,-2.38,-2.2878,-2.2224,-2.2224,-2.1674,-2.1224,-2.1674,-2.1146,-2.0761,-2.1312,-2.1017,-2.0805,-2.1135,-2.0913,0.0,-2.1888,-2.169,-2.149,-2.1535,-2.149,-2.1332,-2.0907,-2.1033,-2.0989,-2.0681,-1.9901,-1.9284,-1.8879,-1.843,-1.8075,-1.7852,-1.6614,-1.6118,0.0,0.0,0.0,0.0,0.0,0.0,0.0,0.0,0.0,0.0,0.0,0.0,0.0,0.0,0.0,0.0,0.0,0.0,0.0,0.0,0.0,0.0,-3.1121,-3.159,-3.26,-3.2663,-3.2819,-3.3352,-3.3513,-3.3556,-3.3556,-3.3513,-3.3398,-3.3283,-3.2884,-3.2537,-3.2276,-3.2069,-3.232,-3.3104,-3.2227,-3.2052,-3.2575,-3.1713,-3.1026,-3.0646,-3.0982,-3.0847,-3.0318,-3.0611,-3.0295,0.0,-2.9462,-2.9139,-2.8617,-2.829,-2.8008,0.0,0.0,0.0,0.0,0.0,-2.6838,-2.5926,-2.5841,-2.5682,-2.546,-2.5079,-2.5079,-2.5118,-2.4735,-2.4627,-2.4745,-2.5081,-2.5067,-2.4936,-2.4721,-2.4158,-2.3553,-2.2981,-2.2224,-2.1623,-2.1827,-2.1165,-2.0704,-2.1208,0.0,0.0,-2.0293,-2.037,-2.0444,-2.0551,-2.034,-2.0366,-2.1058,-2.068,-2.0402,-2.0402,-2.0165,-1.9935,-1.9696,-1.9722,0.0,0.0,0.0,-1.8545,-1.8176,-1.765,0.0,0.0,0.0,-1.5214,-1.5436,0.0,0.0,0.0,-1.3241,-1.2964,0.0,0.0,0.0,0.0,0.0,0.0,0.0,0.0,0.0,0.0,0.0,0.0,0.0,0.0,0.0,0.0,-3.1276,-3.173,-3.2284,-3.2215,-3.2322,-3.2852,-3.3129,-3.327,-3.327,-3.3111,-3.2995,-3.2896,-3.2307,-3.1813,-3.1572,0.0,0.0,0.0,0.0,-3.1709,-3.1889,-3.15,-3.089,-3.008,-2.9954,-2.9886,-2.9748,-2.9577,-2.9347,-2.8989,-2.8803,-2.8524,-2.8207,-2.7594,-2.7214,-2.7163,-2.7576,-2.768,-2.7616,-2.7221,-2.6686,-2.6103,-2.5859,0.0,0.0,-2.4578,-2.4381,-2.4332,-2.4102,-2.3687,-2.34,-2.3814,-2.3148,-2.2443,-2.2818,-2.2358,-2.1818,-2.1776,-2.1275,-2.107,-2.1776,-2.0952,-2.0285,-2.1038,-2.0218,-1.9363,-1.911,-1.9502,-1.9898,-1.999,-1.981,-1.9837,-2.0124,-1.9698,-1.9422,-1.9563,0.0,0.0,-1.8957,-1.8639,-1.8285,-1.7934,-1.7979,-1.7867,-1.747,-1.6965,-1.6561,-1.6307,-1.5163,-1.4469,-1.4297,-1.3512,-1.2748,-1.1958,-1.2265,-1.2047,0.0,0.0,0.0,0.0,0.0,0.0,0.0,0.0,0.0,0.0,0.0,0.0,0.0,0.0,0.0,-3.0511,-3.1001,-3.1455,-3.1984,-3.1709,-3.1716,-3.2407,-3.2562,-3.2605,-3.2605,-3.2562,-3.2288,-3.1705,-3.1528,-3.125,-3.0847,-3.0578,0.0,-3.1948,-3.0654,-3.0396,-3.1368,-2.9977,-2.9279,-2.9312,0.0,0.0,-2.8721,-2.9441,-2.92,-2.8233,-2.8186,-2.7904,-2.7499,-2.7357,-2.6774,-2.6032,-2.6328,-2.6335,-2.6076,-2.5805,-2.5498,-2.513,-2.4878,-2.47,-2.4587,-2.4035,-2.3728,-2.3479,-2.3229,-2.3229,0.0,-2.39,-2.4062,-2.4057,-2.4112,-2.3388,-2.2551,-2.2123,-2.1275,-2.0617,-2.0771,-2.0248,-1.9879,-2.0285,-1.9411,-1.868,-1.8809,-1.8889,-1.8712,-1.8268,-1.8349,-1.8381,-1.8272,-1.8311,-1.8203,-1.775,-1.7804,-1.7493,-1.6588,-1.6726,-1.6676,-1.6226,-1.5964,-1.583,-1.5835,-1.5077,-1.4777,-1.5032,-1.4134,-1.365,-1.3594,-1.3177,-1.2721,-1.2283,-1.1571,-1.1064,0.0,0.0,0.0,0.0,0.0,0.0,0.0,0.0,0.0,0.0,0.0,-2.7526,0.0,0.0,-2.9537,-3.0334,-3.0636,-3.0973,-3.1553,-3.1362,-3.1318,-3.1805,-3.1849,-3.1893,-3.2025,-3.1937,-3.1849,-3.1849,-3.1172,-3.0713,-3.0623,-3.0125,-3.0181,-3.0965,-2.9818,-2.9589,-3.0496,-2.9073,-2.8409,-2.856,-2.876,-2.862,-2.8196,-2.8423,-2.8096,-2.7468,-2.7468,-2.7098,-2.6476,-2.6342,-2.581,-2.5109,-2.5265,-2.5216,-2.506,-2.4932,-2.4735,-2.4489,-2.4242,-2.4134,-2.4026,-2.3479,-2.3229,-2.3029,-2.2627,-2.2476,-2.2526,-2.2509,-2.2509,-2.245,-2.2324,-2.1878,-2.1387,-2.0995,-2.0403,-1.9843,-1.9672,-1.9309,-1.8998,-1.8883,-1.8271,-1.7715,-1.7548,-1.7371,-1.7169,-1.7156,-1.7254,-1.7239,-1.6958,-1.6958,-1.6893,-1.6736,-1.6575,-1.6239,-1.5596,-1.5378,-1.5137,-1.4922,-1.4504,-1.4289,-1.4317,-1.3676,-1.3459,-1.3668,-1.31,-1.2795,-1.2705,-1.253,-1.2059,-1.1348,-1.0378,-1.0252,0.0,0.0,0.0,0.0,0.0,0.0,0.0,0.0,-2.5696,-2.6003,-2.6552,-2.7052,-2.7297,-2.8084,-2.9,-2.988,-3.0151,-3.041,-3.0976,-3.0864,-3.0777,-3.0982,-3.1128,-3.1306,-3.1395,-3.125,-3.1306,-3.1661,-3.0623,-3.0034,-3.017,-2.9577,-2.9371,-2.9738,-2.8956,-2.8771,-2.9372,-2.8247,-2.7704,-2.7799,-2.7536,-2.7489,-2.7715,-2.7183,-2.6897,-2.6764,-2.662,-2.6177,-2.5499,-2.5274,-2.4833,-2.4332,-2.4282,-2.4233,-2.4183,-2.4233,-2.4084,-2.3836,-2.3538,-2.3438,-2.3329,-2.2828,-2.2627,-2.2476,-2.2021,-2.1674,-2.1369,-2.0865,-2.0557,-2.0308,-2.0086,-1.9923,-1.9768,-1.9569,-1.9213,-1.888,-1.861,-1.8272,-1.7874,-1.7476,-1.7041,-1.6609,-1.6174,-1.5701,-1.5625,-1.6202,-1.6354,-1.6272,-1.5967,-1.573,-1.5683,-1.5913,-1.5417,-1.5027,-1.4876,-1.4263,-1.3865,-1.3765,-1.34,-1.314,-1.3035,-1.27,-1.2474,-1.2426,-1.2218,-1.1983,-1.1714,-1.1671,-1.1101,-1.0005,-0.9213,-0.9503,-1.925,-1.9896,-2.069,-2.1365,-2.2714,-2.4003,0.0,0.0,-2.6343,-2.6569,-2.676,-2.6977,-2.7174,-2.7847,-2.8438,-2.8733,-2.9409,-2.9986,-3.0296,-2.9939,-2.9745,-3.0023,-3.0612,-3.0871,-3.0397,-3.0578,-3.025,-2.9187,-2.9163,-2.9035,-2.8675,-2.8326,-2.8279,-2.8571,-2.7867,-2.7584,-2.7857,-2.7061,-2.6774,-2.6993,-2.6726,-2.664,-2.664,-2.6342,-2.6187,-2.6139,-2.5664,-2.5284,-2.4981,-2.4686,-2.4282,-2.3786,-2.3529,-2.3279,-2.3129,-2.3329,-2.3279,-2.2979,-2.2476,-2.2274,-2.2224,-2.192,-2.1674,-2.142,-2.1121,-2.0873,-2.0565,-2.0292,-1.9983,-1.9783,-1.9732,-1.9354,-1.893,-1.893,-1.8309,-1.7771,-1.7732,-1.7168,-1.6614,-1.6568,-1.5916,-1.5401,-1.5305,-1.4641,-1.4352,-1.5047,-1.5403,-1.5344,-1.491,-1.4831,-1.4831,-1.4879,-1.4609,-1.4106,-1.3397,-1.3282,-1.3022,-1.2536,-1.2528,-1.2494,-1.2394,-1.2181,-1.1975,-1.1804,-1.1547,-1.1214,-1.0766,-1.0598,-0.9985,-0.9061,-0.852,-0.8818,-1.8152,-1.8883,0.0,0.0,-2.1496,-2.2644,-2.3569,-2.4316,-2.5004,-2.5676,-2.5979,-2.6296,-2.6905,-2.761,-2.8256,0.0,-2.9484,-2.9913,-2.9804,-2.9636,-2.9443,-2.9233,-2.9874,-3.0193,-2.9806,-2.9886,-2.9795,-2.936,-2.8771,-2.842,-2.8351,-2.7846,-2.7478,-2.7299,-2.7156,-2.6955,-2.6716,-2.6438,-2.6235,-2.6177,-2.5752,-2.5654,-2.579,-2.5206,-2.4922,-2.4913,-2.4174,-2.4035,-2.4183,-2.3728,-2.3329,-2.2979,-2.2728,-2.2325,-2.2021,-2.2627,-2.2677,-2.2375,-2.1979,-2.1776,-2.1573,-2.1121,-2.0925,-2.0771,-2.0351,-2.0094,-1.9946,-1.9532,-1.9309,-1.9094,-1.8795,-1.8422,-1.7996,-1.7674,-1.7206,-1.6742,-1.6239,-1.589,-1.5469,-1.4856,-1.4465,-1.4105,-1.3808,-1.3451,-1.3252,-1.3413,-1.3921,-1.4225,-1.4033,-1.3871,-1.3678,-1.3389,-1.3238,-1.2945,-1.2262,-1.2065,-1.1845,-1.1441,-1.1352,-1.1234,-1.1069,-1.1021,-1.086,-1.0727,-1.0467,-1.0164,-0.9864,-0.9152,-0.8492,-0.7837,-0.6974,-0.6853,-1.7095,0.0,0.0,-1.9445,-2.0329,-2.1329,-2.2509,-2.314,-2.3741,-2.4573,-2.5036,-2.5529,-2.6211,-2.6949,-2.7645,-2.8328,-2.8847,-2.9175,-2.9001,-2.9055,-2.8916,-2.8527,-2.9098,-2.9306,-2.8826,-2.9177,-2.9233,-2.8945,-2.8164,-2.7741,-2.7825,-2.722,-2.6764,-2.64,-2.6428,-2.6235,-2.5752,-2.5703,-2.5509,-2.5255,-2.4775,-2.4677,-2.4854,-2.4125,-2.3728,-2.3628,-2.2979,-2.2878,-2.3129,-2.2728,-2.2375,-2.2021,-2.1827,-2.142,-2.1011,-2.1564,-2.1717,-2.1623,-2.1361,-2.1113,-2.0909,-2.0506,-2.0359,-2.0205,-1.9732,-1.942,-1.9153,-1.8653,-1.8318,-1.8035,-1.7635,-1.7318,-1.7001,-1.6465,-1.6029,-1.5573,-1.4891,-1.4493,-1.3999,-1.3263,-1.2989,-1.2697,-1.2238,-1.2199,-1.2107,-1.1904,-1.2371,-1.2791,-1.2953,-1.2759,-1.2467,-1.2127,-1.198,-1.1764,-1.1307,-1.1044,-1.0782,-1.0599,-1.0399,-1.0251,-1.0173,-1.0012,-0.9835,-0.9684,-0.9279,-0.899,-0.8815,-0.8017,-0.7309,-0.6697,-0.5669,-0.5223,-1.6444,-1.6909,-1.7537,-1.8729,-1.9668,-2.055,-2.1431,-2.2291,-2.3051,-2.3475,-2.426,-2.493,-2.4941,-2.565,-2.6415,-2.6871,-2.696,-2.7129,-2.7588,-2.7865,-2.805,-2.8028,-2.8285,-2.8103,0.0,-2.8324,-2.8387,-2.6726,-2.6812,-2.6812,-2.6592,-2.6294,-2.6139,-2.6091,-2.5616,-2.5235,-2.4932,-2.4686,-2.443,-2.4134,-2.3877,-2.3728,-2.3728,-2.3179,-2.2778,-2.2526,-2.2224,-2.1979,-2.1776,-2.1725,-2.1428,-2.0976,-2.0917,-2.0609,-2.0138,-1.9879,-2.0094,-2.0514,-2.0241,-2.013,-2.013,-2.013,-1.9931,-1.968,-1.9376,-1.8736,-1.7989,-1.774,-1.7041,-1.6346,-1.6346,-1.6146,-1.5885,-1.5613,-1.4914,-1.4265,-1.3986,-1.2978,-1.2066,-1.1959,-1.1588,-1.1163,-1.0913,-1.0869,-1.0869,-1.0864,-1.0855,-1.1047,-1.1585,-1.1438,-1.1243,-1.1243,-1.0998,-1.0752,-1.0449,-1.0171,-1.0044,-1.0038,-0.9849,-0.9818,-1.0105,-0.9561,-0.9087,-0.8857,-0.8197,-0.776,-0.7533,-0.7272,-0.665,-0.5719,-0.4959,-0.4514,-1.4862,-1.5809,-1.6864,-1.7935,-1.8746,-1.9454,-2.0269,-2.08,-2.1382,-2.2443,-2.2908,-2.3447,-2.4608,-2.5262,-2.585,-2.6594,-2.7116,-2.7358,-2.7155,-2.7332,-2.7186,-2.6441,-2.6862,0.0,0.0,0.0,0.0,-2.6656,-2.6913,-2.6935,-2.6544,-2.5411,-2.4766,-2.4766,-2.4223,-2.3827,-2.3578,-2.3479,-2.3279,-2.3029,-2.2577,-2.2182,-2.1818,-2.1471,-2.1377,-2.142,-2.1173,-2.107,-2.1173,-2.0968,-2.0712,-2.0344,-2.0197,-1.9768,-1.9242,-1.9146,-1.9094,-1.9101,-1.919,-1.9242,-1.919,-1.9042,-1.8885,-1.8736,-1.8318,-1.7845,-1.7325,-1.6683,-1.6152,-1.5666,-1.5292,-1.497,-1.4609,-1.3965,-1.3493,-1.3008,-1.2269,-1.1649,-1.1079,-1.0717,-1.0353,-1.0167,-1.0265,-1.0265,-1.0265,-1.0265,-1.0703,-1.1047,-1.1047,-1.0998,-1.0708,-1.0216,-1.0068,-0.9821,-0.9369,-0.9265,-0.9109,-0.8973,-0.9067,-0.9022,-0.8823,-0.8811,-0.8509,-0.7874,-0.7639,-0.7062,-0.6113,-0.5852,-0.5131,-0.4014,-0.3331,-0.2929,-1.3752,-1.4949,-1.6215,-1.7122,-1.7978,-1.8745,-1.9271,-1.9578,-2.0044,-2.1049,-2.1598,-2.2241,-2.3638,-2.4239,-2.4863,-2.593,-2.6361,-2.6527,-2.6481,-2.6658,-2.6461,-2.5523,-2.5752,-2.543,0.0,0.0,0.0,-2.5839,-2.6016,-2.6046,-2.58,-2.4627,-2.3926,-2.3827,-2.3279,-2.2828,-2.2476,-2.2375,-2.2131,-2.1776,-2.1318,-2.0909,-2.0454,-2.0205,-2.0153,-2.0308,-2.0042,-1.9931,-1.9983,-1.9931,-1.9672,-1.9361,-1.9257,-1.884,-1.8206,-1.8094,-1.7838,-1.7582,-1.8258,-1.8468,-1.8311,-1.8048,-1.7838,-1.7569,-1.7259,-1.6736,-1.6158,-1.5565,-1.503,-1.4493,-1.4067,-1.3729,-1.3304,-1.2684,-1.2216,-1.1775,-1.1051,-1.0541,-1.0112,-0.9797,-0.9476,-0.9373,-0.9521,-0.9571,-0.9521,-0.9422,-0.9867,-1.0212,-1.0216,-1.0162,-0.9867,-0.9229,-0.908,-0.8829,-0.8428,-0.8276,-0.818,-0.8131,-0.818,-0.8135,-0.7986,-0.7938,-0.7627,-0.7016,-0.6824,-0.6247,-0.5208,-0.4766,-0.4023,-0.3075,-0.201,-0.1459,-1.3068,-1.4294,-1.5645,-1.6386,-1.747,-1.8313,-1.8313,-1.8643,-1.8993,-1.939,-2.0301,-2.1227,-2.1909,-2.2542,-2.3438,-2.4821,-2.4661,-2.4631,-2.5547,-2.5858,-2.5771,0.0,0.0,0.0,0.0,0.0,0.0,-2.4174,0.0,-2.4351,-2.4461,-2.3935,-2.3479,-2.3229,-2.2677,-2.2123,-2.1623,-2.1369,-2.0968,-2.0411,-2.0145,-1.9879,-1.9628,-1.9376,-1.9227,-1.922,-1.8885,-1.8572,-1.837,-1.8617,-1.8415,-1.7964,-1.8213,-1.7799,-1.7067,-1.6789,-1.6311,-1.6045,-1.7378,-1.7694,-1.7477,-1.7199,-1.6723,-1.6246,-1.6187,-1.5446,-1.4546,-1.4498,-1.3689,-1.2827,-1.2827,-1.25,-1.2067,-1.1681,-1.1173,-1.0639,-1.0277,-0.9642,-0.9137,-0.9137,-0.8931,-0.8775,-0.8726,-0.8726,-0.8676,-0.8382,-0.8333,-0.8535,-0.9084,-0.8928,-0.8676,-0.8382,-0.8137,-0.7885,-0.758,-0.7335,-0.7285,-0.7481,-0.7285,-0.7285,-0.7481,-0.6917,-0.646,-0.6206,-0.5761,-0.5275,-0.4748,-0.401,-0.3314,-0.2708,-0.1025,-0.0139,-1.2735,-1.3803,-1.5024,-1.6079,-1.6919,-1.7416,-1.7367,-1.7318,-1.7384,-1.7805,-1.8012,-1.8515,-1.9822,-2.075,-2.1699,-2.2961,-2.3461,0.0,-2.4842,-2.467,0.0,-2.3975,0.0,-2.2608,-2.1899,-2.1671,0.0,0.0,-2.3461,-2.4276,-2.4227,-2.2769,-2.1878,-2.1827,-2.1105,-2.0644,-2.049,-2.0241,-1.9828,-1.925,-1.9138,-1.899,-1.8736,-1.8429,-1.8331,-1.8331,-1.8055,-1.7898,-1.7793,-1.7898,-1.7575,-1.7054,-1.71,-1.6624,-1.5939,-1.6045,-1.5719,-1.5286,-1.5618,-1.5998,-1.6311,-1.6039,-1.5826,-1.5559,-1.4917,-1.4379,-1.3781,-1.3142,-1.2599,-1.2169,-1.2005,-1.1581,-1.1128,-1.0678,-1.0205,-0.9649,-0.9014,-0.856,-0.829,-0.829,-0.8237,-0.8134,-0.7928,-0.7928,-0.7879,-0.7829,-0.7487,-0.749,-0.8187,-0.8237,-0.8084,-0.7829,-0.7733,-0.7534,-0.7039,-0.6942,-0.6742,-0.6439,-0.6537,-0.6437,-0.6134,-0.6161,-0.5807,-0.5138,-0.477,-0.4072,-0.2889,-0.2633,-0.1799,-0.0428,0.0,0.0372,-1.1973,-1.3045,-1.4316,-1.5262,-1.6038,-1.6613,-1.6723,-1.6376,-1.6149,-1.6615,-1.6592,-1.6838,-1.8066,-1.9134,-2.0281,0.0,0.0,0.0,-2.3815,-2.3629,-2.3257,0.0,-2.243,0.0,-2.0894,-2.0666,-2.0567,0.0,-2.1992,-2.2933,-2.3026,-2.1709,-2.0909,-2.0755,-2.0086,-1.962,-1.9354,-1.9101,-1.8788,-1.8475,-1.8213,-1.8003,-1.7852,-1.7589,-1.7378,-1.7226,0.0,-1.6895,-1.6677,-1.6677,-1.6305,-1.5773,-1.5773,-1.5345,-1.4696,-1.4761,-1.4546,-1.4218,-1.4121,-1.4283,-1.46,-1.4546,-1.4415,-1.4109,-1.3528,-1.3034,-1.266,-1.2217,-1.1643,-1.1192,-1.1197,-1.0712,-1.0143,-0.9806,-0.935,-0.8842,-0.8251,-0.7882,-0.7637,-0.7637,-0.7637,-0.7587,-0.7285,-0.7135,-0.7033,-0.6936,-0.6539,-0.6389,-0.6739,-0.7089,-0.7188,-0.6936,-0.6886,-0.6686,-0.6142,-0.6092,-0.5942,-0.5489,-0.5489,-0.5388,-0.5087,-0.4885,-0.4558,-0.4065,-0.3569,-0.2846,-0.1925,-0.1445,-0.0581,0.0586,0.1044,0.1231,-1.1115,-1.2196,-1.3498,-1.4137,-1.5035,-1.5782,-1.5955,-1.5427,-1.5013,-1.5427,0.0,-1.544,-1.6357,-1.7549,-1.8823,-2.0161,0.0,-2.1554,-2.2599,-2.259,-2.2355,-2.1919,-2.1771,-2.1325,-2.0208,-2.0273,-2.0063,-1.9323,-2.0095,-2.086,-2.1438,-2.0688,-2.0122,-1.982,-1.9376,-1.8803,-1.816,-1.7957,-1.7806,-1.7701,-1.7226,-1.7014,-1.7014,-1.663,-1.6365,-1.6164,0.0,0.0,-1.5512,-1.5334,-1.5007,-1.4609,-1.4428,-1.4002,-1.3457,-1.3202,-1.3098,-1.2985,-1.2772,-1.2718,-1.2772,-1.3098,-1.2837,-1.2389,-1.2157,-1.1705,-1.1324,-1.1433,-1.0782,-1.0104,-1.0383,-0.9789,-0.9073,-0.8962,-0.8497,-0.8028,-0.7638,-0.7282,-0.7039,-0.6989,-0.7039,-0.6939,-0.6692,-0.6439,-0.6139,-0.5942,-0.5639,-0.5338,-0.514,-0.5789,-0.6137,-0.5892,-0.5842,-0.5641,-0.514,-0.509,-0.4987,-0.4734,-0.4437,-0.4286,-0.4237,-0.3528,-0.3073,-0.2972,-0.2319,-0.1763,-0.1406,-0.0396,0.0347,0.0803,0.1799,0.2123,-1.0921,-1.1519,-1.2177,-1.3119,-1.4127,-1.4739,-1.402,-1.3613,0.0,0.0,-1.301,-1.3237,-1.39,-1.5243,-1.6654,-1.789,0.0,0.0,0.0,0.0,-2.0976,0.0,0.0,0.0,0.0,0.0,0.0,0.0,0.0,-1.9116,-2.0012,-1.9457,-1.8885,-1.8384,-1.8279,-1.7852,-1.6995,-1.6942,-1.6683,-1.6264,-1.6158,-1.6105,-1.6105,-1.5571,-1.541,-1.5618,0.0,0.0,-1.5682,-1.4506,-1.4366,-1.4785,-1.3665,-1.2822,-1.2273,-1.2223,-1.1896,-1.1509,-1.1732,-1.1841,-1.1896,-1.2387,-1.2079,-1.1509,-1.1354,-1.0787,-1.0273,-1.0301,-0.9865,-0.9347,-0.9319,-0.8741,-0.8075,-0.7901,-0.7467,-0.6956,-0.6551,-0.6324,-0.6142,-0.5937,-0.6039,-0.6139,-0.5837,-0.5589,-0.5391,-0.534,-0.4939,-0.4587,-0.4539,-0.5039,-0.5288,-0.5035,-0.4985,-0.4887,-0.4589,-0.4539,-0.4437,-0.4133,-0.388,-0.363,-0.3432,-0.3078,-0.2572,-0.1915,-0.1716,-0.1203,-0.0296,0.035,0.0699,0.0838,0.1617,0.2038,-0.9969,-1.0656,-1.1378,-1.2685,-1.33,-1.3481,-1.2991,0.0,0.0,0.0,-1.1423,-1.1592,-1.2375,-1.3746,0.0,-1.6389,0.0,0.0,0.0,0.0,0.0,0.0,0.0,0.0,0.0,0.0,0.0,0.0,0.0,0.0,-1.899,-1.8035,-1.7193,-1.6458,-1.6624,-1.6524,-1.6092,-1.6092,-1.5885,-1.541,-1.5303,-1.5137,-1.503,-1.4708,-1.4606,-1.4552,-1.4121,0.0,-1.3949,-1.3146,-1.2803,-1.2715,-1.2014,-1.1514,-1.1131,-1.1131,-1.0911,-1.0633,-1.0637,-1.0578,-1.0464,-1.057,-1.0547,-1.0448,-1.0059,-0.9482,-0.9009,-0.9177,-0.8846,-0.8457,-0.8458,-0.7905,-0.7308,-0.7004,-0.6532,-0.6095,-0.593,-0.5826,-0.5737,-0.5636,-0.5589,-0.5489,-0.5236,-0.4734,-0.4383,-0.4383,-0.3932,-0.3531,-0.3379,-0.3731,-0.4033,-0.4182,-0.4031,-0.3883,-0.3581,-0.3581,-0.3429,-0.3176,-0.3025,-0.2925,-0.2775,-0.2372,-0.1969,-0.1615,-0.1212,-0.0654,0.0,0.0251,0.0603,0.0997,0.1184,0.1326,-0.8702,-0.9636,-1.0595,-1.2115,-1.2441,-1.2296,-1.1986,-1.1419,0.0,-1.0302,-1.009,-1.0246,-1.1111,-1.2342,-1.3674,0.0,-1.5781,-1.6752,0.0,0.0,0.0,0.0,0.0,0.0,0.0,0.0,0.0,0.0,0.0,0.0,-1.7733,-1.6611,-1.5601,-1.4852,-1.5018,-1.5078,-1.503,-1.503,-1.4922,-1.4606,-1.4444,-1.4169,-1.39,-1.3846,-1.3684,-1.3423,-1.3315,0.0,0.0,-1.1928,-1.1374,-1.0845,-1.0566,-1.0253,-0.9978,-0.9868,-0.9757,-0.9699,-0.9427,-0.9254,-0.903,-0.8644,-0.8902,-0.9264,-0.8666,-0.816,-0.7775,-0.7998,-0.7748,-0.7507,-0.7529,-0.7036,-0.6452,-0.6002,-0.5538,-0.5239,-0.5273,-0.5233,-0.5233,-0.5233,-0.5037,-0.4786,-0.4583,-0.388,-0.3327,-0.3327,-0.2875,-0.2472,-0.2269,-0.2371,-0.2623,-0.3025,-0.2976,-0.2876,-0.2623,-0.2623,-0.2522,-0.232,-0.2321,-0.2321,-0.2321,-0.1869,-0.1566,-0.1415,-0.0909,-0.0404,0.0101,0.0051,0.0354,0.101,0.0895,0.0845,-0.7289,-0.8304,-0.9374,-1.0721,-1.1376,-1.1399,-1.0308,0.0,-0.9756,-0.8904,-0.8893,-0.92,-0.9685,-1.0613,-1.1723,0.0,-1.3857,-1.4871,0.0,0.0,0.0,0.0,0.0,0.0,0.0,0.0,0.0,0.0,0.0,0.0,0.0,-1.5114,-1.4637,-1.4272,-1.4002,-1.3732,-1.3472,-1.3478,-1.3478,-1.3478,-1.3423,-1.3261,-1.2989,-1.2713,-1.2545,-1.2495,0.0,0.0,0.0,-1.1376,-1.1066,-1.1287,-1.0023,-0.9316,-0.8978,-0.8429,-0.8211,-0.8152,-0.7873,-0.7922,-0.8029,-0.7426,-0.761,-0.7897,-0.7416,-0.7118,-0.6876,-0.6632,-0.6505,-0.6403,-0.6225,-0.5792,-0.5231,-0.4685,-0.4426,-0.4289,-0.4152,-0.4133,-0.4133,-0.4133,-0.393,-0.3729,-0.3728,-0.3025,-0.2521,-0.2521,-0.2068,-0.1714,-0.1664,-0.1463,-0.1364,-0.1414,-0.1817,-0.2118,-0.2068,-0.2068,-0.2068,-0.2017,-0.202,-0.2021,-0.2021,-0.1768,-0.1364,-0.0859,-0.1263,-0.0859,0.0354,0.0101,0.0152,0.0505,0.0958,0.1249,-0.6063,-0.7621,-0.916,-1.0238,-1.0677,-1.047,-0.9046,0.0,-0.8692,-0.7375,-0.7469,-0.8017,-0.8636,-0.951,-1.0606,-1.1897,-1.2524,-1.3433,-1.5106,0.0,0.0,0.0,0.0,0.0,0.0,0.0,0.0,0.0,0.0,0.0,0.0,-1.3132,-1.297,-1.2377,-1.2377,-1.2273,-1.2001,-1.2169,-1.2104,-1.1872,-1.1872,-1.1711,-1.1438,-1.1163,-1.1188,-1.1341,0.0,0.0,0.0,-1.0167,-0.9751,-0.9873,-0.8588,-0.7986,-0.7817,-0.7379,-0.7099,-0.6932,-0.6599,-0.6482,-0.6369,-0.5929,-0.5904,-0.6088,-0.6177,-0.5959,-0.5688,-0.5636,-0.5609,-0.5518,-0.5268,-0.4842,-0.4364,-0.406,-0.3917,-0.3867,-0.3796,-0.378,-0.3679,-0.3328,-0.3077,-0.2823,-0.2671,-0.2119,-0.1666,-0.1666,-0.1363,-0.1009,-0.0656,-0.0707,-0.0606,-0.0253,-0.0858,-0.1363,-0.1515,-0.1363,-0.1363,-0.1515,-0.1364,-0.1263,-0.1263,-0.1162,-0.101,-0.0808,-0.101,-0.0758,-0.0101,-0.0051,0.0202,0.0657,0.1211,0.1658,-0.4557,-0.6374,-0.8215,-0.9134,-0.933,-0.8983,0.0,0.0,-0.7399,-0.6092,-0.6367,-0.7007,-0.7672,-0.846,-0.9437,-1.0751,-1.1282,-1.2043,-1.3746,-1.3815,0.0,0.0,0.0,0.0,0.0,0.0,0.0,0.0,0.0,0.0,0.0,-1.1232,-1.1177,-1.0743,-1.0798,-1.0739,-1.0574,-1.0799,-1.0762,-1.0523,-1.0469,-1.0339,-1.0069,-0.9898,-1.003,-1.0309,0.0,0.0,0.0,-0.9117,-0.8624,-0.8757,-0.7433,-0.6877,-0.671,-0.6323,-0.6044,-0.5819,-0.5431,-0.5152,-0.4927,-0.448,-0.4369,-0.4416,-0.4693,-0.4783,-0.4769,-0.4532,-0.449,-0.4454,-0.4189,-0.3877,-0.3553,-0.3351,-0.3342,-0.3278,-0.3234,-0.3175,-0.2973,-0.2521,-0.217,-0.1867,-0.1564,-0.101,-0.0657,-0.0707,-0.0455,-0.0101,0.0202,0.0051,0.0101,0.0455,0.0,-0.0455,-0.0808,-0.0606,-0.0606,-0.096,-0.0707,-0.0657,-0.0808,-0.0556,-0.0505,-0.0556,-0.0404,-0.0202,0.005,0.0353,0.0707,0.1161,0.1765,0.2519,-0.2619,-0.4333,-0.6122,-0.6917,-0.7066,-0.6794,0.0,-0.593,-0.5891,-0.5186,-0.5589,-0.626,-0.6751,-0.7187,-0.807,-0.9728,-1.0033,-1.0768,-1.289,0.0,0.0,0.0,0.0,0.0,0.0,0.0,0.0,0.0,0.0,0.0,0.0,-0.9578,-0.9199,-0.9816,-0.9258,-0.9085,-0.9416,-0.9269,-0.9355,-0.9616,-0.9501,-0.9268,-0.9007,-0.9007,-0.916,0.0,0.0,0.0,0.0,-0.8364,-0.7939,-0.8437,-0.6935,-0.6098,-0.5766,-0.5152,-0.4931,-0.4819,-0.4204,-0.4038,-0.3924,-0.3306,-0.3137,-0.3082,-0.2805,-0.3491,-0.414,-0.3266,-0.3117,-0.3181,-0.2877,-0.2827,-0.2726,-0.2472,-0.2422,-0.2422,-0.2422,-0.2219,-0.1917,-0.1664,-0.1161,-0.0707,-0.0455,0.0253,0.0707,0.0404,0.0859,0.1061,0.0808,0.0808,0.0808,0.0808,0.0808,0.0556,0.0051,0.0253,0.0152,-0.0354,-0.0152,-0.0253,-0.0758,-0.0051,0.0253,0.0,0.0504,0.0907,0.1159,0.1462,0.1714,0.2017,0.2821,0.4028,-0.0888,-0.2416,-0.4077,-0.4976,-0.5289,-0.523,-0.4765,-0.4884,-0.4915,-0.437,-0.4743,-0.5327,-0.5944,-0.6567,-0.7412,-0.8513,-0.9233,-1.0047,0.0,0.0,0.0,0.0,0.0,0.0,0.0,0.0,0.0,0.0,0.0,0.0,0.0,-0.8039,-0.8094,-0.8871,-0.8706,-0.8546,-0.8394,-0.8348,-0.8175,-0.7874,-0.783,-0.7707,-0.7446,-0.7304,0.0,0.0,0.0,0.0,0.0,-0.688,-0.6698,-0.7596,-0.5531,-0.465,-0.4484,-0.3866,-0.3698,-0.3642,-0.3253,-0.3086,-0.303,-0.2636,-0.2467,-0.2411,-0.1907,-0.2273,-0.2771,-0.2268,-0.2107,-0.2068,-0.2017,-0.1967,-0.1916,-0.1664,-0.1563,-0.1462,-0.111,-0.0959,-0.0707,-0.0101,0.0202,0.0454,0.0908,0.116,0.1312,0.1211,0.1212,0.1212,0.1314,0.1226,0.1178,0.1315,0.1736,0.1484,0.0354,0.0715,0.0925,0.0771,0.1249,0.1511,0.1543,0.1748,0.1738,0.1363,0.1513,0.1664,0.1765,0.2219,0.3124,0.4479,0.5081,0.6032,0.0795,-0.0629,-0.2012,-0.2712,-0.3141,0.0,-0.3301,-0.3626,-0.3917,-0.366,-0.4121,-0.4701,-0.5235,-0.5769,-0.6459,-0.7437,-0.8128,-0.885,0.0,0.0,0.0,0.0,0.0,0.0,0.0,0.0,0.0,0.0,0.0,0.0,0.0,0.0,-0.6932,-0.7485,-0.7487,-0.7395,-0.7322,-0.7115,-0.6831,-0.6526,-0.6438,-0.6243,-0.5989,-0.5866,0.0,0.0,0.0,0.0,0.0,-0.5753,-0.5624,-0.6566,-0.4561,-0.3755,-0.3606,-0.2977,-0.2761,-0.2718,-0.2316,-0.2156,-0.2112,-0.1833,-0.1618,-0.1457,-0.0946,-0.1213,-0.1685,-0.1584,-0.1344,-0.1122,-0.1122,-0.1065,-0.091,-0.0661,-0.0608,-0.0454,-0.005,0.0152,0.0459,0.1173,0.1386,0.1598,0.1906,0.2162,0.2213,0.1854,0.1856,0.201,0.2268,0.2289,0.2392,0.2707,0.3089,0.2932,0.1969,0.2089,0.2102,0.1897,0.2488,0.2864,0.2748,0.2987,0.297,0.2701,0.2732,0.2773,0.2773,0.3478,0.4682,0.6234,0.6637,0.7434,0.0,0.1028,0.0041,-0.0291,-0.0837,-0.135,-0.1729,-0.2337,0.0,-0.3136,-0.3762,-0.4344,-0.4659,-0.4879,-0.5366,-0.6571,-0.6869,0.0,0.0,0.0,0.0,0.0,0.0,0.0,0.0,0.0,0.0,0.0,0.0,0.0,0.0,0.0,-0.5708,-0.5699,-0.5644,-0.5813,-0.6207,-0.5739,-0.5477,-0.5567,-0.5239,-0.5004,-0.4744,-0.47,0.0,0.0,0.0,0.0,0.0,-0.4877,-0.4654,-0.5371,-0.3906,-0.3171,-0.2883,-0.2304,-0.2099,-0.2014,-0.1392,-0.1238,-0.1146,-0.0874,-0.0552,-0.0223,0.0055,-0.0273,-0.0816,-0.107,-0.0736,-0.026,-0.026,-0.0051,0.0204,0.0466,0.0564,0.0608,0.0911,0.1231,0.161,0.2234,0.258,0.2769,0.2819,0.3295,0.3398,0.2546,0.2869,0.3296,0.3558,0.3829,0.4177,0.4571,0.4725,0.4741,0.4547,0.4036,0.3482,0.3026,0.374,0.3875,0.3318,0.3824,0.4077,0.3943,0.4079,0.4142,0.4142,0.5188,0.6237,0.7285,0.758,0.8273,0.3074,0.0,0.2193,0.0898,0.0369,-0.0207,0.0,-0.1876,-0.2198,-0.3037,-0.3496,-0.3989,-0.4788,-0.4966,-0.5305,-0.6258,-0.6697,-0.7064,0.0,0.0,0.0,0.0,0.0,0.0,0.0,0.0,0.0,0.0,0.0,0.0,0.0,0.0,-0.4901,-0.4453,-0.4176,-0.4505,-0.544,-0.5341,-0.5194,-0.5054,-0.4613,-0.4386,-0.4275,-0.3863,0.0,0.0,0.0,0.0,-0.468,-0.3651,-0.3471,-0.373,-0.2377,-0.1761,-0.1659,-0.112,-0.0908,-0.0857,-0.048,-0.0374,-0.0268,0.0272,0.0658,0.0937,0.1278,0.093,0.0375,0.0374,0.0789,0.1144,0.0949,0.1161,0.1422,0.1692,0.1952,0.2158,0.242,0.2743,0.3172,0.3699,0.4083,0.4395,0.4698,0.5052,0.5236,0.4855,0.4852,0.4842,0.4683,0.4851,0.4899,0.4757,0.5341,0.5794,0.587,0.509,0.4629,0.4779,0.5415,0.5782,0.5913,0.5766,0.5604,0.5494,0.5399,0.54,0.54,0.6332,0.7285,0.8134,0.8623,0.9266,0.2997,0.2674,0.2267,0.1114,0.0416,-0.0338,-0.14,-0.1808,-0.2123,-0.2906,-0.3405,-0.3941,-0.4565,-0.4699,-0.4822,-0.5291,-0.5536,0.0,0.0,0.0,0.0,0.0,0.0,0.0,0.0,0.0,0.0,0.0,0.0,0.0,0.0,0.0,-0.3902,-0.3567,-0.3103,-0.3375,-0.4426,-0.4231,-0.4121,-0.4042,-0.3582,-0.3308,-0.3123,-0.2688,0.0,0.0,0.0,0.0,-0.2871,-0.26,-0.2355,-0.2101,-0.1346,-0.0941,-0.0631,-0.0261,-0.0105,-0.0053,0.0365,0.0575,0.0739,0.1139,0.1476,0.1752,0.1935,0.1905,0.1761,0.14,0.1607,0.1917,0.1774,0.2036,0.2403,0.2584,0.2894,0.3248,0.3356,0.3909,0.4466,0.4841,0.5362,0.5699,0.5803,0.6064,0.6151,0.5771,0.5917,0.611,0.6163,0.6371,0.6621,0.6773,0.6985,0.7166,0.7287,0.6854,0.6466,0.6205,0.6678,0.6982,0.7096,0.6873,0.6683,0.6587,0.6527,0.6621,0.6975,0.7715,0.8396,0.8977,0.9616,1.0207,0.2416,0.1753,0.1108,0.0765,-0.0043,-0.0962,-0.1613,-0.1978,-0.2378,-0.2913,-0.3457,-0.3913,-0.4275,-0.4287,0.0,0.0,0.0,0.0,0.0,0.0,0.0,0.0,0.0,0.0,0.0,0.0,0.0,0.0,0.0,0.0,0.0,0.0,0.0,-0.2826,-0.2319,-0.2366,-0.3063,-0.2825,-0.2757,-0.2853,-0.2457,-0.2133,-0.1874,-0.1574,-0.1371,0.0,0.0,0.0,-0.1311,-0.1613,-0.1261,-0.0556,-0.0505,-0.0204,0.0258,0.0559,0.0663,0.0722,0.1222,0.1591,0.1832,0.1947,0.2187,0.2462,0.2577,0.2929,0.3168,0.2566,0.246,0.2451,0.2451,0.2807,0.3223,0.3271,0.373,0.4171,0.4183,0.4934,0.5691,0.5968,0.6536,0.693,0.674,0.6961,0.6953,0.6433,0.6774,0.7285,0.7784,0.8076,0.8485,0.9078,0.8798,0.8578,0.8737,0.8695,0.8377,0.7659,0.7854,0.7912,0.7809,0.7742,0.769,0.7672,0.7651,0.7946,0.8491,0.9048,0.9461,0.9826,1.056,1.1047,0.1395,0.0262,-0.0545,0.0045,-0.0307,-0.1097,-0.2188,-0.2316,-0.2512,-0.3542,-0.3547,-0.3588,-0.4276,-0.4107,-0.4018,0.0,0.0,0.0,0.0,0.0,0.0,0.0,0.0,0.0,0.0,0.0,0.0,0.0,0.0,0.0,0.0,0.0,0.0,-0.1917,-0.1578,-0.1348,-0.1222,-0.1727,-0.2053,-0.223,-0.1733,-0.1467,-0.1394,-0.0891,-0.0367,0.0,0.0,-0.0614,0.005,-0.0454,-0.0151,0.0556,0.0808,0.1062,0.1367,0.1666,0.1768,0.1827,0.216,0.2509,0.2823,0.3149,0.3388,0.3726,0.4334,0.4522,0.464,0.5052,0.4428,0.3634,0.3581,0.3831,0.4088,0.4099,0.4798,0.5456,0.5482,0.6229,0.7069,0.7569,0.7974,0.8336,0.8598,0.8953,0.9072,0.8888,0.903,0.9061,0.8899,0.9235,0.9475,0.9343,0.9504,0.9599,0.9754,0.9656,0.9721,0.9975,0.944,0.9129,0.9091,0.9542,0.9617,0.9262,0.9328,0.9399,0.9476,0.9954,1.034,1.0605,1.1194,1.1634,0.0753,-0.0226,-0.1067,-0.0846,-0.129,-0.1949,-0.252,-0.2427,-0.2451,-0.3061,0.0,0.0,0.0,0.0,0.0,0.0,0.0,0.0,0.0,0.0,0.0,0.0,0.0,0.0,0.0,0.0,0.0,0.0,0.0,0.0,0.0,0.0,0.0,0.0,-0.0726,-0.0463,-0.0152,-0.0308,-0.067,-0.1176,-0.0619,-0.0363,-0.0363,0.0366,0.084,0.1157,0.0,0.1151,0.1351,0.113,0.1177,0.1536,0.1774,0.2018,0.2269,0.2371,0.2522,0.2731,0.3192,0.3622,0.405,0.4638,0.4893,0.5072,0.549,0.5597,0.5628,0.6112,0.5606,0.4978,0.5085,0.5391,0.559,0.5586,0.6189,0.6754,0.675,0.7485,0.8205,0.8429,0.8871,0.9292,0.9712,0.9701,0.9783,1.0035,1.0139,1.0186,1.0186,1.0366,1.0527,1.0582,1.0417,1.0386,1.057,1.0698,1.0655,1.0411,1.0224,1.0126,1.0122,1.0494,1.0706,1.0675,1.0857,1.0973,1.1024,1.1266,1.1472,1.1602,1.2031,1.237,0.0459,-0.0373,-0.1133,-0.1357,-0.1907,-0.2484,-0.2722,-0.2487,-0.2279,-0.2615,0.0,0.0,0.0,0.0,0.0,0.0,0.0,0.0,0.0,0.0,0.0,0.0,0.0,0.0,0.0,0.0,0.0,0.0,0.0,0.0,0.0,0.0,0.0,0.0,0.0154,0.041,0.0656,0.0959,0.0707,0.0,0.0404,0.0661,0.0877,0.1649,0.2076,0.2367,0.2849,0.2961,0.2749,0.2772,0.276,0.2759,0.3015,0.3238,0.3478,0.3478,0.358,0.3844,0.4339,0.4797,0.5284,0.5898,0.6124,0.6248,0.6443,0.6525,0.6634,0.7016,0.6864,0.6531,0.6533,0.6761,0.7003,0.6995,0.7436,0.7886,0.8026,0.8644,0.9254,0.9416,0.9809,1.0198,1.0527,1.0363,1.0363,1.0857,1.0911,1.1021,1.1291,1.1291,1.1459,1.1732,1.1295,1.1076,1.1291,1.1618,1.1514,1.0966,1.1021,1.1076,1.1076,1.1459,1.1732,1.2005,1.2226,1.2393,1.2495,1.2541,1.2598,1.2672,1.3007,1.3221,0.0511,-0.0333,-0.1023,-0.0815,-0.1335,-0.2057,-0.2875,-0.2415,-0.205,-0.2805,0.0,0.0,0.0,0.0,0.0,0.0,0.0,0.0,0.0,0.0,0.0,0.0,0.0,0.0,0.0,0.0,0.0,0.0,0.0,0.0,0.0,0.0,0.0,0.0,0.0,0.1264,0.1513,0.1765,0.1615,0.1061,0.1111,0.1516,0.2274,0.2578,0.3135,0.3851,0.4015,0.4198,0.4414,0.4583,0.4612,0.4663,0.5095,0.5313,0.5384,0.5384,0.5434,0.5461,0.5706,0.5982,0.6333,0.6561,0.6853,0.713,0.7421,0.7482,0.7645,0.8524,0.8692,0.8475,0.7467,0.7496,0.7801,0.7801,0.8285,0.8804,0.9164,0.9754,1.0363,1.0852,1.0962,1.1126,1.1459,1.1514,1.1514,1.1514,1.1514,1.1623,1.1896,1.1946,1.206,1.2327,1.206,1.1896,1.1946,1.2164,1.2441,1.2718,1.2441,1.2278,1.2278,1.2822,1.3152,1.3207,1.3268,1.3303,1.3288,1.3623,1.3806,1.3789,1.4078,1.4174,0.0526,-0.0097,-0.0688,-0.0741,-0.0841,-0.1185,-0.2114,-0.1873,-0.1577,-0.2044,-0.1661,0.0,0.0,0.0,0.0,0.0,0.0,0.0,0.0,0.0,0.0,0.0,0.0,0.0,0.0,0.0,0.0,0.0,0.0,0.0,0.0,0.0,0.0,0.1784,0.1874,0.217,0.2573,0.2674,0.2875,0.3173,0.2671,0.2688,0.3231,0.4048,0.4587,0.4898,0.5713,0.5889,0.5677,0.586,0.5729,0.5514,0.5883,0.6123,0.6289,0.6088,0.6139,0.6363,0.6835,0.7109,0.7349,0.8234,0.8461,0.8535,0.8848,0.9096,0.9372,0.9702,1.0029,1.0053,0.9114,0.9128,0.9446,0.9607,0.9934,1.0381,1.0887,1.1181,1.1455,1.1837,1.1782,1.1841,1.2332,1.2114,1.2005,1.2332,1.2223,1.2114,1.2223,1.2441,1.2609,1.2713,1.2767,1.2881,1.3039,1.3152,1.3261,1.3369,1.2989,1.2876,1.3207,1.3635,1.3954,1.4121,1.4297,1.4414,1.4414,1.4386,1.4464,1.4665,1.4765,1.4892,0.0682,0.0197,-0.0199,-0.0352,-0.0354,-0.0453,-0.1044,-0.1051,-0.1006,-0.1292,-0.0941,-0.0495,0.0,0.0,0.0,0.0,0.0,0.0,0.0,0.0,0.0,0.0,0.0,0.0,0.0,0.0,0.0,0.0,0.0,0.0,0.0,0.0,0.0,0.0,0.2874,0.3228,0.3833,0.3732,0.4133,0.4883,0.4528,0.4358,0.4466,0.5333,0.5779,0.5905,0.6826,0.7055,0.6683,0.6952,0.6958,0.6777,0.6852,0.7126,0.7431,0.7229,0.7358,0.762,0.8128,0.8282,0.8468,0.9374,0.9591,0.9613,0.9892,1.0202,1.0417,1.0527,1.0802,1.0966,1.0527,1.0527,1.0747,1.0966,1.1131,1.1404,1.1891,1.206,1.2223,1.2495,1.2495,1.255,1.2935,1.2659,1.2604,1.3098,1.2876,1.2762,1.2925,1.3093,1.3207,1.331,1.3527,1.3802,1.3964,1.391,1.391,1.4072,1.3748,1.3635,1.3856,1.4175,1.4439,1.4713,1.5089,1.5303,1.5303,1.5347,1.541,1.5608,1.5588,1.5702,0.1031,0.0597,0.0404,0.0404,0.0202,0.0101,0.0354,0.0,-0.0455,-0.0707,-0.0354,0.0202,0.0707,0.0,0.0,0.0,0.0,0.0,0.0,0.0,0.0,0.0,0.0,0.0,0.0,0.0,0.0,0.0,0.0,0.0,0.0,0.0,0.0,0.0,0.3882,0.4386,0.519,0.4937,0.5236,0.6042,0.6534,0.6534,0.6042,0.6289,0.6589,0.6853,0.7235,0.7395,0.7455,0.7851,0.8297,0.8678,0.832,0.8575,0.9133,0.9133,0.9238,0.941,0.9568,0.962,0.9646,0.9764,1.0036,1.0312,1.0315,1.0531,1.0747,1.1021,1.1131,1.1181,1.1514,1.1623,1.1623,1.1623,1.1623,1.1678,1.1951,1.2219,1.2495,1.2827,1.3152,1.3315,1.3315,1.3315,1.3423,1.3645,1.3478,1.3527,1.4116,1.3905,1.3856,1.4169,1.4439,1.4606,1.4606,1.4385,1.4439,1.4987,1.4987,1.4767,1.4223,1.4493,1.4767,1.4987,1.5624,1.5891,1.5891,1.6418,1.6677,1.6677,1.6677,1.6677,0.1178,0.0896,0.0707,0.0909,0.0,0.0,0.0,0.0808,0.0,0.0,0.0977,0.1239,0.1465,0.0,0.0,0.0,0.0,0.0,0.0,0.0,0.0,0.0,0.0,0.0,0.0,0.0,0.0,0.0,0.0,0.0,0.0,0.0,0.0,0.0,0.5388,0.5589,0.6037,0.6134,0.6534,0.7135,0.7484,0.7388,0.6892,0.7642,0.8042,0.8157,0.8615,0.8789,0.88,0.9054,0.92,0.9304,0.9298,0.9477,0.9719,0.9815,0.9983,1.0154,1.0546,1.0556,1.0479,1.1104,1.1074,1.0987,1.1556,1.178,1.1946,1.2278,1.2495,1.2659,1.2767,1.2827,1.2713,1.2278,1.2495,1.2881,1.3152,1.3418,1.3738,1.4062,1.4175,1.4283,1.4444,1.4337,1.4229,1.4337,1.4283,1.4283,1.4439,1.4385,1.4444,1.4713,1.4821,1.4982,1.519,1.5351,1.5458,1.5624,1.5785,1.5731,1.5405,1.5678,1.5945,1.6205,1.6365,1.6471,1.6471,1.6624,1.6677,1.673,1.6955,1.7067,0.1292,0.1152,0.1162,0.1314,0.1313,0.1416,0.2037,0.0,0.0,0.0,0.0,0.0,0.0,0.0,0.0,0.0,0.0,0.0,0.0,0.0,0.0,0.0,0.0,0.0,0.0,0.0,0.0,0.0,0.0,0.0,0.0,0.0,0.0,0.0,0.6563,0.6816,0.7318,0.731,0.7609,0.822,0.8575,0.8607,0.8414,0.8707,0.8915,0.898,0.9391,0.9541,0.9549,0.9746,0.9894,0.9989,1.0044,1.027,1.0519,1.0623,1.0805,1.1091,1.1502,1.1568,1.1658,1.2197,1.2235,1.2153,1.2665,1.2898,1.306,1.3302,1.3501,1.3645,1.3661,1.3743,1.3635,1.3039,1.3207,1.3532,1.3851,1.4121,1.4385,1.4552,1.4713,1.4821,1.4987,1.4874,1.4821,1.4934,1.5035,1.5083,1.4976,1.5137,1.5357,1.5523,1.5624,1.5779,1.5933,1.6092,1.6205,1.6205,1.6477,1.6643,1.6577,1.6371,1.6424,1.6677,1.6842,1.6902,1.6902,1.7107,1.716,1.7047,1.7378,1.7437,0.1411,0.1463,0.1667,0.1718,0.1921,0.0,0.2952,0.2498,0.2136,0.2605,0.0,0.0,0.0,0.0,0.0,0.0,0.0,0.0,0.0,0.0,0.0,0.0,0.0,0.0,0.0,0.0,0.0,0.0,0.0,0.0,0.0,0.0,0.0,0.0,0.7524,0.799,0.8754,0.8374,0.8528,0.0,0.9803,1.016,1.0337,0.9602,0.9423,0.9639,0.9846,0.9951,1.0003,1.0265,1.0523,1.0728,1.0763,1.1032,1.142,1.1456,1.1729,1.2137,1.2432,1.2659,1.2869,1.316,1.3398,1.3678,1.3717,1.394,1.4169,1.4237,1.423,1.4293,1.4342,1.4542,1.4585,1.405,1.3926,1.3964,1.4277,1.4546,1.4761,1.4761,1.4928,1.5148,1.5143,1.5148,1.5256,1.5535,1.5844,1.5885,1.5618,1.6051,1.6324,1.6377,1.6577,1.6743,1.6821,1.6821,1.6834,1.6859,1.7119,1.7424,1.7682,1.6914,1.6583,1.6836,1.7166,1.7331,1.7331,1.7806,1.7905,1.7687,1.7905,1.7859,0.2073,0.2145,0.227,0.2473,0.2958,0.3468,0.3638,0.3904,0.4051,0.0,0.0,0.0,0.0,0.0,0.0,0.0,0.0,0.0,0.0,0.0,0.0,0.0,0.0,0.0,0.0,0.0,0.0,0.0,0.0,0.0,0.0,0.0,0.0,0.8425,0.8685,0.8938,0.9091,0.9578,0.9894,0.0,1.0801,1.1236,1.1362,1.1019,1.0946,1.1121,1.1175,1.1229,1.1229,1.1495,1.1661,1.1751,1.2071,1.2186,1.2194,1.2505,1.2637,1.2777,1.3257,1.3331,1.3282,1.3897,1.4081,1.4116,1.4698,1.4974,1.5163,1.5378,1.5418,1.5462,1.5462,1.5536,1.5666,1.5709,1.5443,1.5137,1.5185,1.5618,1.5951,1.5951,1.6004,1.6105,1.6311,1.6158,1.6111,1.6418,1.6471,1.6518,1.6465,1.6518,1.6683,1.6961,1.7067,1.7258,1.7688,1.7708,1.7813,1.8112,1.7914,1.7949,1.8265,1.7881,1.7747,1.8048,1.8108,1.8167,1.8167,1.8265,1.8265,1.8213,1.8069,1.8062,0.2386,0.2553,0.2882,0.3366,0.0,0.4307,0.447,0.4886,0.5225,0.0,0.0,0.0,0.0,0.0,0.0,0.0,0.0,0.0,0.0,0.0,0.0,0.0,0.0,0.0,0.0,0.0,0.0,0.0,0.0,0.0,0.0,0.8999,0.9195,0.9345,0.9554,0.9799,1.0083,1.0344,1.0638,1.0971,1.1547,1.2072,1.2432,1.2012,1.1855,1.2005,1.2169,1.2223,1.2223,1.2495,1.2713,1.2812,1.3022,1.3204,1.329,1.3495,1.3633,1.3759,1.4195,1.4417,1.4568,1.5042,1.5213,1.5314,1.5735,1.584,1.5953,1.6109,1.6302,1.6449,1.6437,1.6585,1.6765,1.687,1.6392,1.5945,1.6039,1.6311,1.6477,1.6477,1.6477,1.6524,1.6677,1.6743,1.6802,1.6902,1.7166,1.7318,1.7318,1.7417,1.7582,1.7747,1.7747,1.7913,1.8169,1.8182,1.8312,1.8687,1.8366,1.8424,1.8845,1.8604,1.8436,1.8422,1.8422,1.8422,1.8422,1.8682,1.8752,1.8646,1.88,1.887,0.286,0.3127,0.3618,0.4164,0.4651,0.0,0.5307,0.5693,0.0,0.0,0.0,0.0,0.0,0.0,0.0,0.0,0.0,0.0,0.0,0.0,0.0,0.0,0.0,0.0,0.0,0.0,0.0,0.0,0.0,0.0,0.9072,0.9507,0.9855,1.0137,1.0348,1.0744,1.1196,1.1178,1.1428,1.2014,1.2423,1.2968,1.3586,1.3093,1.2762,1.2659,1.2985,1.3093,1.3152,1.3423,1.364,1.3856,1.3964,1.4175,1.4439,1.4493,1.46,1.4795,1.5096,1.5427,1.5766,1.6063,1.6361,1.6598,1.6644,1.6773,1.6844,1.6918,1.7095,1.734,1.7397,1.7584,1.782,1.7775,1.7293,1.6823,1.6872,1.6874,1.6889,1.6942,1.6942,1.6942,1.6889,1.7166,1.7384,1.7384,1.7806,1.8069,1.8069,1.8272,1.8422,1.8475,1.8482,1.8503,1.8552,1.8559,1.8692,1.8947,1.8674,1.8731,1.9274,1.9041,1.881,1.8586,1.8636,1.8583,1.8586,1.9227,1.9384,1.9167,1.9689,1.984,0.4326,0.4582,0.4734,0.0,0.5168,0.5725,0.0,0.0,0.0,0.0,0.0,0.0,0.0,0.0,0.0,0.0,0.0,0.0,0.0,0.0,0.0,0.0,0.0,0.0,0.0,0.0,0.0,0.0,0.0,0.0,1.0212,1.0484,1.0771,1.1043,1.145,1.1808,1.2127,1.2752,1.3073,1.3182,1.3917,1.4465,1.4773,1.4713,1.4229,1.3532,1.3905,1.4008,1.4062,1.4331,1.4444,1.4546,1.5083,1.5298,1.5345,1.5565,1.5565,1.544,1.597,1.5808,1.5588,1.6286,1.676,1.7068,1.7295,1.7713,1.8175,1.8137,1.8189,1.8241,1.8261,1.8479,1.8629,1.8377,1.8638,1.8721,1.7698,1.7496,1.7529,1.7799,1.801,1.8055,1.7582,1.7898,1.8213,1.8213,1.8318,1.837,1.837,1.837,1.8534,1.8817,1.8817,1.8924,1.9142,1.9163,1.9184,1.9262,1.8996,1.8956,1.9281,1.9041,1.8974,1.9168,1.9444,1.9451,1.9168,2.0093,2.0349,2.0028,2.0409,2.0666,0.5372,0.5526,0.5726,0.0,0.6011,0.6273,0.6709,0.0,0.0,0.0,0.0,0.0,0.0,0.0,0.0,0.0,0.0,0.0,0.0,0.0,0.0,0.0,0.0,0.0,0.0,0.0,0.0,0.0,0.0,1.0708,1.085,1.1096,1.1384,1.1623,1.1974,1.2439,1.2956,1.3262,1.3656,1.4067,1.4759,1.5089,1.4987,1.5357,1.5089,1.445,1.4606,1.4659,1.4659,1.4767,1.5035,1.5351,1.5618,1.5885,1.6199,1.6305,1.6252,1.6217,1.6448,1.6428,1.6387,1.6784,1.7079,1.734,1.7458,1.7666,1.7926,1.8141,1.8295,1.8506,1.8842,1.9143,1.9411,1.9453,1.957,1.9459,1.8939,1.8728,1.8624,1.8732,1.8893,1.8886,1.8671,1.8754,1.8954,1.9112,1.9112,1.9153,1.9153,1.9153,1.9181,1.9377,1.9399,1.9449,1.9594,1.9602,1.9606,1.9574,1.9599,1.9708,2.0006,2.0016,2.0185,2.0525,2.0204,1.9911,1.9732,2.0748,2.1099,2.0941,2.1311,2.1554,0.6331,0.0,0.681,0.7127,0.7209,0.7191,0.0,0.0,0.0,0.0,0.0,0.0,0.0,0.0,0.0,0.0,0.0,0.0,0.0,0.0,0.0,0.0,0.0,0.0,0.0,0.0,0.0,0.0,0.0,1.1279,1.1476,1.1766,1.2001,1.2258,1.2659,1.3191,1.3767,1.3988,1.4408,1.5035,1.5512,1.5565,1.5357,1.5785,1.5731,1.525,1.5309,1.5357,1.541,1.541,1.5672,1.6099,1.6211,1.6477,1.6842,1.6895,1.6934,1.6951,1.6951,1.7035,1.7235,1.7414,1.7629,1.7871,1.8054,1.8084,1.8134,1.8483,1.868,1.8858,1.9445,1.9873,2.0199,2.0351,2.038,2.028,1.978,1.957,1.9463,1.9408,1.9573,1.9683,1.9635,1.9715,1.9825,2.0033,2.0038,2.0031,2.0031,1.9956,1.9934,2.0003,1.9892,1.981,1.9872,1.9966,2.0065,2.0147,2.043,2.0676,2.0846,2.0979,2.1131,2.135,2.0868,2.0619,2.0599,2.1604,2.1946,2.1775,2.2226,2.24,0.0,0.7587,0.0,0.83,0.8644,0.0,0.0,0.0,0.0,0.0,0.0,0.0,0.0,0.0,0.0,0.0,0.0,0.0,0.0,0.0,0.0,0.0,0.0,0.0,0.0,0.0,0.0,0.0,0.0,1.2209,1.2254,1.2545,1.2812,1.3027,1.3814,1.4322,1.4543,1.5358,1.5921,1.6217,1.6217,1.6271,1.6217,1.6271,1.6111,1.5891,1.6111,1.6371,1.6624,1.6624,1.6624,1.6677,1.7014,1.7173,1.7173,1.7477,1.7549,1.7577,1.7577,1.7553,1.7669,1.8151,1.8531,1.8951,1.9513,1.9676,1.9737,2.0101,1.9975,1.9822,2.0136,2.068,2.1073,2.0767,2.1357,2.1515,1.9784,1.9635,1.9723,1.9463,2.0066,2.0565,2.0299,2.0659,2.1016,2.1016,2.1001,2.1048,2.1048,2.0765,2.059,2.0668,2.0083,1.9851,2.0157,2.0467,2.0742,2.1001,2.1595,2.1759,2.1494,2.1462,2.131,2.0956,2.143,2.1803,2.1902,2.2918,2.3094,2.2466,2.3127,2.3247,0.0,0.0,0.0,0.9574,0.9434,0.938,0.0,0.0,0.0,0.0,0.0,0.0,0.0,0.0,0.0,0.0,0.0,0.0,0.0,0.0,0.0,0.0,0.0,0.0,0.0,0.0,0.0,0.0,0.0,0.0,1.3318,1.3294,1.3428,1.3848,1.4137,1.4694,1.5438,1.6088,1.6471,1.6577,1.6749,1.6749,1.6577,1.6802,1.6802,1.6749,1.6855,1.6696,1.6477,1.6849,1.7117,1.7333,1.7595,1.7828,1.8061,1.8163,1.8182,1.8165,1.8165,1.828,1.8408,1.8212,1.8515,1.8913,1.8975,1.9256,1.9654,2.0167,2.0336,2.0491,2.0994,2.131,2.146,2.1568,2.1854,2.1934,2.1298,2.1018,2.0858,2.054,2.0713,2.0938,2.083,2.0992,2.1079,2.1032,2.1039,2.1032,2.1032,2.0923,2.0956,2.1258,2.1044,2.1053,2.1406,2.1534,2.1643,2.1696,2.2387,2.2704,2.2413,2.2881,2.3142,2.3039,2.2833,2.2346,2.1551,2.2763,2.3149,2.2697,2.3252,2.3416,1.0398,0.0,0.0,0.0,0.0,1.0209,0.0,0.0,0.0,0.0,0.0,0.0,0.0,0.0,0.0,0.0,0.0,0.0,0.0,0.0,0.0,0.0,0.0,0.0,0.0,0.0,0.0,0.0,0.0,0.0,1.3994,1.387,1.4093,1.4802,1.4857,1.527,1.6177,1.6657,1.6849,1.6849,1.7067,1.7067,1.6902,1.7324,1.7423,1.7376,1.7742,1.7515,1.6889,1.7429,1.7815,1.8074,1.8387,1.8625,1.8816,1.8816,1.8877,1.8896,1.885,1.8988,1.9126,1.8714,1.8883,1.9222,1.9233,1.9455,1.9831,2.0579,2.0842,2.1003,2.1628,2.1824,2.1995,2.2335,2.24,2.2361,2.2245,2.1969,2.1704,2.1483,2.1502,2.1573,2.1689,2.1721,2.1736,2.1777,2.163,2.1561,2.1614,2.1459,2.1502,2.1871,2.1788,2.1915,2.2363,2.2498,2.2599,2.2743,2.3503,2.3829,2.3496,2.4129,2.434,2.4149,2.3794,2.305,2.1993,2.277,2.305,2.2843,2.3169,2.3303,0.0,0.0,0.0,0.0,0.0,0.0,0.0,0.0,0.0,0.0,0.0,0.0,0.0,0.0,0.0,0.0,0.0,0.0,0.0,0.0,0.0,0.0,0.0,0.0,0.0,0.0,0.0,0.0,0.0,1.4054,1.4313,1.4352,1.4832,1.5878,1.5954,1.617,1.6717,1.706,1.7232,1.7226,1.7226,1.7239,1.7252,1.7849,1.7921,1.7683,1.8892,1.8865,1.807,1.8381,1.8714,1.8926,1.9312,1.9429,1.9436,1.9436,1.9563,1.978,1.9535,1.957,1.9829,1.9845,1.9847,1.996,2.0514,2.0501,2.0439,2.1424,2.1493,2.1369,2.196,2.2335,2.2683,2.295,2.3006,2.2919,2.2577,2.2328,2.2108,2.2085,2.225,2.2514,2.2919,2.2926,2.2968,2.3226,2.2859,2.2592,2.2867,2.2405,2.2189,2.2556,2.2292,2.2314,2.2975,2.3298,2.369,2.43,2.488,2.5064,2.4715,2.4967,2.4782,2.4131,2.4105,2.3841,2.3311,2.3045,2.2905,2.2921,2.293,2.2958,1.2382,0.0,0.0,0.0,0.0,0.0,0.0,0.0,0.0,0.0,0.0,0.0,0.0,0.0,0.0,0.0,0.0,0.0,0.0,0.0,0.0,0.0,0.0,0.0,0.0,0.0,0.0,0.0,1.4129,1.426,1.514,1.5175,1.547,1.619,1.6557,1.6945,1.7326,1.7646,1.7701,1.7483,1.7483,1.7603,1.7761,1.7949,1.8211,1.8577,1.8878,1.9161,1.932,1.9421,1.9354,1.9304,1.9815,1.9886,1.9733,1.9961,2.0074,2.013,2.0103,2.0238,2.0423,2.0222,2.0463,2.0826,2.1026,2.1322,2.167,2.222,2.2443,2.2495,2.2402,2.2655,2.2838,2.2696,2.2831,2.299,2.2895,2.2774,2.2583,2.2127,2.2055,2.2132,2.2235,2.2598,2.2778,2.2411,2.2588,2.2757,2.2655,2.2457,2.2569,2.3199,2.335,2.3634,2.4261,2.4574,2.4896,2.5276,2.5624,2.5744,2.5428,2.5473,2.5302,2.4916,2.4213,2.3807,2.3644,2.3753,2.3749,2.3586,2.3869,2.3766,0.0,0.0,0.0,0.0,0.0,0.0,1.2872,1.2507,0.0,0.0,0.0,0.0,0.0,0.0,0.0,0.0,0.0,0.0,0.0,0.0,0.0,0.0,0.0,0.0,0.0,0.0,0.0,1.4641,1.4417,1.46,1.5441,1.556,1.5822,1.6315,1.6815,1.7271,1.7623,1.7873,1.7911,1.7747,1.7928,1.8083,1.8218,1.8735,1.9154,1.9494,1.9745,2.0069,2.0387,2.0377,2.023,2.0004,2.0472,2.053,2.0392,2.0622,2.068,2.068,2.068,2.0795,2.0852,2.0759,2.0888,2.1223,2.1334,2.1612,2.2015,2.2476,2.2788,2.2934,2.2577,2.2641,2.2744,2.2537,2.2649,2.2831,2.2982,2.3014,2.2895,2.2474,2.2384,2.2445,2.2762,2.2826,2.2849,2.2754,2.2737,2.2812,2.3031,2.293,2.3178,2.3983,2.4295,2.4629,2.5119,2.534,2.5569,2.5852,2.6017,2.6017,2.5844,2.6017,2.5907,2.556,2.5011,2.4634,2.4407,2.3883,2.3653,2.3649,2.4033,2.3977,0.0,0.0,0.0,0.0,0.0,0.0,1.3259,1.3262,1.3386,0.0,0.0,0.0,0.0,0.0,0.0,0.0,0.0,0.0,0.0,0.0,0.0,0.0,0.0,0.0,0.0,1.4964,1.4818,1.4849,1.4924,1.514,1.5545,1.58,1.6074,1.641,1.6878,1.7298,1.7726,1.7987,1.8085,1.8119,1.8446,1.8597,1.8693,1.9785,2.0272,2.0378,2.0908,2.1153,2.1211,2.1211,2.1024,2.0716,2.1089,2.1211,2.1146,2.1211,2.1211,2.1211,2.1211,2.1211,2.1274,2.1268,2.1339,2.1395,2.1666,2.1769,2.1894,2.2484,2.2796,2.2934,2.2577,2.249,2.249,2.249,2.2545,2.264,2.2999,2.3127,2.3183,2.3239,2.3141,2.3249,2.3855,2.3466,2.3308,2.3863,2.3261,2.2986,2.3808,2.3699,2.3871,2.4744,2.511,2.5395,2.5789,2.5844,2.5962,2.6172,2.6181,2.6181,2.6181,2.6418,2.6418,2.6127,2.6017,2.5734,2.5221,2.3795,2.3274,2.3552,2.3875,2.3968,0.0,0.0,0.0,0.0,0.0,0.0,1.4056,1.4377,1.465,0.0,0.0,0.0,0.0,0.0,0.0,0.0,0.0,0.0,0.0,0.0,0.0,0.0,0.0,0.0,0.0,1.5485,1.5512,1.594,1.62,1.6272,1.6139,1.632,1.6697,1.7252,1.7371,1.7694,1.8343,1.8612,1.8711,1.8742,1.907,1.934,1.9522,1.9808,2.0168,2.063,2.0752,2.096,2.1211,2.1211,2.1024,2.0716,2.1089,2.1024,2.0838,2.1089,2.1211,2.1211,2.1211,2.1382,2.1653,2.187,2.213,2.2356,2.263,2.2742,2.2758,2.2885,2.2958,2.2934,2.2577,2.249,2.249,2.249,2.2647,2.2964,2.3615,2.4128,2.4501,2.4731,2.4386,2.4075,2.4206,2.4331,2.4565,2.4896,2.4416,2.4147,2.4574,2.4565,2.4701,2.5101,2.5395,2.5844,2.6382,2.6609,2.6772,2.6826,2.6826,2.6727,2.6527,2.63,2.6181,2.6127,2.5615,2.534,2.5221,2.4658,2.4467,2.4544,2.4612,2.4637,0.0,0.0,0.0,1.5021,0.0,0.0,0.0,1.563,1.5919,0.0,0.0,0.0,0.0,0.0,0.0,0.0,0.0,0.0,0.0,0.0,0.0,0.0,0.0,0.0,0.0,1.6247,1.6317,1.6304,1.6548,1.6665,1.652,1.6728,1.7002,1.7299,1.771,1.8191,1.8713,1.8982,1.9153,1.9346,1.9673,1.9911,2.0036,2.0527,2.0898,2.1173,2.1343,2.1474,2.166,2.166,2.1539,2.1417,2.1432,2.1432,2.1417,2.1596,2.166,2.166,2.166,2.1774,2.1945,2.24,2.2683,2.2853,2.3135,2.3135,2.3014,2.3191,2.3135,2.2934,2.2577,2.2592,2.2757,2.293,2.3297,2.3724,2.4267,2.4988,2.5564,2.5564,2.5833,2.5842,2.5124,2.4898,2.4889,2.5165,2.4851,2.4748,2.5174,2.5229,2.545,2.6054,2.6273,2.65,2.6935,2.6989,2.6989,2.6989,2.689,2.6736,2.6591,2.6418,2.6354,2.6354,2.5898,2.567,2.567,2.5357,2.509,2.4821,2.4821,2.4859,0.0,0.0,0.0,0.0,0.0,1.669,0.0,0.0,0.0,1.6584,0.0,0.0,0.0,0.0,0.0,0.0,0.0,0.0,0.0,0.0,0.0,0.0,0.0,0.0,0.0,1.7163,1.7286,1.6729,1.6992,1.7112,1.7061,1.7244,1.7348,1.736,1.8122,1.8661,1.8967,1.9349,1.9664,2.0075,2.0397,2.0558,2.0608,2.1421,2.1745,2.1719,2.205,2.223,2.223,2.223,2.223,2.223,2.1896,2.1896,2.2116,2.2116,2.2116,2.2116,2.2173,2.2222,2.2335,2.2901,2.307,2.3127,2.3416,2.3247,2.307,2.3304,2.3247,2.3007,2.2775,2.2868,2.3102,2.356,2.4001,2.4533,2.5023,2.5916,2.6592,2.6424,2.7311,2.761,2.6349,2.5678,2.5365,2.5619,2.5343,2.5308,2.5852,2.5962,2.6227,2.6989,2.7098,2.7206,2.7476,2.726,2.7098,2.7098,2.6845,2.6636,2.6591,2.6591,2.6591,2.6591,2.6245,2.6127,2.6127,2.5844,2.5467,2.4979,2.4979,2.5081,0.0,0.0,0.0,0.0,1.7295,0.0,0.0,0.0,1.7856,1.7508,0.0,0.0,0.0,0.0,0.0,0.0,0.0,0.0,0.0,0.0,0.0,0.0,0.0,0.0,0.0,0.0,1.8509,1.8099,1.8468,1.8639,1.8385,1.8264,1.8188,1.8231,1.8654,1.8992,1.9351,1.9882,2.0484,2.1044,2.1365,2.1643,2.1888,2.2021,2.2036,2.2055,2.2384,2.2513,2.2513,2.2513,2.2683,2.2845,2.2279,2.2051,2.2116,2.2116,2.2116,2.2108,2.2456,2.2683,2.2958,2.3304,2.3416,2.3472,2.3472,2.3247,2.3014,2.307,2.3247,2.3408,2.3424,2.3339,2.3552,2.4421,2.4625,2.4966,2.6055,2.7132,2.7946,2.8176,2.8621,2.8643,2.7702,2.7278,2.7094,2.7327,2.6641,2.6283,2.6818,2.6826,2.6989,2.7323,2.7368,2.7476,2.7799,2.753,2.7368,2.7368,2.7107,2.6836,2.6591,2.6591,2.6591,2.6591,2.6245,2.6127,2.6127,2.5844,2.5688,2.5578,2.5578,2.5624,0.0,0.0,0.0,0.0,0.0,0.0,0.0,0.0,1.8888,0.0,0.0,0.0,0.0,0.0,0.0,0.0,0.0,0.0,0.0,0.0,0.0,0.0,0.0,0.0,0.0,0.0,0.0,0.0,0.0,1.8998,1.889,1.9119,1.9227,1.9162,1.9643,2.0036,2.0387,2.0822,2.1268,2.1717,2.1888,2.2066,2.2322,2.2363,2.2566,2.2831,2.3047,2.3135,2.3135,2.3304,2.336,2.3304,2.3183,2.307,2.2909,2.2909,2.3014,2.3183,2.3304,2.3408,2.3585,2.3921,2.4041,2.4041,2.4209,2.3921,2.352,2.352,2.3787,2.4007,2.3585,2.4122,2.4872,2.5247,2.5819,2.6398,2.6888,2.7853,2.8619,2.8814,2.9209,2.946,2.9354,2.8642,2.8145,2.822,2.7707,2.7428,2.7591,2.7411,2.7368,2.7638,2.7691,2.7799,2.813,2.7853,2.7593,2.7431,2.7008,2.6745,2.6591,2.6591,2.6591,2.6591,2.6473,2.6409,2.6409,2.63,2.619,2.619,2.5852,2.5688,1.8939,0.0,0.0,0.0,0.0,0.0,0.0,0.0,0.0,0.0,0.0,0.0,0.0,0.0,0.0,0.0,0.0,0.0,0.0,0.0,0.0,0.0,0.0,0.0,0.0,0.0,0.0,1.9287,1.9415,1.9534,1.9649,1.9875,1.995,1.989,2.0452,2.0849,2.1093,2.1584,2.204,2.2335,2.2449,2.2598,2.2862,2.2959,2.3159,2.3533,2.3694,2.3761,2.3753,2.3977,2.3921,2.3753,2.3865,2.3865,2.3753,2.3641,2.3753,2.3913,2.4033,2.4089,2.42,2.4432,2.4376,2.432,2.4701,2.4435,2.4117,2.4286,2.4714,2.5038,2.4559,2.5288,2.6193,2.6352,2.6964,2.753,2.7701,2.8416,2.9117,2.9325,2.9639,3.0007,3.0432,2.9709,2.8975,2.8909,2.8539,2.8282,2.8338,2.7977,2.7819,2.8134,2.8188,2.8203,2.8301,2.796,2.7584,2.7215,2.68,2.6591,2.6591,2.6591,2.6591,2.6591,2.6591,2.6591,2.6591,2.6591,2.6591,2.6582,2.6136,2.5907,0.0,0.0,0.0,2.0219,0.0,0.0,0.0,0.0,1.9463,0.0,0.0,0.0,0.0,0.0,0.0,0.0,0.0,0.0,0.0,0.0,0.0,0.0,0.0,0.0,0.0,0.0,0.0,2.0331,2.0411,2.0629,2.1035,2.0541,2.0285,2.0292,2.0823,2.1086,2.1093,2.21,2.2675,2.2958,2.3304,2.3576,2.3848,2.3857,2.3857,2.3904,2.42,2.4376,2.4376,2.4376,2.4376,2.432,2.4033,2.4089,2.432,2.4033,2.3913,2.3977,2.4264,2.4543,2.4765,2.4765,2.4368,2.4024,2.462,2.4651,2.4604,2.5182,2.6066,2.6805,2.6787,2.6965,2.7308,2.7872,2.7924,2.7941,2.8514,2.902,2.952,2.9891,3.0091,3.0342,3.081,3.0323,2.9742,2.9316,2.8965,2.8766,2.9047,2.8692,2.8588,2.8842,2.8842,2.873,2.833,2.7755,2.7161,2.6636,2.6591,2.6591,2.6591,2.6591,2.6591,2.6591,2.6591,2.6591,2.6591,2.6591,2.6591,2.6591,2.6591,2.6418,0.0,0.0,2.1752,2.1524,0.0,0.0,0.0,0.0,0.0,0.0,0.0,0.0,0.0,0.0,0.0,0.0,0.0,0.0,0.0,0.0,0.0,0.0,0.0,0.0,0.0,0.0,0.0,2.0388,2.1025,2.1417,2.1428,2.181,2.19,2.1542,2.21,2.2295,2.221,2.3044,2.3528,2.3576,2.3697,2.3921,2.4209,2.3977,2.4144,2.4479,2.4432,2.4376,2.4432,2.4599,2.4543,2.444,2.4487,2.4693,2.4851,2.4423,2.4312,2.4535,2.4851,2.5134,2.5518,2.5966,2.603,2.6005,2.662,2.6766,2.6702,2.6711,2.7265,2.7734,2.6981,2.7435,2.8014,2.7718,2.8022,2.8451,2.8674,2.9236,2.9783,3.0224,3.0439,3.0648,3.1091,3.082,3.0538,3.0384,2.9987,2.9754,2.982,2.9451,2.9244,2.9355,2.9346,2.918,2.874,2.7908,2.7337,2.7298,2.7087,2.7095,2.7361,2.7114,2.6976,2.6976,2.6719,2.6591,2.6591,2.6591,2.6591,2.6582,2.6354,2.619,2.2691,2.2961,0.0,2.2726,2.2997,0.0,2.2948,0.0,0.0,0.0,0.0,0.0,0.0,0.0,0.0,0.0,0.0,0.0,0.0,2.1563,0.0,0.0,0.0,0.0,0.0,0.0,2.0916,2.1459,2.1748,2.2007,0.0,0.0,2.2749,2.2408,2.2851,2.3041,2.2958,2.3706,2.4089,2.4089,2.4144,2.4312,2.4543,2.4312,2.4423,2.4765,2.4599,2.4543,2.4543,2.471,2.4757,2.4693,2.4859,2.5128,2.534,2.4859,2.4868,2.5162,2.5497,2.566,2.5952,2.6771,2.6873,2.6858,2.7699,2.7971,2.8024,2.8081,2.8607,2.8918,2.8216,2.8672,2.9199,2.8725,2.9021,2.9453,2.9453,2.9836,3.0332,3.0777,3.0774,3.0829,3.1255,3.1054,3.0889,3.0889,3.0498,3.0254,3.042,3.0059,2.9795,2.9795,2.9748,2.9346,2.848,2.7865,2.7444,2.7438,2.7289,2.7344,2.7714,2.7483,2.7345,2.7345,2.6948,2.6765,2.6793,2.6655,2.6527,2.6418,2.6326,2.6262]},{"header":{"parameterUnit":"m.s-1","parameterCategory":1,"la1":30.6,"la2":29.2853,"lo1":-89.7004,"lo2":-87.6739,"dy":0.0162,"dx":0.0183,"nx":112,"ny":82,"refTime":"2023-09-22T00:00:00:Z","depth":0,"parameterNumber":3,"parameterNumberName":"V-component_of_WINDS"},"data":[0.0,0.0,0.0,0.0,0.0,0.0,0.0,0.0,0.0,0.0,0.0,0.0,0.0,0.0,0.0,0.0,0.0,0.0,0.0,0.0,0.0,0.0,0.0,0.0,0.0,0.0,0.0,0.0,0.0,0.0,0.0,0.0,0.0,0.0,0.0,0.0,0.0,0.0,0.0,0.0,0.0,0.0,0.0,0.0,0.0,0.0,0.0,0.0,0.0,0.0,0.0,0.0,0.0,0.0,0.0,0.0,0.0,0.0,0.0,0.0,0.0,0.0,0.0,0.0,0.0,0.0,0.0,0.0,0.0,0.0,0.0,0.0,0.0,0.0,0.0,0.0,0.0,0.0,0.0,0.0,0.0,0.0,0.0,0.0,0.0,0.0,0.0,0.0,0.0,0.0,0.0,2.9983,3.1417,3.2122,3.1417,3.1252,2.9703,2.6269,0.0,0.0,0.0,0.0,0.0,0.0,0.0,0.0,0.0,0.0,0.0,0.0,0.0,0.0,0.0,0.0,0.0,0.0,0.0,0.0,0.0,0.0,0.0,0.0,0.0,0.0,0.0,0.0,0.0,0.0,0.0,0.0,0.0,0.0,0.0,0.0,0.0,0.0,0.0,0.0,0.0,0.0,0.0,0.0,0.0,0.0,0.0,0.0,0.0,0.0,0.0,0.0,0.0,0.0,0.0,0.0,0.0,0.0,0.0,0.0,0.0,0.0,0.0,0.0,0.0,0.0,0.0,0.0,0.0,0.0,0.0,0.0,0.0,0.0,0.0,0.0,0.0,0.0,0.0,0.0,0.0,0.0,0.0,0.0,0.0,0.0,0.0,0.0,0.0,0.0,0.0,0.0,0.0,0.0,0.0,0.0,0.0,0.0,0.0,0.0,0.0,0.0,0.0,0.0,3.107,3.1718,3.1909,3.1908,3.1666,3.1577,3.0133,2.6876,0.0,0.0,0.0,0.0,0.0,0.0,0.0,0.0,0.0,0.0,0.0,0.0,0.0,0.0,0.0,0.0,0.0,0.0,0.0,0.0,0.0,0.0,0.0,0.0,0.0,0.0,0.0,0.0,0.0,0.0,0.0,0.0,0.0,0.0,0.0,0.0,0.0,0.0,0.0,0.0,0.0,0.0,0.0,0.0,0.0,0.0,0.0,0.0,0.0,0.0,0.0,0.0,0.0,0.0,0.0,0.0,0.0,0.0,0.0,0.0,0.0,0.0,0.0,0.0,0.0,0.0,0.0,0.0,0.0,0.0,0.0,0.0,0.0,0.0,0.0,0.0,0.0,0.0,0.0,0.0,0.0,0.0,0.0,0.0,0.0,0.0,0.0,0.0,0.0,0.0,0.0,0.0,0.0,0.0,0.0,0.0,0.0,0.0,0.0,0.0,0.0,0.0,0.0,3.0613,3.1722,3.2728,3.2662,3.2285,3.1597,3.1438,3.0056,2.6944,2.5741,0.0,0.0,0.0,0.0,0.0,0.0,0.0,0.0,0.0,0.0,0.0,0.0,0.0,0.0,0.0,0.0,0.0,0.0,0.0,0.0,0.0,0.0,0.0,0.0,0.0,0.0,0.0,0.0,0.0,0.0,0.0,0.0,0.0,0.0,0.0,0.0,0.0,0.0,0.0,0.0,0.0,0.0,0.0,0.0,0.0,0.0,0.0,0.0,0.0,0.0,0.0,0.0,0.0,0.0,0.0,0.0,0.0,0.0,0.0,0.0,0.0,0.0,0.0,0.0,0.0,0.0,0.0,0.0,0.0,0.0,0.0,0.0,0.0,0.0,0.0,0.0,0.0,0.0,0.0,0.0,0.0,0.0,0.0,0.0,0.0,0.0,0.0,0.0,0.0,0.0,0.0,0.0,0.0,0.0,0.0,0.0,0.0,0.0,0.0,0.0,0.0,0.0,3.226,3.2524,3.3579,3.3348,3.2707,3.1728,3.1058,2.9544,2.6803,2.5032,0.0,0.0,0.0,0.0,0.0,0.0,0.0,0.0,0.0,0.0,0.0,0.0,0.0,0.0,0.0,0.0,0.0,0.0,0.0,0.0,0.0,0.0,0.0,0.0,0.0,0.0,0.0,0.0,0.0,0.0,0.0,0.0,0.0,0.0,0.0,0.0,0.0,0.0,0.0,0.0,0.0,0.0,0.0,0.0,0.0,0.0,0.0,0.0,0.0,0.0,0.0,0.0,0.0,0.0,0.0,0.0,0.0,0.0,0.0,0.0,0.0,0.0,0.0,0.0,0.0,0.0,0.0,0.0,0.0,0.0,0.0,0.0,0.0,0.0,0.0,0.0,0.0,0.0,0.0,0.0,0.0,0.0,0.0,0.0,0.0,0.0,0.0,0.0,0.0,0.0,0.0,0.0,0.0,0.0,0.0,0.0,0.0,0.0,0.0,0.0,0.0,0.0,3.2951,3.3415,3.4499,3.3687,3.2885,3.2363,3.0432,2.8446,2.6538,2.3425,0.0,0.0,0.0,0.0,0.0,0.0,0.0,0.0,0.0,0.0,0.0,0.0,0.0,0.0,0.0,0.0,0.0,0.0,0.0,0.0,0.0,0.0,0.0,0.0,0.0,0.0,0.0,0.0,0.0,0.0,0.0,0.0,0.0,0.0,0.0,0.0,0.0,0.0,0.0,0.0,0.0,0.0,0.0,0.0,0.0,0.0,0.0,0.0,0.0,0.0,0.0,0.0,0.0,0.0,0.0,0.0,0.0,0.0,0.0,0.0,0.0,0.0,0.0,0.0,0.0,0.0,0.0,0.0,0.0,0.0,0.0,0.0,0.0,0.0,0.0,0.0,0.0,0.0,0.0,0.0,0.0,0.0,0.0,0.0,0.0,0.0,0.0,0.0,0.0,0.0,0.0,0.0,0.0,0.0,0.0,0.0,0.0,0.0,0.0,0.0,0.0,0.0,3.3415,3.3614,0.0,3.3166,3.249,3.2226,3.0655,2.8637,2.6247,0.0,0.0,0.0,0.0,0.0,0.0,0.0,0.0,0.0,0.0,0.0,0.0,0.0,0.0,0.0,0.0,0.0,0.0,0.0,0.0,0.0,0.0,0.0,0.0,0.0,0.0,0.0,0.0,0.0,0.0,0.0,0.0,0.0,0.0,0.0,0.0,0.0,0.0,0.0,0.0,0.0,0.0,0.0,0.0,0.0,0.0,0.0,0.0,0.0,0.0,0.0,0.0,0.0,0.0,0.0,0.0,0.0,0.0,0.0,0.0,0.0,0.0,0.0,0.0,0.0,0.0,0.0,0.0,0.0,0.0,0.0,0.0,0.0,0.0,0.0,0.0,0.0,0.0,0.0,0.0,0.0,0.0,0.0,0.0,0.0,0.0,0.0,0.0,0.0,0.0,0.0,0.0,0.0,0.0,0.0,0.0,0.0,0.0,0.0,0.0,0.0,0.0,3.3637,3.3953,3.4104,0.0,3.3258,3.2486,3.2079,3.0327,2.8237,2.5871,0.0,0.0,0.0,0.0,0.0,0.0,0.0,0.0,0.0,0.0,0.0,0.0,0.0,0.0,0.0,0.0,0.0,0.0,0.0,0.0,0.0,0.0,0.0,0.0,0.0,0.0,0.0,0.0,0.0,0.0,0.0,0.0,0.0,0.0,0.0,0.0,0.0,0.0,0.0,0.0,0.0,0.0,0.0,0.0,0.0,0.0,0.0,0.0,0.0,0.0,0.0,0.0,0.0,0.0,0.0,0.0,0.0,0.0,0.0,0.0,0.0,0.0,0.0,0.0,0.0,0.0,0.0,0.0,0.0,0.0,0.0,0.0,0.0,0.0,0.0,0.0,0.0,0.0,0.0,0.0,0.0,0.0,0.0,0.0,0.0,0.0,0.0,0.0,0.0,0.0,0.0,0.0,0.0,0.0,0.0,0.0,0.0,0.0,0.0,0.0,0.0,0.0,3.4081,3.4615,3.4998,3.5253,3.415,3.2967,3.1996,2.9276,2.6956,0.0,0.0,0.0,0.0,0.0,0.0,0.0,0.0,0.0,0.0,0.0,0.0,0.0,0.0,0.0,0.0,0.0,0.0,0.0,0.0,0.0,0.0,0.0,0.0,0.0,0.0,0.0,0.0,0.0,0.0,0.0,0.0,0.0,0.0,0.0,0.0,0.0,0.0,0.0,0.0,0.0,0.0,0.0,0.0,0.0,0.0,0.0,0.0,0.0,0.0,0.0,0.0,0.0,0.0,0.0,0.0,0.0,0.0,0.0,0.0,0.0,0.0,0.0,0.0,0.0,0.0,0.0,0.0,0.0,0.0,0.0,0.0,0.0,0.0,0.0,0.0,0.0,0.0,0.0,0.0,0.0,0.0,0.0,0.0,0.0,0.0,0.0,0.0,0.0,0.0,0.0,0.0,0.0,0.0,0.0,0.0,0.0,0.0,0.0,0.0,0.0,0.0,0.0,3.4485,3.4616,3.4571,3.4662,3.3445,3.2488,3.2137,2.999,2.8097,2.6732,0.0,0.0,0.0,0.0,0.0,0.0,0.0,0.0,0.0,0.0,0.0,0.0,0.0,0.0,0.0,0.0,0.0,0.0,0.0,0.0,0.0,0.0,0.0,0.0,0.0,0.0,0.0,0.0,0.0,0.0,0.0,0.0,0.0,0.0,0.0,0.0,0.0,0.0,0.0,0.0,0.0,0.0,0.0,0.0,0.0,0.0,0.0,0.0,0.0,0.0,0.0,0.0,0.0,0.0,0.0,0.0,0.0,0.0,0.0,0.0,0.0,0.0,0.0,0.0,0.0,0.0,0.0,0.0,0.0,0.0,0.0,0.0,0.0,0.0,0.0,0.0,0.0,0.0,0.0,0.0,0.0,0.0,0.0,0.0,0.0,0.0,0.0,0.0,0.0,0.0,0.0,0.0,0.0,0.0,0.0,0.0,0.0,0.0,0.0,0.0,0.0,0.0,3.4553,3.4631,3.4482,3.4252,3.3138,3.2266,3.1949,3.0368,2.88,2.741,0.0,0.0,0.0,0.0,0.0,0.0,0.0,0.0,0.0,0.0,0.0,0.0,0.0,0.0,0.0,0.0,0.0,0.0,0.0,0.0,0.0,0.0,0.0,0.0,0.0,0.0,0.0,0.0,0.0,0.0,0.0,0.0,0.0,0.0,0.0,0.0,0.0,0.0,0.0,0.0,0.0,0.0,0.0,0.0,0.0,0.0,0.0,0.0,0.0,0.0,0.0,0.0,0.0,0.0,0.0,0.0,0.0,0.0,0.0,0.0,0.0,0.0,0.0,0.0,0.0,0.0,0.0,0.0,0.0,0.0,0.0,0.0,0.0,0.0,0.0,0.0,0.0,0.0,0.0,0.0,0.0,0.0,0.0,0.0,0.0,0.0,0.0,0.0,0.0,0.0,0.0,0.0,0.0,0.0,0.0,0.0,0.0,0.0,0.0,0.0,0.0,0.0,3.4355,3.4689,3.4651,3.4041,3.3176,3.2305,3.1523,3.0453,2.9187,2.7776,0.0,0.0,0.0,0.0,0.0,0.0,0.0,0.0,0.0,0.0,0.0,0.0,0.0,0.0,0.0,0.0,0.0,0.0,0.0,0.0,0.0,0.0,0.0,0.0,0.0,0.0,0.0,0.0,0.0,0.0,0.0,0.0,0.0,0.0,0.0,0.0,0.0,0.0,0.0,0.0,0.0,0.0,0.0,0.0,0.0,0.0,0.0,0.0,0.0,0.0,0.0,0.0,0.0,0.0,0.0,0.0,0.0,0.0,0.0,0.0,2.3145,0.0,0.0,0.0,0.0,0.0,0.0,0.0,0.0,0.0,0.0,0.0,0.0,0.0,0.0,0.0,0.0,0.0,0.0,0.0,0.0,0.0,0.0,0.0,0.0,0.0,0.0,0.0,0.0,0.0,0.0,0.0,0.0,0.0,0.0,0.0,0.0,0.0,0.0,0.0,0.0,0.0,3.4357,3.4918,3.4957,3.4085,3.3221,3.2266,3.1279,3.0323,2.9566,2.903,0.0,0.0,0.0,0.0,0.0,0.0,0.0,0.0,0.0,0.0,0.0,0.0,0.0,0.0,0.0,0.0,0.0,0.0,0.0,0.0,0.0,0.0,0.0,0.0,0.0,0.0,0.0,0.0,0.0,0.0,0.0,0.0,0.0,0.0,0.0,0.0,0.0,0.0,0.0,0.0,0.0,0.0,0.0,0.0,0.0,0.0,0.0,0.0,0.0,0.0,0.0,0.0,0.0,0.0,0.0,0.0,0.0,0.0,0.0,0.0,0.0,2.6233,0.0,0.0,0.0,0.0,0.0,0.0,0.0,0.0,0.0,0.0,0.0,0.0,0.0,0.0,0.0,0.0,0.0,0.0,0.0,0.0,0.0,0.0,0.0,0.0,0.0,0.0,0.0,0.0,0.0,0.0,0.0,0.0,0.0,0.0,0.0,0.0,0.0,0.0,0.0,0.0,3.4016,3.4701,3.493,3.4354,3.3628,3.2766,3.1753,3.1042,3.0366,2.9697,2.8126,0.0,0.0,0.0,0.0,0.0,0.0,0.0,0.0,0.0,0.0,0.0,0.0,0.0,0.0,0.0,0.0,0.0,0.0,0.0,0.0,0.0,0.0,0.0,0.0,0.0,0.0,0.0,0.0,0.0,0.0,0.0,0.0,0.0,0.0,0.0,0.0,0.0,0.0,0.0,0.0,0.0,0.0,0.0,0.0,0.0,0.0,0.0,0.0,0.0,0.0,0.0,0.0,0.0,3.1142,3.2203,3.3586,3.3586,3.3635,3.3644,3.1139,2.9924,2.9655,0.0,0.0,0.0,0.0,0.0,0.0,0.0,0.0,0.0,0.0,0.0,0.0,0.0,0.0,0.0,0.0,0.0,0.0,0.0,0.0,0.0,0.0,0.0,0.0,0.0,3.937,3.9404,0.0,0.0,0.0,0.0,0.0,0.0,0.0,0.0,0.0,0.0,0.0,0.0,3.3918,3.478,3.5202,3.4827,3.4286,3.3517,3.2422,3.1969,3.1243,3.0119,2.9302,2.8097,0.0,0.0,0.0,0.0,0.0,0.0,0.0,0.0,0.0,0.0,0.0,0.0,0.0,0.0,0.0,0.0,0.0,0.0,0.0,0.0,0.0,0.0,0.0,0.0,0.0,0.0,0.0,0.0,0.0,0.0,0.0,0.0,2.6508,2.718,0.0,0.0,0.0,0.0,0.0,0.0,0.0,0.0,0.0,0.0,0.0,0.0,0.0,0.0,3.0645,3.2427,3.3922,3.5125,3.5211,3.5481,3.5878,3.5878,3.5983,3.6157,3.5913,0.0,3.2804,3.1471,0.0,0.0,0.0,0.0,0.0,0.0,0.0,0.0,0.0,0.0,0.0,0.0,0.0,0.0,0.0,0.0,0.0,0.0,0.0,0.0,0.0,0.0,3.9935,4.2108,4.2617,4.2663,0.0,4.0297,3.802,3.8022,0.0,0.0,0.0,0.0,0.0,0.0,0.0,0.0,3.5004,3.6224,3.6697,3.5647,3.5276,3.4379,3.2617,3.2318,3.1767,3.0748,3.0191,2.9569,2.8855,2.8094,0.0,0.0,0.0,0.0,0.0,0.0,0.0,0.0,0.0,0.0,0.0,0.0,0.0,0.0,0.0,0.0,0.0,0.0,0.0,0.0,0.0,0.0,0.0,0.0,0.0,0.0,0.0,0.0,0.0,2.6978,2.8097,2.9425,2.8919,2.8447,0.0,0.0,0.0,0.0,0.0,0.0,0.0,0.0,0.0,2.9983,3.1917,3.3129,3.3509,3.4562,3.5403,3.6,3.6229,3.6443,3.662,3.662,3.6851,3.7198,3.6985,3.649,3.5769,3.4561,3.4669,3.5348,0.0,0.0,0.0,0.0,3.2038,3.3045,3.4443,3.5567,0.0,0.0,0.0,0.0,0.0,0.0,0.0,0.0,0.0,0.0,0.0,0.0,0.0,4.2841,4.3114,4.3164,4.3468,4.2271,4.0981,0.0,4.0017,3.9241,3.7607,0.0,0.0,0.0,0.0,0.0,3.6004,3.6777,3.7086,3.6436,3.5932,3.5105,3.3796,3.3209,3.2396,3.1168,3.0588,2.9977,2.9312,2.8734,2.7841,0.0,0.0,0.0,0.0,0.0,0.0,0.0,0.0,0.0,0.0,0.0,0.0,0.0,0.0,0.0,0.0,0.0,0.0,0.0,0.0,0.0,0.0,0.0,0.0,0.0,0.0,0.0,0.0,2.8687,2.9917,3.1217,3.1055,3.0797,0.0,0.0,0.0,0.0,0.0,0.0,3.0658,3.2262,3.3149,3.3036,3.4542,3.5428,3.5503,3.6,3.6365,3.6562,3.6903,3.7189,3.7388,3.7423,3.7704,3.8121,3.7809,3.7933,3.8251,3.6928,3.6638,3.6902,3.5434,3.5178,3.5609,3.5277,3.596,3.7229,3.8492,3.9556,4.0326,4.043,0.0,3.9462,3.8748,0.0,0.0,0.0,0.0,4.0315,4.1137,4.217,4.3099,4.3494,4.3623,4.3725,4.396,4.4066,4.3783,0.0,4.2128,4.1389,3.9417,0.0,0.0,0.0,0.0,3.7162,3.6971,3.7437,3.7604,3.7203,3.6737,3.599,3.4825,3.4224,3.3178,3.155,3.1021,3.0422,2.958,2.939,2.8802,2.7806,0.0,0.0,0.0,0.0,0.0,0.0,0.0,0.0,0.0,0.0,0.0,0.0,0.0,0.0,0.0,0.0,0.0,0.0,0.0,0.0,0.0,0.0,0.0,0.0,0.0,0.0,0.0,0.0,0.0,3.1267,3.2775,0.0,0.0,0.0,0.0,3.2849,3.3156,3.3753,3.4859,3.5362,3.5441,3.5059,3.6088,3.6527,3.6325,3.7309,3.7913,3.8101,3.8302,3.8524,3.873,3.8891,3.9124,3.932,3.9611,3.9879,3.9912,3.7744,3.7188,3.7635,3.7538,3.8144,3.9078,3.9313,4.0059,4.0938,4.1163,4.1561,4.1987,4.1987,4.1862,4.1764,4.1849,4.1015,0.0,0.0,4.1425,4.1223,4.3364,4.3966,4.4242,4.5078,4.5381,4.5511,4.564,4.5792,4.5421,0.0,4.304,4.2265,4.13,0.0,3.8597,3.8088,3.8082,3.8072,3.7869,3.8586,3.8778,3.7927,3.7924,3.7205,3.5244,3.5156,3.4231,3.1903,3.1826,3.1338,3.0291,3.0306,3.0025,2.9393,2.9526,0.0,0.0,0.0,0.0,0.0,0.0,0.0,0.0,0.0,0.0,0.0,0.0,0.0,0.0,0.0,0.0,0.0,0.0,0.0,0.0,0.0,0.0,0.0,0.0,0.0,0.0,0.0,0.0,3.322,3.3943,0.0,3.4903,3.4226,3.4103,3.4927,3.5571,3.6059,3.6347,3.6985,3.7275,3.7126,3.7604,3.7883,3.7928,3.8421,3.8745,3.898,3.9256,3.9451,3.9589,3.9737,3.9985,4.0316,4.0281,4.0509,4.0839,3.997,3.9634,3.9683,3.9683,4.0122,4.0813,4.1262,4.1902,4.2607,4.3106,4.3116,4.2865,4.2375,4.2142,4.2051,4.2196,4.2321,4.2584,4.3161,4.3829,4.4421,4.4835,4.5389,4.5796,4.558,4.5632,4.5795,4.6005,4.6105,4.5979,4.5532,4.4764,4.3956,4.3127,4.1997,4.1134,4.0791,4.0141,3.9727,3.9888,3.9673,3.9495,3.945,3.8679,3.7828,3.6967,3.6038,3.46,3.2517,3.2206,3.1398,2.9849,3.0144,2.9892,2.893,2.8681,2.8005,0.0,0.0,0.0,0.0,0.0,0.0,0.0,0.0,0.0,0.0,0.0,0.0,0.0,0.0,0.0,0.0,0.0,0.0,0.0,0.0,0.0,0.0,0.0,0.0,0.0,0.0,3.3414,3.4487,3.5214,3.5927,3.6584,3.6372,3.6376,3.6721,3.7324,3.7681,3.76,3.8193,3.8538,3.8598,3.8464,3.8575,3.9002,3.8943,3.909,3.9523,3.9829,4.0021,4.0086,4.0301,4.0543,4.0799,4.0851,4.1055,4.1423,4.1489,4.1456,4.1258,4.0637,4.0696,4.1161,4.1086,4.1483,4.2162,4.3244,4.3698,4.3724,4.3298,4.3037,4.2939,4.3155,4.3664,4.4204,4.4605,4.5348,4.6025,4.5916,4.6169,4.6326,4.5806,4.5795,4.5955,4.5988,4.6186,4.6308,4.6259,4.5427,4.4606,4.4343,4.3127,4.23,4.2599,4.1509,4.0766,4.1163,4.0442,3.9975,4.0154,3.9415,3.8679,3.8129,3.6569,3.4725,3.2619,3.234,3.131,2.9249,3.019,3.0041,2.8603,2.8217,2.781,2.7334,0.0,0.0,0.0,0.0,0.0,0.0,0.0,0.0,0.0,0.0,0.0,0.0,0.0,0.0,0.0,0.0,0.0,0.0,0.0,0.0,0.0,0.0,0.0,3.1796,3.3619,3.498,3.4924,3.6689,3.7774,3.7389,3.7868,3.8202,3.824,3.8389,3.8627,3.8819,3.9017,3.9213,3.9379,3.8671,3.8634,3.94,3.8841,3.895,3.9753,4.0041,4.02,4.025,4.0612,4.0799,4.0867,4.139,4.1621,4.1687,4.219,4.2413,4.2237,4.0324,3.9926,4.0258,3.9082,3.9092,3.9908,4.175,4.3342,4.4626,4.4765,4.4676,4.4558,4.4896,4.4978,4.5159,4.5997,4.5922,4.5745,4.6532,4.6274,4.5804,4.5812,4.6005,4.6112,4.5709,4.6161,4.6495,4.6112,4.4927,4.4208,4.4981,4.3109,4.1939,4.3286,4.2012,0.0,4.1551,4.0855,4.023,3.9977,4.0163,3.9816,3.8522,3.6804,3.4775,3.2376,3.2318,3.1263,2.8726,3.0586,3.0711,2.8683,2.8441,2.8524,2.8904,0.0,0.0,0.0,0.0,0.0,0.0,0.0,0.0,0.0,0.0,0.0,0.0,0.0,0.0,0.0,0.0,0.0,0.0,0.0,0.0,0.0,0.0,3.3949,3.4624,3.6086,3.723,3.7652,3.8193,3.8517,3.8414,3.8546,3.8686,3.8833,3.9046,3.9228,3.943,3.9661,3.9502,3.8965,3.9544,3.9672,3.9334,4.0041,4.0489,4.0727,4.037,4.0493,4.0972,4.0699,4.0953,4.1603,4.1752,4.2012,4.2333,4.2476,4.268,4.2834,4.2045,4.198,4.2292,4.2129,4.2518,4.321,4.3764,4.421,4.4564,4.4748,4.4676,4.4558,4.4896,4.4824,4.4665,4.4812,4.506,4.5246,4.5038,4.5579,4.6088,4.5719,4.6013,4.6332,4.6332,4.6613,4.6842,4.6613,4.5868,4.5293,4.5317,4.4311,4.3374,4.2975,4.206,0.0,4.2046,4.1445,4.0954,4.0931,4.0954,4.0331,3.8809,3.814,3.691,3.4762,3.4382,3.3318,3.1266,3.2658,3.2946,3.1796,3.0049,2.9763,0.0,0.0,0.0,0.0,0.0,0.0,0.0,0.0,0.0,0.0,0.0,0.0,0.0,0.0,0.0,0.0,0.0,0.0,0.0,0.0,0.0,0.0,3.4792,3.5942,3.742,3.7908,3.8341,3.8964,3.898,3.8943,3.8943,3.898,3.9104,3.9228,3.9538,3.9824,4.0036,4.0226,4.0001,3.9277,3.9975,4.0115,3.9692,4.0409,4.0987,4.1321,4.1021,4.1122,4.1538,4.1274,4.1507,0.0,4.2174,4.2397,4.2728,4.2945,4.3129,0.0,0.0,0.0,0.0,0.0,4.2741,4.3687,4.376,4.4148,4.4659,4.4896,4.4896,4.4852,4.5086,4.5123,4.5103,4.5364,4.5573,4.5689,4.565,4.6039,4.6351,4.6093,4.6332,4.6637,4.6542,4.6847,4.7053,4.6806,0.0,0.0,4.5312,4.4441,4.3718,4.3451,4.2405,4.1872,4.2468,4.1936,4.1485,4.1485,4.1231,4.0648,3.9612,3.8395,0.0,0.0,0.0,3.4424,3.3046,3.302,0.0,0.0,0.0,3.1455,3.2821,0.0,0.0,0.0,3.1384,3.1394,0.0,0.0,0.0,0.0,0.0,0.0,0.0,0.0,0.0,0.0,0.0,0.0,0.0,0.0,0.0,0.0,3.6782,3.7982,3.9778,3.9254,3.8862,3.9412,3.9307,3.9213,3.9213,3.9373,3.9496,3.9553,3.9985,4.0355,4.0593,0.0,0.0,0.0,0.0,4.0313,4.027,4.05,4.0992,4.1687,4.1801,4.1898,4.1996,4.2045,4.2206,4.2476,4.2602,4.279,4.3023,4.3419,4.3658,4.3575,4.2362,4.192,4.1822,4.1029,4.1588,4.2806,4.2931,0.0,0.0,4.515,4.5257,4.5283,4.545,4.5624,4.5925,4.6613,4.6555,4.64,4.7043,4.6874,4.6525,4.6566,4.6819,4.6911,4.6566,4.6921,4.7214,4.684,4.6498,4.6035,4.5294,4.406,4.3411,4.412,4.2849,4.2061,4.2789,4.2363,4.1888,4.1715,0.0,0.0,4.0424,3.8216,3.6474,3.558,3.5381,3.5066,3.4566,3.2851,3.207,3.2441,3.2797,3.3577,3.4731,3.5901,3.6634,3.6941,3.4755,3.4376,0.0,0.0,0.0,0.0,0.0,0.0,0.0,0.0,0.0,0.0,0.0,0.0,0.0,0.0,0.0,3.6201,3.7775,3.9192,4.012,4.0313,4.0232,3.993,3.9854,3.9818,3.9818,3.9854,4.0051,4.0489,4.0627,4.0817,4.1122,4.1323,0.0,4.0074,4.1145,4.136,4.0603,4.1641,4.2206,4.2254,0.0,0.0,4.2681,4.2045,4.2189,4.2959,4.299,4.3174,4.3479,4.3568,4.3906,4.4305,4.3925,4.3829,4.3939,4.3917,4.4164,4.4531,4.465,4.4905,4.5167,4.5441,4.558,4.5709,4.5837,4.5837,0.0,4.5667,4.5493,4.5363,4.5467,4.5778,4.6109,4.6381,4.6819,4.7133,4.7066,4.7272,4.7407,4.7214,4.6862,4.6527,4.6264,4.4772,4.3553,4.3169,4.2709,4.2526,4.2785,4.262,4.2241,4.1691,4.2071,4.1588,3.968,3.9643,3.9049,3.7542,3.6825,3.6734,3.7306,3.5845,3.5674,3.7089,3.5996,3.6266,3.7993,3.7602,3.7882,3.8662,3.6285,3.536,0.0,0.0,0.0,0.0,0.0,0.0,0.0,0.0,0.0,0.0,0.0,3.3096,0.0,0.0,3.6071,3.721,3.8172,3.9201,4.0385,4.078,4.0814,4.0436,4.0401,4.0366,4.0261,4.0331,4.0401,4.0401,4.0901,4.1223,4.129,4.1654,4.1541,4.0813,4.1803,4.1965,4.1213,4.2301,4.282,4.2743,4.2538,4.2632,4.3007,4.274,4.2956,4.3429,4.3429,4.3684,4.4064,4.4167,4.448,4.4835,4.4769,4.4797,4.4862,4.4978,4.5086,4.522,4.5353,4.5389,4.5424,4.5709,4.5837,4.5938,4.6137,4.6211,4.6186,4.6151,4.6151,4.6158,4.6154,4.6389,4.666,4.688,4.7205,4.7464,4.7493,4.7642,4.762,4.7182,4.6983,4.6757,4.6318,4.555,4.4728,4.3832,4.3248,4.2938,4.305,4.305,4.2886,4.2487,4.2486,4.203,4.0896,4.0457,3.9692,3.8372,3.8031,3.7841,3.7789,3.7194,3.7232,3.807,3.738,3.7692,3.9101,3.8706,3.8835,3.9414,3.7902,3.7126,0.0,0.0,0.0,0.0,0.0,0.0,0.0,0.0,3.3262,3.3888,3.4525,3.5175,3.5898,3.6353,3.6952,3.8073,3.8332,3.8923,4.0461,4.0865,4.1028,4.1021,4.0935,4.0799,4.073,4.0817,4.0799,4.0524,4.129,4.172,4.1621,4.2045,4.2142,4.1788,4.2428,4.2554,4.2046,4.288,4.3279,4.3218,4.3432,4.3462,4.3295,4.3608,4.3785,4.3889,4.3977,4.4219,4.4614,4.4786,4.5032,4.5283,4.531,4.5336,4.5363,4.5336,4.5415,4.5546,4.5701,4.5752,4.5786,4.6038,4.6137,4.6211,4.6429,4.6613,4.6754,4.7002,4.7138,4.7267,4.732,4.7367,4.7432,4.7536,4.7554,4.7625,4.7856,4.7756,4.749,4.7055,4.6819,4.658,4.6154,4.5925,4.5539,4.4818,4.4034,4.3522,4.3427,4.3513,4.3531,4.3426,4.2941,4.2582,4.2449,4.0987,3.9844,3.9279,3.9054,3.8709,3.8126,3.8095,3.8108,3.8103,3.817,3.8592,3.9389,3.9401,3.9525,3.9757,3.9125,3.8654,2.9999,3.0931,3.186,3.16,3.2972,3.436,0.0,0.0,3.5928,3.5907,3.6663,3.7302,3.7231,3.7634,3.7997,3.8044,3.8414,3.9079,4.0022,4.046,4.0941,4.1704,4.137,4.1153,4.1456,4.1323,4.154,4.2269,4.2333,4.2445,4.2713,4.2898,4.2929,4.2759,4.3221,4.3402,4.3204,4.373,4.3906,4.3726,4.3935,4.401,4.401,4.4167,4.4236,4.4265,4.4564,4.4803,4.4951,4.5113,4.531,4.5572,4.5684,4.5811,4.5887,4.5786,4.5811,4.5963,4.6211,4.6308,4.6332,4.6477,4.6613,4.6731,4.6888,4.702,4.7156,4.7232,4.7363,4.7468,4.749,4.7603,4.7752,4.7752,4.7387,4.7216,4.8064,4.7168,4.6433,4.7113,4.6223,4.5532,4.6244,4.5228,4.4501,4.4971,4.4892,4.4561,4.3925,4.3849,4.3849,4.3832,4.382,4.3574,4.298,4.1337,4.0681,4.1487,4.0039,3.9476,4.0224,3.9533,3.9167,3.9219,3.9296,3.9432,3.9658,3.9724,3.9862,4.0042,3.9242,3.8775,3.0971,3.1582,0.0,0.0,3.3339,3.4292,3.4943,3.5379,3.5876,3.667,3.7102,3.738,3.7546,3.8002,3.8448,0.0,3.9215,3.9967,4.1115,4.1357,4.1661,4.2238,4.1882,4.1653,4.1883,4.1802,4.1867,4.2126,4.2554,4.2836,4.2834,4.3188,4.3446,4.3582,4.3671,4.3772,4.3919,4.4109,4.4207,4.4219,4.4491,4.4547,4.4446,4.478,4.4961,4.4944,4.5345,4.5441,4.5363,4.558,4.5786,4.5963,4.6087,4.6284,4.6429,4.6137,4.6112,4.6259,4.6471,4.6566,4.6661,4.6888,4.6998,4.7066,4.7227,4.7338,4.7421,4.7593,4.7642,4.7708,4.7868,4.7992,4.8132,4.8231,4.8089,4.7942,4.8011,4.749,4.691,4.6411,4.6227,4.6134,4.6061,4.5963,4.5838,4.5648,4.5005,4.4439,4.4172,4.4162,4.4222,4.431,4.4335,4.4055,4.3297,4.2602,4.2177,4.2146,4.1462,4.1029,4.0952,4.0601,4.0179,3.9689,3.9758,3.9837,3.9933,4.0041,4.0167,4.0319,4.0062,3.9884,3.1899,0.0,0.0,3.3427,3.4085,3.4805,3.5588,3.5718,3.5955,3.695,3.7204,3.7318,3.7607,3.8043,3.8578,3.917,3.9613,4.0341,4.1804,4.1981,4.2171,4.2694,4.2141,4.1853,4.2138,4.2157,4.2238,4.2412,4.2958,4.3232,4.3155,4.3562,4.3889,4.4155,4.4093,4.4207,4.4491,4.4519,4.4631,4.4752,4.5042,4.5096,4.4954,4.5372,4.558,4.5632,4.5963,4.6013,4.5887,4.6087,4.6259,4.6429,4.6542,4.6731,4.6916,4.6643,4.6572,4.6637,4.6737,4.687,4.6962,4.716,4.7245,4.7312,4.749,4.7618,4.7705,4.7966,4.8032,4.8076,4.8287,4.8401,4.8513,4.8678,4.8432,4.8108,4.7956,4.7404,4.6697,4.5875,4.6055,4.6177,4.5674,4.6129,4.6396,4.5823,4.499,4.4426,4.444,4.4496,4.4578,4.4672,4.4712,4.4486,4.3919,4.3684,4.3448,4.3111,4.2697,4.2291,4.1968,4.1505,4.0965,4.0338,4.0193,4.0138,4.0177,4.0304,4.0419,4.0564,4.0661,4.0701,3.3071,3.3821,3.4511,3.4857,3.6037,3.6978,3.6565,3.6826,3.707,3.6849,3.7179,3.7487,3.7503,3.785,3.8344,3.9098,3.9226,3.9844,4.1583,4.1703,4.1979,4.2953,4.2033,4.1567,0.0,4.229,4.2787,4.3935,4.386,4.386,4.4039,4.4196,4.4265,4.4293,4.4592,4.4831,4.4978,4.5113,4.523,4.5389,4.5503,4.558,4.558,4.5862,4.6062,4.6186,4.6332,4.6471,4.6566,4.659,4.6749,4.6975,4.698,4.7116,4.7298,4.7407,4.7338,4.7178,4.7254,4.728,4.728,4.728,4.7385,4.7511,4.7657,4.787,4.8114,4.8248,4.8458,4.8676,4.8676,4.8784,4.889,4.8957,4.7847,4.7025,4.7984,4.6403,4.5032,4.5829,4.542,4.4983,4.5024,4.5055,4.5055,4.5036,4.4998,4.4931,4.4796,4.4833,4.4883,4.4883,4.4943,4.5003,4.5034,4.4276,4.4165,4.5047,4.3528,4.2955,4.377,4.2252,4.1417,4.1447,4.0746,4.0394,4.0397,4.0465,4.0552,4.0694,4.0754,4.0806,3.3876,3.4392,3.4866,3.5294,3.6107,3.6684,3.6285,3.6209,3.6481,3.7168,3.6929,3.6982,3.8257,3.8531,3.8962,4.018,4.0677,4.1431,4.2934,4.3006,4.2983,4.3148,4.2472,0.0,0.0,0.0,0.0,4.297,4.3385,4.3739,4.4068,4.4686,4.5025,4.5025,4.5319,4.5529,4.5658,4.5709,4.5811,4.5938,4.6161,4.6374,4.6525,4.6708,4.6772,4.6731,4.6865,4.6911,4.6865,4.6957,4.707,4.7209,4.7294,4.7432,4.7627,4.7687,4.7708,4.7726,4.7648,4.7627,4.7648,4.7728,4.779,4.787,4.8032,4.8209,4.842,4.8624,4.8803,4.894,4.9059,4.9158,4.9123,4.8701,4.8246,4.7712,4.7019,4.6291,4.5708,4.5513,4.5297,4.5159,4.5136,4.5136,4.5136,4.5136,4.5014,4.4931,4.4931,4.4943,4.5033,4.5148,4.5181,4.5235,4.5291,4.5033,4.5025,4.5371,4.4815,4.4345,4.4106,4.3551,4.2775,4.1724,4.147,4.1097,4.0597,4.0675,4.1048,4.1682,4.1174,4.1244,3.4362,3.4796,3.5173,3.5696,3.6256,3.6591,3.6339,3.6152,3.6254,3.6921,3.6942,3.7198,3.8292,3.8884,3.9692,4.1097,4.1679,4.2452,4.3855,4.3931,4.3822,4.3765,4.2858,4.2323,0.0,0.0,0.0,4.2897,4.3406,4.3888,4.4463,4.5123,4.5477,4.5529,4.5811,4.6038,4.6211,4.6259,4.6398,4.6566,4.6778,4.6962,4.7183,4.7312,4.7334,4.7267,4.7359,4.7385,4.7363,4.7385,4.7493,4.7621,4.7663,4.7829,4.8053,4.8075,4.8191,4.8306,4.8034,4.7953,4.8014,4.8113,4.8191,4.8269,4.8402,4.8605,4.8821,4.8993,4.916,4.9321,4.9464,4.9296,4.9008,4.8607,4.8102,4.7447,4.6478,4.6115,4.5851,4.536,4.5309,4.531,4.5279,4.5269,4.5279,4.53,4.5205,4.5129,4.5148,4.514,4.5205,4.536,4.539,4.5419,4.5475,4.5484,4.5521,4.553,4.5521,4.5271,4.4722,4.4453,4.3814,4.2788,4.2483,4.2117,4.1668,4.1426,4.1779,4.2643,4.1846,4.1771,3.4607,3.5049,3.5451,3.6061,3.6525,3.6831,3.6831,3.6687,3.6485,3.6276,3.7293,3.8099,3.7756,3.8946,4.0392,4.1617,4.2075,4.277,4.4248,4.4339,4.4412,0.0,0.0,0.0,0.0,0.0,0.0,4.3723,0.0,4.4272,4.5169,4.5494,4.5709,4.5837,4.6112,4.6381,4.6637,4.6754,4.6957,4.7223,4.7316,4.7407,4.7533,4.7657,4.7738,4.772,4.779,4.7913,4.8012,4.7875,4.7974,4.8207,4.8072,4.8247,4.8532,4.8587,4.875,4.8838,4.8401,4.8286,4.8344,4.8402,4.8569,4.873,4.873,4.899,4.9305,4.934,4.957,4.9821,4.9821,4.9219,4.8623,4.8656,4.7452,4.6313,4.6355,4.5853,4.5418,4.5418,4.5419,4.541,4.5419,4.5419,4.5429,4.5504,4.5513,4.5495,4.5409,4.54,4.5429,4.5504,4.5568,4.5593,4.5605,4.5665,4.5673,4.5621,4.5673,4.5673,4.5621,4.4939,4.4554,4.4511,4.3763,4.3352,4.3354,4.2624,4.2704,4.349,4.2683,4.2363,3.4752,3.5266,3.5719,3.622,3.6805,3.7242,3.7243,3.7245,3.7386,3.7858,3.83,3.8602,3.8695,3.9335,4.0068,4.0687,4.1257,0.0,4.3685,4.4051,0.0,4.4388,0.0,4.297,4.2634,4.1741,0.0,0.0,4.3778,4.4135,4.5206,4.6045,4.6518,4.6542,4.6852,4.7057,4.7125,4.7254,4.7428,4.7645,4.7669,4.7749,4.787,4.801,4.8068,4.8068,4.8131,4.819,4.8229,4.819,4.8288,4.8495,4.8458,4.8623,4.8873,4.8838,4.8923,4.904,4.8976,4.8874,4.875,4.8819,4.8889,4.8974,4.9174,4.9334,4.9484,4.9698,4.9838,4.9965,5.0005,4.9423,4.8686,4.8166,4.725,4.639,4.5841,4.563,4.556,4.556,4.555,4.5549,4.5545,4.5545,4.5554,4.5563,4.566,4.5679,4.5559,4.555,4.5558,4.5563,4.5599,4.5632,4.5731,4.5765,4.5795,4.5819,4.5786,4.58,4.5822,4.5641,4.5254,4.4666,4.4452,4.3795,4.2656,4.3044,4.3381,4.3631,4.2715,4.2674,3.465,3.5241,3.5882,3.6064,3.6558,3.7094,3.7451,3.7327,3.7362,3.8097,3.8618,3.8958,3.8965,3.9669,4.0346,0.0,0.0,0.0,4.3297,4.3976,4.4438,0.0,4.438,0.0,4.3439,4.2964,4.312,0.0,4.3989,4.4408,4.5808,4.6554,4.6962,4.703,4.732,4.7515,4.7603,4.7726,4.785,4.7972,4.8072,4.8151,4.8228,4.8324,4.8401,4.8476,0.0,4.855,4.8605,4.8605,4.8731,4.8906,4.8906,4.9042,4.922,4.9241,4.9305,4.938,4.9449,4.9402,4.9289,4.9305,4.9059,4.8802,4.8987,4.8858,4.8734,4.9229,4.9208,4.9212,4.9992,4.9339,4.8501,4.8471,4.7546,4.657,4.6203,4.5871,4.5635,4.5635,4.5635,4.5643,4.5673,4.5696,4.5692,4.5727,4.5805,4.5826,4.5776,4.5723,4.5708,4.5727,4.5734,4.5764,4.588,4.5886,4.5906,4.5943,4.5943,4.5955,4.5989,4.5991,4.577,4.5326,4.5348,4.4929,4.4079,4.4136,4.4391,4.4762,4.3503,4.34,3.4463,3.5048,3.5864,3.5659,3.6074,3.6734,3.7361,3.7244,3.716,3.7708,0.0,3.9323,3.8887,3.9884,4.0831,4.0994,0.0,4.2416,4.2953,4.386,4.4593,4.494,4.5011,4.4835,4.4343,4.4356,4.4537,4.4842,4.4609,4.5118,4.6637,4.7017,4.7262,4.741,4.7657,4.7886,4.8092,4.8189,4.8265,4.8304,4.8476,4.855,4.855,4.8642,4.8732,4.884,0.0,0.0,4.8826,4.9005,4.9085,4.9123,4.9299,4.9442,4.9573,4.9702,4.975,4.9759,4.9835,4.9848,4.9835,4.975,4.9192,4.8562,4.8761,4.8289,4.7858,4.8555,4.8383,4.831,4.9648,4.8933,4.8077,4.8952,4.7885,4.6718,4.6901,4.6306,4.5731,4.5739,4.5731,4.5746,4.5803,4.5819,4.586,4.5906,4.5925,4.596,4.6003,4.5906,4.5841,4.5912,4.5919,4.5944,4.6003,4.6008,4.6,4.6007,4.6076,4.609,4.6114,4.6115,4.6109,4.6115,4.6172,4.6158,4.6033,4.5408,4.5409,4.6009,4.4553,4.4207,3.4504,3.4803,3.5365,3.5089,3.5978,3.6828,3.6523,3.7529,0.0,0.0,3.9165,3.9995,3.8983,3.984,4.0583,4.0182,0.0,0.0,0.0,0.0,4.3487,0.0,0.0,0.0,0.0,0.0,0.0,0.0,0.0,4.6581,4.7288,4.756,4.779,4.8048,4.8088,4.8228,4.8495,4.8514,4.8624,4.8786,4.8821,4.8839,4.8839,4.9012,4.9062,4.8976,0.0,0.0,4.7909,4.8971,4.889,4.8173,4.9273,4.9802,4.992,4.9952,5.0031,5.0101,5.007,5.0044,5.0031,4.9912,4.9364,4.8878,4.9676,4.9422,4.8853,4.8987,4.9037,4.894,4.8507,4.7742,4.7304,4.8184,4.7147,4.6198,4.6987,4.6466,4.588,4.5867,4.5874,4.586,4.588,4.5931,4.5974,4.598,4.6025,4.6061,4.6085,4.6014,4.5966,4.5975,4.598,4.6011,4.6081,4.6085,4.6076,4.6084,4.6087,4.6127,4.6181,4.6187,4.6178,4.6171,4.6257,4.5922,4.5214,4.578,4.5756,4.5207,4.4912,4.4445,3.5948,3.5974,3.6224,3.6325,3.6541,3.6787,3.6942,0.0,0.0,0.0,3.9189,3.9933,3.9248,3.9782,0.0,4.0311,0.0,0.0,0.0,0.0,0.0,0.0,0.0,0.0,0.0,0.0,0.0,0.0,0.0,0.0,4.7749,4.8076,4.8384,4.8659,4.8623,4.8678,4.8802,4.8802,4.889,4.9062,4.9096,4.9127,4.916,4.9257,4.9308,4.9324,4.9449,0.0,4.8848,4.9495,4.9504,4.9164,4.9802,5.012,5.0207,5.0207,5.0255,5.0294,5.0314,5.0306,5.031,5.0268,4.9354,4.8377,4.8898,4.8217,4.7453,4.8336,4.8318,4.8269,4.922,4.8876,4.8535,4.9448,4.8389,4.7088,4.6616,4.6197,4.5893,4.5905,4.5931,4.5943,4.5953,4.6007,4.6042,4.6042,4.6102,4.6154,4.6146,4.6119,4.6093,4.606,4.6074,4.6126,4.615,4.615,4.6142,4.6141,4.6151,4.6177,4.6206,4.6228,4.6247,4.6241,4.6273,4.6089,4.5683,4.6093,4.609,4.5673,4.5219,4.5,3.7139,3.6927,3.6948,3.7424,3.7049,3.6747,3.7445,3.8091,0.0,3.8448,3.9191,3.9796,3.9563,3.9749,4.0137,0.0,4.1244,4.1724,0.0,0.0,0.0,0.0,0.0,0.0,0.0,0.0,0.0,0.0,0.0,0.0,4.823,4.8586,4.892,4.9153,4.9123,4.9125,4.916,4.916,4.9193,4.9308,4.9355,4.9415,4.9491,4.9506,4.9551,4.9663,4.9692,0.0,0.0,4.9923,5.0012,4.9949,5.0249,5.0393,5.0448,5.047,5.0492,5.0483,5.0554,5.0546,5.0567,5.0635,4.9538,4.822,4.8529,4.7488,4.6463,4.7792,4.7576,4.7397,4.9272,4.9285,4.9011,4.9776,4.9083,4.7839,4.6282,4.5933,4.5933,4.5933,4.5994,4.6021,4.6022,4.6087,4.613,4.613,4.618,4.6203,4.6194,4.6209,4.6195,4.6151,4.6174,4.62,4.6195,4.6195,4.6201,4.6192,4.6211,4.6211,4.6211,4.6271,4.6302,4.6306,4.63,4.6307,4.6308,4.6308,4.6307,4.6278,4.5597,4.5558,3.6645,3.6329,3.641,3.6932,3.692,3.6852,3.7171,0.0,3.9496,3.8956,3.95,4.005,3.9956,3.978,4.0058,0.0,4.1415,4.1705,0.0,0.0,0.0,0.0,0.0,0.0,0.0,0.0,0.0,0.0,0.0,0.0,0.0,4.9052,4.9217,4.9365,4.9442,4.9518,4.963,4.9648,4.9648,4.9648,4.9663,4.9707,4.9778,4.983,4.9852,4.9885,0.0,0.0,0.0,4.9771,4.9661,4.889,5.0101,5.0575,5.0596,5.071,5.0766,5.0756,5.078,5.0733,5.0696,5.0827,5.0168,4.9511,5.0375,4.9471,4.8164,4.8336,4.7801,4.7047,4.6499,4.6338,4.6366,4.6522,4.7038,4.7247,4.6298,4.6084,4.6084,4.6084,4.6083,4.6099,4.608,4.6151,4.6181,4.6181,4.6204,4.6199,4.62,4.6246,4.6288,4.6287,4.6234,4.6201,4.6204,4.6204,4.6204,4.6206,4.6264,4.6284,4.6284,4.6294,4.6308,4.6301,4.6291,4.6301,4.6307,4.6308,4.6308,4.6306,4.622,4.5803,3.8826,3.8312,3.7792,3.7879,3.7859,3.7755,3.7498,0.0,3.9824,3.9314,3.9813,4.0304,4.0196,3.9998,4.0106,4.0984,4.145,4.1965,4.2658,0.0,0.0,0.0,0.0,0.0,0.0,0.0,0.0,0.0,0.0,0.0,0.0,4.966,4.9703,4.9874,4.9874,4.992,4.9986,4.9965,4.97,4.9213,4.9213,4.9252,4.9296,4.8838,4.9193,5.012,0.0,0.0,0.0,4.9972,4.9876,4.9075,5.0307,5.0782,5.0789,5.0893,5.0914,5.0937,5.0981,5.0956,5.0951,5.1043,5.083,5.0494,5.0306,4.9427,4.8515,4.8521,4.8289,4.7965,4.762,4.7567,4.7495,4.6993,4.7142,4.7166,4.629,4.6095,4.6103,4.615,4.6167,4.6164,4.6153,4.6221,4.6259,4.6259,4.6269,4.6258,4.6265,4.6284,4.6305,4.6308,4.6281,4.6269,4.6264,4.6269,4.6269,4.6264,4.6288,4.6291,4.6291,4.6294,4.6297,4.6301,4.6297,4.6302,4.6308,4.6308,4.6308,4.6304,4.6254,4.6044,3.9995,3.941,3.8648,3.8983,3.8676,3.8337,0.0,0.0,4.0164,3.9869,4.0202,4.0512,4.0411,4.0233,4.0276,4.0835,4.138,4.1999,4.2623,4.3319,0.0,0.0,0.0,0.0,0.0,0.0,0.0,0.0,0.0,0.0,0.0,5.0144,5.0156,5.0271,5.0259,5.0252,5.0287,4.9999,4.9568,4.898,4.8732,4.864,4.8676,4.8113,4.8485,4.9564,0.0,0.0,0.0,4.9797,4.9865,4.9346,5.0491,5.0944,5.0966,5.1035,5.1069,5.1076,5.1138,5.1167,5.1169,5.1211,5.122,5.1118,5.0466,4.9672,4.8967,4.8735,4.8288,4.7899,4.7883,4.7929,4.7817,4.7186,4.7049,4.6878,4.6254,4.6121,4.6135,4.6181,4.6219,4.6232,4.6223,4.6278,4.6304,4.6303,4.6306,4.6308,4.6308,4.6308,4.6308,4.6306,4.6308,4.6306,4.6301,4.6305,4.6305,4.6299,4.6303,4.6304,4.6301,4.6305,4.6306,4.6305,4.6287,4.6269,4.6269,4.6268,4.6264,4.6274,4.6197,4.6142,3.9307,3.8782,3.8382,3.9992,3.9073,3.8288,0.0,4.0585,4.063,4.0765,4.0732,4.0673,4.0615,4.05,4.0572,4.1111,4.1198,4.1638,4.2829,0.0,0.0,0.0,0.0,0.0,0.0,0.0,0.0,0.0,0.0,0.0,0.0,5.0446,5.0557,5.05,5.0566,5.0557,5.0497,4.9709,4.9276,4.9186,4.8313,4.796,4.801,4.801,4.7961,0.0,0.0,0.0,0.0,4.8998,4.9425,4.9422,5.0542,5.1043,5.1101,5.1167,5.1208,5.1219,5.1273,5.1306,5.1295,5.13,5.1291,5.1314,5.1369,5.072,4.9828,4.9012,4.7554,4.6219,4.6219,4.6222,4.6228,4.6203,4.6206,4.6206,4.6206,4.6197,4.621,4.62,4.6255,4.6303,4.6306,4.6308,4.6303,4.6307,4.6301,4.6296,4.6301,4.6301,4.6301,4.6301,4.6301,4.6305,4.6308,4.6308,4.6308,4.6307,4.6308,4.6308,4.6302,4.6308,4.6308,4.6308,4.6228,4.6202,4.6196,4.6207,4.6199,4.6206,4.6125,4.6035,3.8779,3.8811,3.879,3.8114,3.7934,3.8119,3.881,3.9425,4.0031,4.0723,4.0839,4.0806,4.0681,4.0605,4.0737,4.1379,4.1865,4.246,0.0,0.0,0.0,0.0,0.0,0.0,0.0,0.0,0.0,0.0,0.0,0.0,0.0,5.0754,5.0745,5.0635,5.0664,5.0394,4.9825,4.9556,4.8852,4.7694,4.7424,4.7326,4.7348,4.6777,0.0,0.0,0.0,0.0,0.0,4.8952,4.9214,4.8649,5.0499,5.1215,5.1249,5.1261,5.1273,5.1277,5.1342,5.1372,5.1375,5.1378,5.1366,5.1369,5.139,5.0789,4.9767,4.8326,4.7082,4.6204,4.6206,4.6208,4.6191,4.62,4.6204,4.6207,4.6256,4.6279,4.6264,4.6269,4.6289,4.6287,4.6241,4.6235,4.6231,4.6234,4.6273,4.6293,4.6309,4.682,4.6958,4.6368,4.6784,4.691,4.6346,4.6791,4.712,4.7122,4.7679,4.7749,4.7143,4.7116,4.6843,4.6249,4.6206,4.62,4.6197,4.6197,4.6125,4.5993,4.5931,4.5815,3.8371,3.8452,3.8385,3.7598,3.7799,0.0,3.8707,3.9463,4.022,4.0813,4.0926,4.0863,4.0798,4.0726,4.0781,4.113,4.1815,4.2546,0.0,0.0,0.0,0.0,0.0,0.0,0.0,0.0,0.0,0.0,0.0,0.0,0.0,0.0,5.0937,5.0839,5.0858,5.0615,5.0112,4.9452,4.8604,4.7562,4.6924,4.6635,4.6668,4.6113,0.0,0.0,0.0,0.0,0.0,4.8154,4.8424,4.7852,4.9635,5.0525,5.077,5.0479,5.0569,5.0806,5.0513,5.0638,5.0913,5.0904,5.1127,5.1346,5.1007,5.0532,4.9815,4.8392,4.7383,4.6725,4.6725,4.6472,4.6319,4.6616,4.6461,4.6248,4.6269,4.6523,4.6755,4.6743,4.703,4.7238,4.7188,4.7157,4.7155,4.719,4.7229,4.7223,4.7211,4.766,4.7635,4.6777,4.7125,4.7096,4.6267,4.6672,4.6965,4.6973,4.7474,4.7687,4.7479,4.7151,4.6879,4.666,4.6326,4.6167,4.6167,4.6119,4.5993,4.5808,4.5771,4.5648,0.0,3.7701,3.7363,3.8124,3.837,3.8668,3.9591,4.0382,0.0,4.0993,4.0941,4.0903,4.0888,4.0842,4.0761,4.0624,4.1327,0.0,0.0,0.0,0.0,0.0,0.0,0.0,0.0,0.0,0.0,0.0,0.0,0.0,0.0,0.0,5.1088,5.1011,5.1017,5.1017,5.101,4.9414,4.854,4.8392,4.6896,4.6155,4.6104,4.6168,0.0,0.0,0.0,0.0,0.0,4.6895,4.7252,4.7136,4.828,4.9195,4.9819,4.9086,4.9311,4.9881,4.9082,4.932,5.0026,5.007,5.0641,5.1171,5.043,5.0116,4.9837,4.9031,4.8217,4.7616,4.7675,4.707,4.6679,4.7419,4.7028,4.6461,4.6397,4.7015,4.759,4.7584,4.8232,4.8769,4.8707,4.8638,4.8592,4.8586,4.8646,4.8658,4.86,4.8658,4.8355,4.7476,4.7441,4.7086,4.6163,4.6132,4.6177,4.617,4.6236,4.6636,4.7443,4.664,4.6599,4.7454,4.6619,4.6182,4.6182,4.5978,4.5827,4.5673,4.5605,4.5464,3.6511,0.0,3.7181,3.7411,3.7537,3.7968,0.0,3.9956,4.0252,4.0864,4.0984,4.0958,4.0833,4.0812,4.0986,4.1563,4.2285,4.3077,0.0,0.0,0.0,0.0,0.0,0.0,0.0,0.0,0.0,0.0,0.0,0.0,0.0,0.0,5.0897,5.0272,5.0256,5.0228,5.0175,4.9773,4.8905,4.7584,4.7903,4.7729,4.7091,4.7754,0.0,0.0,0.0,0.0,4.5973,4.7046,4.7412,4.7392,4.8379,4.8894,4.9054,4.8874,4.8937,4.9074,4.8865,4.8924,4.9218,4.9882,5.0249,5.0499,5.0941,5.0167,4.9061,4.8924,4.8216,4.7681,4.833,4.8365,4.826,4.8447,4.8339,4.8213,4.8181,4.8301,4.8392,4.8355,4.85,4.8414,4.7699,4.7564,4.7328,4.6682,4.7153,4.7567,4.7543,4.8704,4.919,4.8301,4.8771,4.8503,4.6959,4.6951,4.6999,4.6945,4.7524,4.7953,4.8154,4.7385,4.7345,4.8223,4.7389,4.6936,4.6936,4.615,4.5673,4.5549,4.5419,4.5292,3.6557,3.7072,3.7744,3.7796,3.8123,3.8787,4.0093,4.0409,4.0511,4.0912,4.0972,4.0924,4.0859,4.0844,4.1124,4.1953,4.2768,0.0,0.0,0.0,0.0,0.0,0.0,0.0,0.0,0.0,0.0,0.0,0.0,0.0,0.0,0.0,5.0278,4.9461,4.9845,4.9827,4.9353,4.8978,4.8321,4.7386,4.7502,4.7306,4.6869,4.7345,0.0,0.0,0.0,0.0,4.6122,4.6685,4.6894,4.6945,4.7442,4.7901,4.8199,4.7792,4.791,4.8183,4.7791,4.7887,4.8412,4.9694,5.0095,5.0184,5.0666,4.9866,4.8894,4.9336,4.9075,4.879,4.9265,4.9098,4.8906,4.9307,4.9075,4.8739,4.8752,4.8985,4.9192,4.9157,4.9456,4.9536,4.9033,4.8942,4.8774,4.8309,4.8626,4.8877,4.8871,4.9651,4.9875,4.8967,4.9312,4.9049,4.7689,4.7634,4.7511,4.7132,4.7896,4.8524,4.8941,4.8145,4.7935,4.8401,4.7956,4.749,4.7024,4.6414,4.5859,4.539,4.5239,4.5109,3.7481,3.8241,3.9066,3.8938,3.9355,4.0066,4.1062,4.1183,4.1083,4.101,4.1066,4.1103,4.1106,4.1223,0.0,0.0,0.0,0.0,0.0,0.0,0.0,0.0,0.0,0.0,0.0,0.0,0.0,0.0,0.0,0.0,0.0,0.0,0.0,4.8824,4.9399,4.9259,4.834,4.7905,4.7635,4.7492,4.6889,4.6533,4.6407,4.6536,4.6523,0.0,0.0,0.0,4.6212,4.6202,4.6233,4.6305,4.6306,4.6757,4.7304,4.6559,4.6753,4.7299,4.6683,4.7024,4.7953,4.9551,5.0089,5.0115,5.0227,4.966,4.9156,5.0012,5.0076,4.9881,4.9881,4.9432,4.9172,4.9912,4.9469,4.8904,4.9041,4.954,4.995,4.9957,5.0497,5.0917,5.0765,5.0735,5.0677,5.0569,5.0603,5.0631,5.0576,5.0629,5.0364,4.9586,4.9577,4.9278,4.8318,4.8385,4.8124,4.7353,4.7895,4.8579,4.9307,4.8883,4.8555,4.8439,4.8304,4.7801,4.6953,4.655,4.599,4.5254,4.5068,4.4931,3.8744,4.0058,4.1617,4.0898,4.0253,4.0219,4.1759,4.1596,4.1075,4.1,4.1587,4.2074,4.2009,4.2654,4.3212,0.0,0.0,0.0,0.0,0.0,0.0,0.0,0.0,0.0,0.0,0.0,0.0,0.0,0.0,0.0,0.0,0.0,0.0,4.879,4.8216,4.75,4.6683,4.7957,4.8237,4.7506,4.8113,4.8005,4.7323,4.8058,4.8006,0.0,0.0,4.691,4.6289,4.6228,4.625,4.6305,4.6301,4.6355,4.6406,4.6259,4.6294,4.6507,4.7118,4.7883,4.8766,4.9705,5.0022,5.0135,5.0811,5.0422,4.9902,5.0725,4.998,4.8908,4.8912,4.9363,4.9852,4.9988,4.9828,4.9819,5.0563,5.0732,5.0701,5.0648,5.0705,5.0488,4.9711,4.9509,4.9249,4.8548,4.9019,4.949,4.9519,5.0133,5.0506,5.0411,5.0361,4.9965,4.9039,4.9676,4.9723,4.8756,4.8285,4.8086,4.8173,4.9379,4.9763,4.9075,4.8267,4.7795,4.7641,4.6086,4.5239,4.5038,4.4895,4.4783,4.0598,4.1503,4.2526,4.3078,4.2207,4.1517,4.2738,4.2744,4.2351,4.1802,0.0,0.0,0.0,0.0,0.0,0.0,0.0,0.0,0.0,0.0,0.0,0.0,0.0,0.0,0.0,0.0,0.0,0.0,0.0,0.0,0.0,0.0,0.0,0.0,4.7514,4.7146,4.6308,4.7069,4.7241,4.686,4.7261,4.7499,4.7577,4.7928,4.8137,4.8209,0.0,4.7955,4.7617,4.7076,4.6899,4.6908,4.6431,4.6225,4.6194,4.6209,4.6201,4.6306,4.7118,4.7342,4.7484,4.8725,4.9132,4.929,5.013,5.0098,4.9879,5.0235,5.0176,4.9987,4.9957,5.0239,5.0531,5.0493,5.0403,5.0448,5.0843,5.0839,5.0727,5.071,5.0635,5.044,4.9963,4.9906,4.975,4.9321,4.9559,4.9789,4.9789,5.0111,5.0337,5.0325,5.0359,5.0206,4.9729,5.0061,5.013,4.9782,4.9422,4.9223,4.9204,4.9905,5.0099,4.9686,4.9227,4.8741,4.8229,4.6928,4.6013,4.5477,4.49,4.4605,4.2087,4.2694,4.3286,4.4413,4.3689,4.2916,4.3724,4.3797,4.3495,4.2752,0.0,0.0,0.0,0.0,0.0,0.0,0.0,0.0,0.0,0.0,0.0,0.0,0.0,0.0,0.0,0.0,0.0,0.0,0.0,0.0,0.0,0.0,0.0,0.0,4.705,4.6971,4.6284,4.6279,4.6284,4.6308,4.6307,4.6636,4.7277,4.7217,4.7552,4.8184,4.8314,4.8406,4.8418,4.7888,4.7694,4.7674,4.6778,4.6313,4.6119,4.6119,4.6131,4.6266,4.7223,4.712,4.6832,4.8471,4.8994,4.9116,4.978,4.9986,4.9972,4.9919,5.0433,5.0891,5.0477,5.0506,5.0631,5.0573,5.051,5.0501,5.0677,5.0635,5.0546,5.0497,5.0462,5.0404,5.0337,5.0371,5.0371,5.0267,5.0255,5.0231,5.0151,5.0151,5.0133,5.007,5.017,5.0219,5.0151,5.0076,5.012,5.0243,5.0231,5.0219,5.0219,5.0133,5.007,5.0005,4.973,4.9246,4.8534,4.7634,4.6811,4.6082,4.5359,4.4992,4.2594,4.3573,4.4656,4.3957,4.369,4.3819,4.4614,4.4231,4.3663,4.3523,0.0,0.0,0.0,0.0,0.0,0.0,0.0,0.0,0.0,0.0,0.0,0.0,0.0,0.0,0.0,0.0,0.0,0.0,0.0,0.0,0.0,0.0,0.0,0.0,0.0,4.633,4.6206,4.6216,4.6241,4.6296,4.6295,4.6303,4.6292,4.6295,4.6281,4.6344,4.7075,4.7392,4.7471,4.8142,4.8453,4.8428,4.7481,4.6632,4.5916,4.5916,4.591,4.6143,4.7766,4.8283,4.8514,5.0257,5.077,5.0732,5.0789,5.0819,5.0775,5.0596,5.0587,5.0307,4.8866,4.9059,4.9605,4.9605,4.9507,4.9615,5.0364,5.0472,5.0371,5.0248,5.0224,5.0188,5.0133,5.012,5.012,5.012,5.012,5.0095,5.0031,4.9999,4.9992,4.9906,4.9992,5.0031,4.9999,4.9946,4.9898,4.9848,4.9898,4.9939,4.9939,4.9802,4.9736,4.9721,4.8876,4.838,4.8323,4.7316,4.6795,4.6739,4.6591,4.6542,4.3805,4.4492,4.5053,4.5267,4.5324,4.5258,4.5028,4.5156,4.5168,4.4582,4.4754,0.0,0.0,0.0,0.0,0.0,0.0,0.0,0.0,0.0,0.0,0.0,0.0,0.0,0.0,0.0,0.0,0.0,0.0,0.0,0.0,0.0,0.0,4.6704,4.6407,4.6238,4.6198,4.6192,4.618,4.6102,4.6153,4.6446,4.694,4.6857,4.7101,4.76,4.7824,4.796,4.7966,4.7727,4.796,4.8398,4.7488,4.6907,4.6589,4.6635,4.6629,4.6756,4.7874,4.8288,4.845,4.9535,4.9893,4.9999,5.05,5.0615,5.0565,5.0502,5.0418,5.0254,4.9778,4.9855,5.0054,5.0003,4.9939,4.9908,5.014,5.0175,5.0114,5.0025,5.0038,5.0044,4.9925,4.9978,5.0005,4.9925,4.9952,4.9978,4.9952,4.9898,4.9876,4.983,4.9816,4.9807,4.9745,4.9736,4.9707,4.9678,4.9778,4.9788,4.9721,4.9585,4.9476,4.9449,4.9052,4.8856,4.8856,4.7988,4.7495,4.7413,4.6829,4.6522,4.4682,4.5195,4.5546,4.6151,4.6307,4.613,4.5554,4.5867,4.6122,4.5528,4.54,4.5407,0.0,0.0,0.0,0.0,0.0,0.0,0.0,0.0,0.0,0.0,0.0,0.0,0.0,0.0,0.0,0.0,0.0,0.0,0.0,0.0,0.0,0.0,4.6161,4.6157,4.613,4.6138,4.6084,4.5972,4.5969,4.6319,4.6917,4.6806,4.7068,4.7663,4.7816,4.7921,4.7935,4.7581,4.7619,4.7843,4.726,4.6982,4.6915,4.6966,4.7124,4.7439,4.8246,4.8517,4.8643,4.9372,4.9629,4.9744,5.0306,5.0424,5.0359,5.0337,5.0278,5.0243,5.0337,5.0337,5.029,5.0243,5.0207,5.0145,5.0012,4.9992,4.9952,4.9885,4.9885,4.9871,4.9792,4.9843,4.9857,4.975,4.9788,4.9797,4.9755,4.9731,4.9721,4.9673,4.9615,4.9559,4.9514,4.9529,4.9529,4.9483,4.9574,4.9585,4.9544,4.9434,4.9337,4.9276,4.9162,4.9096,4.9096,4.8489,4.8141,4.8036,4.7446,4.71,4.5008,4.5641,4.6307,4.6307,4.6308,4.6308,4.6307,4.6308,4.6306,4.6303,4.6307,4.6308,4.6323,0.0,0.0,0.0,0.0,0.0,0.0,0.0,0.0,0.0,0.0,0.0,0.0,0.0,0.0,0.0,0.0,0.0,0.0,0.0,0.0,0.0,4.6106,4.6081,4.5997,4.6005,4.5953,4.5893,4.5766,4.5766,4.5893,4.584,4.5798,4.5858,4.6669,4.702,4.7069,4.7876,4.7662,4.682,4.6885,4.6839,4.6713,4.6713,4.725,4.8132,4.8937,4.9205,4.9339,5.0232,5.0457,5.0401,5.042,5.0356,5.029,5.0231,5.0207,5.0175,5.012,5.0095,5.0095,5.0095,5.0095,5.0082,5.0018,4.9933,4.9885,4.9821,4.9736,4.9692,4.9692,4.9692,4.9663,4.9623,4.9648,4.9615,4.943,4.951,4.9544,4.9415,4.9337,4.9308,4.9308,4.9352,4.9337,4.9214,4.9214,4.926,4.9399,4.9321,4.926,4.9214,4.8995,4.8909,4.8909,4.8714,4.8605,4.8605,4.8605,4.8605,4.5004,4.5636,4.6303,4.63,0.0,0.0,0.0,4.6262,0.0,0.0,4.7138,4.7327,4.7946,0.0,0.0,0.0,0.0,0.0,0.0,0.0,0.0,0.0,0.0,0.0,0.0,0.0,0.0,0.0,0.0,0.0,0.0,0.0,0.0,0.0,4.5955,4.5931,4.5854,4.5822,4.5766,4.5696,4.564,4.5676,4.5773,4.6287,4.6497,4.6556,4.7347,4.7713,4.777,4.8557,4.8749,4.8431,4.7835,4.7919,4.8309,4.7712,4.7996,4.8818,4.9614,4.9931,5.0107,5.0873,5.0739,5.0338,5.0812,5.052,4.9999,4.9939,4.9885,4.9843,4.9816,4.9821,4.983,4.9939,4.9885,4.9807,4.9736,4.9644,4.9537,4.9446,4.9434,4.9402,4.9355,4.9387,4.9418,4.9387,4.9402,4.9402,4.9337,4.9352,4.9355,4.9276,4.9244,4.9195,4.911,4.9061,4.9027,4.8995,4.8943,4.896,4.9044,4.8978,4.8891,4.8785,4.8732,4.8696,4.8696,4.8623,4.8605,4.8587,4.855,4.8532,4.5528,4.5903,4.6294,4.6309,4.627,4.6345,4.6655,0.0,0.0,0.0,0.0,0.0,0.0,0.0,0.0,0.0,0.0,0.0,0.0,0.0,0.0,0.0,0.0,0.0,0.0,0.0,0.0,0.0,0.0,0.0,0.0,0.0,0.0,0.0,4.6334,4.6298,4.6201,4.5827,4.5778,4.603,4.5985,4.6157,4.653,4.6695,4.6954,4.73,4.7757,4.7966,4.8005,4.8443,4.8632,4.8553,4.8023,4.8315,4.8961,4.8418,4.8738,4.9515,5.0323,5.0609,5.0748,5.1545,5.1456,5.1114,5.1513,5.1254,5.0728,5.0302,5.0168,5.0048,4.9679,4.9555,4.9585,4.9745,4.9721,4.9634,4.9525,4.9449,4.9352,4.9324,4.9276,4.9244,4.9214,4.9228,4.9244,4.923,4.9179,4.9144,4.9176,4.9127,4.9079,4.9047,4.8995,4.8925,4.8854,4.8802,4.8785,4.8785,4.8715,4.8679,4.866,4.875,4.8732,4.8605,4.8569,4.8569,4.8569,4.8476,4.8458,4.8476,4.8401,4.84,4.617,4.6227,4.6298,4.6296,4.6308,0.0,4.7408,4.7669,4.7726,4.7722,0.0,0.0,0.0,0.0,0.0,0.0,0.0,0.0,0.0,0.0,0.0,0.0,0.0,0.0,0.0,0.0,0.0,0.0,0.0,0.0,0.0,0.0,0.0,0.0,4.6841,4.6803,4.6666,4.6022,4.6013,0.0,4.6617,4.704,4.7861,4.7197,4.7373,4.8186,4.8124,4.8103,4.8092,4.8036,4.7961,4.7895,4.7807,4.8267,4.8979,4.8891,4.9328,5.0073,5.0806,5.1011,5.114,5.2054,5.2275,5.2182,5.2334,5.2254,5.197,5.1121,5.088,5.0679,4.9812,4.949,4.9436,4.9611,4.9585,4.9514,4.9384,4.9305,4.9241,4.9241,4.9211,4.9164,4.9146,4.9164,4.9131,4.9084,4.8945,4.889,4.8976,4.8856,4.8787,4.8769,4.866,4.8624,4.8679,4.8679,4.8716,4.879,4.8679,4.8529,4.8415,4.8606,4.8678,4.855,4.8476,4.8438,4.8438,4.8265,4.8208,4.8267,4.8208,4.8246,4.5206,4.5692,4.6214,4.6223,4.6684,4.7373,4.8242,4.8926,4.9404,0.0,0.0,0.0,0.0,0.0,0.0,0.0,0.0,0.0,0.0,0.0,0.0,0.0,0.0,0.0,0.0,0.0,0.0,0.0,0.0,0.0,0.0,0.0,0.0,4.5734,4.5745,4.5716,4.5706,4.6046,4.6298,0.0,4.7017,4.7718,4.8491,4.845,4.8867,4.9649,4.9636,4.9624,4.9624,4.9543,4.9524,4.9423,4.8642,4.8875,4.9597,4.8794,4.9083,4.9853,4.991,4.9971,5.0226,5.1639,5.165,5.1337,5.2554,5.2435,5.1811,5.1503,5.143,5.1376,5.1172,5.0619,5.0067,5.0013,4.9543,4.9127,4.9092,4.8976,4.891,4.891,4.8892,4.8839,4.875,4.8821,4.8857,4.8714,4.8696,4.866,4.8678,4.866,4.8624,4.8569,4.8532,4.8734,4.9265,4.932,4.9614,5.0274,4.9723,4.9315,4.9179,4.8633,4.8267,4.8113,4.8111,4.811,4.811,4.8052,4.8052,4.8072,4.8168,4.8149,4.5523,4.5847,4.6297,4.6676,0.0,4.8618,4.8643,4.9604,5.0237,0.0,0.0,0.0,0.0,0.0,0.0,0.0,0.0,0.0,0.0,0.0,0.0,0.0,0.0,0.0,0.0,0.0,0.0,0.0,0.0,0.0,0.0,4.5764,4.5964,4.5934,4.5931,4.6099,4.6437,4.642,4.6774,4.7519,4.7865,4.842,4.9175,4.932,4.9619,5.0005,4.9965,4.9952,4.9952,4.9885,4.983,4.9764,4.9245,4.9277,4.9598,4.9077,4.916,4.9612,4.9915,5.0278,5.0804,5.2029,5.2407,5.254,5.3333,5.3261,5.2799,5.2281,5.2099,5.1971,5.1544,5.1045,5.0657,5.0602,4.9711,4.8891,4.8819,4.875,4.8715,4.8715,4.8715,4.8678,4.8605,4.8624,4.8624,4.8569,4.8476,4.8401,4.8401,4.8345,4.8306,4.8267,4.8267,4.8393,4.8756,4.8793,4.914,4.998,4.9287,4.8952,4.9252,4.8466,4.8028,4.7992,4.7992,4.7992,4.7992,4.8352,4.8534,4.8575,4.8976,4.9159,4.5946,4.6164,4.6618,4.7592,4.8861,0.0,4.8951,4.997,0.0,0.0,0.0,0.0,0.0,0.0,0.0,0.0,0.0,0.0,0.0,0.0,0.0,0.0,0.0,0.0,0.0,0.0,0.0,0.0,0.0,0.0,4.5351,4.596,4.6366,4.6446,4.6439,4.677,4.7547,4.701,4.7371,4.8636,4.8694,4.9037,4.9619,4.9731,4.9797,4.9843,4.9759,4.9731,4.9736,4.9663,4.9604,4.9544,4.9514,4.9434,4.9337,4.9321,4.9289,4.9353,5.016,5.0856,5.1569,5.2541,5.3307,5.3868,5.4017,5.4018,5.3832,5.3051,5.281,5.2586,5.1805,5.1432,5.1207,5.1078,5.0046,4.903,4.8827,4.8661,4.8532,4.8514,4.8514,4.8514,4.8532,4.8476,4.8419,4.8419,4.8265,4.8168,4.8168,4.807,4.7992,4.7972,4.799,4.8045,4.8172,4.819,4.8537,4.9359,4.8648,4.848,4.9086,4.8338,4.7904,4.7949,4.8077,4.8097,4.7949,4.881,4.921,4.9128,4.9825,5.0206,4.4929,4.6003,4.7538,0.0,4.9693,4.9769,0.0,0.0,0.0,0.0,0.0,0.0,0.0,0.0,0.0,0.0,0.0,0.0,0.0,0.0,0.0,0.0,0.0,0.0,0.0,0.0,0.0,0.0,0.0,0.0,4.5129,4.5186,4.552,4.6219,4.6139,4.6493,4.7318,4.7801,4.8159,4.8352,4.8938,4.9227,4.9279,4.9276,4.9418,4.9634,4.951,4.9461,4.9446,4.9368,4.9355,4.9305,4.9144,4.9077,4.9042,4.8993,4.8993,4.9156,4.9889,5.0329,5.0787,5.2247,5.2753,5.2921,5.3628,5.3717,5.3542,5.3431,5.3393,5.3354,5.3224,5.2548,5.1708,5.1009,5.0519,5.0072,4.9634,4.8898,4.8325,4.8247,4.8169,4.8131,4.8306,4.819,4.8072,4.8072,4.8032,4.8012,4.8012,4.8012,4.797,4.7922,4.7922,4.8195,4.8907,4.8961,4.9331,5.018,4.9487,4.9063,4.9104,4.8338,4.7861,4.7741,4.843,4.8448,4.7741,4.9115,4.9432,4.8804,4.9577,4.9893,4.5386,4.6253,4.7488,0.0,4.9401,4.9743,4.9705,0.0,0.0,0.0,0.0,0.0,0.0,0.0,0.0,0.0,0.0,0.0,0.0,0.0,0.0,0.0,0.0,0.0,0.0,0.0,0.0,0.0,0.0,4.5033,4.4979,4.4919,4.5029,4.5351,4.5279,4.5822,4.7118,4.7419,4.8018,4.8855,4.9038,4.9162,4.9214,4.9079,4.9162,4.9374,4.9308,4.9292,4.9292,4.926,4.9179,4.9061,4.8976,4.889,4.8767,4.8731,4.8749,4.8822,4.9157,4.9637,5.0247,5.0898,5.1417,5.1824,5.2176,5.223,5.2245,5.2687,5.2758,5.2808,5.3208,5.2955,5.244,5.2029,5.1484,5.1025,5.0824,5.009,4.9482,4.9442,4.938,4.9362,4.9444,4.9015,4.8582,4.852,4.8058,4.7705,4.7705,4.7705,4.7925,4.8415,4.8469,4.8596,4.8959,4.8977,4.9143,4.9534,4.8662,4.8323,4.875,4.7879,4.7553,4.7918,4.8478,4.8367,4.749,4.9478,5.0009,4.9185,5.0512,5.1088,4.5775,0.0,4.697,4.8048,4.8964,4.9598,0.0,0.0,0.0,0.0,0.0,0.0,0.0,0.0,0.0,0.0,0.0,0.0,0.0,0.0,0.0,0.0,0.0,0.0,0.0,0.0,0.0,0.0,0.0,4.5236,4.5187,4.489,4.4787,4.496,4.5072,4.5814,4.7234,4.7413,4.8063,4.9179,4.901,4.8993,4.9079,4.8943,4.896,4.9113,4.9115,4.9079,4.9062,4.9062,4.8959,4.882,4.8804,4.8715,4.8569,4.855,4.8661,4.8883,4.8883,4.9473,5.0231,5.0396,5.0839,5.1354,5.1518,5.1424,5.1386,5.2195,5.2208,5.2165,5.2886,5.2977,5.2791,5.2502,5.2072,5.1649,5.1362,5.0815,5.0375,5.0396,5.0332,5.0289,5.0329,4.9731,4.9224,4.9119,4.8525,4.8063,4.8063,4.7883,4.8125,4.9046,4.8775,4.8724,4.9184,4.8956,4.8894,4.9093,4.8277,4.7981,4.8375,4.7678,4.7461,4.7813,4.8281,4.8282,4.7801,4.9984,5.0623,4.9782,5.1268,5.198,0.0,4.5643,0.0,4.7681,4.8712,0.0,0.0,0.0,0.0,0.0,0.0,0.0,0.0,0.0,0.0,0.0,0.0,0.0,0.0,0.0,0.0,0.0,0.0,0.0,0.0,0.0,0.0,0.0,0.0,4.5965,4.5932,4.5043,4.4867,4.5618,4.6263,4.7028,4.794,4.8526,4.8817,4.8822,4.8822,4.8804,4.8822,4.8804,4.8857,4.8909,4.8857,4.875,4.8623,4.8623,4.8623,4.8605,4.855,4.8494,4.8494,4.8344,4.8879,4.9636,4.9636,5.0265,5.1135,5.1794,5.1971,5.2068,5.2715,5.2279,5.1755,5.2536,5.2207,5.1806,5.2627,5.2667,5.2322,5.1561,5.1721,5.1782,5.0711,5.0329,5.0231,5.0375,5.0137,4.9956,5.0086,4.9875,4.9662,4.9662,4.9626,4.9585,4.9585,4.892,4.8803,4.9744,4.8486,4.8222,4.989,4.9109,4.8866,4.9626,4.937,4.8871,4.8134,4.8063,4.7724,4.7069,4.7713,4.8402,4.9192,5.0727,5.1119,5.0459,5.119,5.1607,0.0,0.0,0.0,4.6027,4.6892,4.77,0.0,0.0,0.0,0.0,0.0,0.0,0.0,0.0,0.0,0.0,0.0,0.0,0.0,0.0,0.0,0.0,0.0,0.0,0.0,0.0,0.0,0.0,0.0,0.0,4.478,4.4522,4.4441,4.4599,4.4836,4.556,4.6817,4.8083,4.8696,4.866,4.8642,4.8642,4.866,4.8624,4.8624,4.8642,4.8606,4.8661,4.8715,4.8587,4.8845,4.9287,4.9173,4.9484,4.9961,4.9903,5.0124,5.0421,5.0421,5.0567,5.0749,5.055,5.0356,5.025,5.0581,5.0329,5.0216,5.1526,5.1627,5.1524,5.229,5.2415,5.2291,5.1909,5.1958,5.1988,5.1576,5.1058,5.0511,5.0051,4.9852,4.978,4.9825,4.9757,4.9508,4.8954,4.8824,4.8806,4.8806,4.8555,4.8923,5.0386,5.0032,4.9901,5.043,5.0121,4.9775,4.9454,4.9124,4.8827,4.8617,4.8377,4.8383,4.8713,4.8551,4.8196,4.7701,4.9661,5.0214,4.9518,5.0876,5.1531,4.3521,0.0,0.0,0.0,0.0,4.629,0.0,0.0,0.0,0.0,0.0,0.0,0.0,0.0,0.0,0.0,0.0,0.0,0.0,0.0,0.0,0.0,0.0,0.0,0.0,0.0,0.0,0.0,0.0,0.0,4.4553,4.4326,4.4358,4.4724,4.4726,4.5473,4.698,4.8034,4.8587,4.8587,4.8532,4.8532,4.8569,4.8752,4.8862,4.8899,4.9079,4.9119,4.9049,4.888,4.9281,4.9997,4.9841,5.0149,5.0662,5.0662,5.0826,5.1048,5.0753,5.0785,5.0817,5.0053,4.9677,4.9588,4.994,4.9707,4.9706,5.1257,5.1425,5.1338,5.2053,5.2204,5.2132,5.1987,5.198,5.1891,5.1622,5.1443,5.1131,5.061,5.0198,5.0061,5.033,5.0104,4.9692,4.9055,4.9013,4.9001,4.8978,4.8769,4.9304,5.106,5.0713,5.0552,5.0974,5.068,5.0314,4.9906,4.9552,4.9266,4.9123,4.8794,4.8819,4.9241,4.8784,4.8189,4.7434,4.8969,4.9571,4.9408,5.0548,5.1282,0.0,0.0,0.0,0.0,0.0,0.0,0.0,0.0,0.0,0.0,0.0,0.0,0.0,0.0,0.0,0.0,0.0,0.0,0.0,0.0,0.0,0.0,0.0,0.0,0.0,0.0,0.0,0.0,0.0,4.5435,4.5395,4.4501,4.4652,4.6112,4.6169,4.6962,4.855,4.8513,4.8494,4.8476,4.8476,4.8512,4.8549,4.9206,4.9575,4.9764,5.0195,5.0122,4.9646,4.949,4.9887,5.062,5.0474,5.045,5.0469,5.0469,5.0964,5.1529,5.0724,5.0982,5.1489,5.054,5.0224,5.0348,5.1094,5.0741,5.0429,5.1883,5.1728,5.1272,5.1892,5.1987,5.1858,5.1697,5.1672,5.1476,5.0709,5.1352,5.2084,5.203,5.1173,5.0716,5.1476,5.0895,5.0254,5.0092,5.0304,5.0446,5.0322,4.9737,4.9984,5.1721,5.0365,4.9971,5.1451,5.0683,5.0371,5.0947,5.0731,5.027,4.9571,4.94,4.9034,4.84,4.8347,4.8478,4.8735,4.8862,4.9401,5.0297,5.0314,5.0816,4.3182,0.0,0.0,0.0,0.0,0.0,0.0,0.0,0.0,0.0,0.0,0.0,0.0,0.0,0.0,0.0,0.0,0.0,0.0,0.0,0.0,0.0,0.0,0.0,0.0,0.0,0.0,0.0,4.4982,4.4715,4.5084,4.4227,4.4145,4.5092,4.5644,4.6397,4.7443,4.7992,4.8304,4.8363,4.8363,4.8693,4.93,4.9482,4.9865,5.0354,5.0492,5.0741,5.0994,5.0265,5.0584,5.1459,5.1285,5.1635,5.2258,5.2171,5.2295,5.2441,5.22,5.2211,5.2181,5.1336,5.0967,5.0905,5.1076,5.0847,5.0742,5.1718,5.177,5.1428,5.1064,5.1336,5.1597,5.0976,5.128,5.1637,5.1422,5.1604,5.1475,5.0288,4.9829,4.971,4.9942,5.0165,5.0126,4.9606,4.9998,5.0371,5.0439,5.0292,5.0541,5.15,5.1089,5.0828,5.1008,5.0663,5.0484,5.0557,5.0425,5.0254,5.0175,5.0129,5.0063,4.9973,4.9644,4.9494,4.9572,4.952,4.9651,5.001,5.0611,5.1112,0.0,0.0,0.0,0.0,0.0,0.0,4.3629,4.4161,0.0,0.0,0.0,0.0,0.0,0.0,0.0,0.0,0.0,0.0,0.0,0.0,0.0,0.0,0.0,0.0,0.0,0.0,0.0,4.5228,4.487,4.4769,4.5003,4.4093,4.3916,4.4673,4.5425,4.6193,4.6979,4.7803,4.8226,4.8267,4.8595,4.9017,4.955,5.0108,5.0556,5.0949,5.1271,5.1606,5.1922,5.1401,5.1522,5.2113,5.1972,5.2286,5.2779,5.269,5.2667,5.2667,5.2667,5.2622,5.2431,5.1543,5.1217,5.1079,5.1032,5.0915,5.0934,5.1692,5.179,5.1512,5.0709,5.0852,5.1083,5.062,5.0869,5.128,5.1619,5.169,5.1422,5.0477,4.9982,4.9826,5.009,5.0233,5.0137,4.9643,5.0037,5.0346,5.0246,5.0314,5.0566,5.114,5.1079,5.0919,5.0657,5.0547,5.0453,5.0331,5.0246,5.0246,5.0313,5.0246,5.0302,5.0436,5.0165,5.0091,5.018,4.9652,4.9589,5.0002,5.0814,5.1272,0.0,0.0,0.0,0.0,0.0,0.0,4.388,4.4063,4.4128,0.0,0.0,0.0,0.0,0.0,0.0,0.0,0.0,0.0,0.0,0.0,0.0,0.0,0.0,0.0,0.0,4.5883,4.5438,4.553,4.5424,4.5249,4.4987,4.4007,4.3866,4.4783,4.5443,4.6266,4.7253,4.7948,4.837,4.8462,4.9173,4.9576,4.9665,5.0878,5.1464,5.1569,5.2241,5.2521,5.2498,5.2498,5.2531,5.259,5.2526,5.2498,5.2503,5.2498,5.2498,5.2498,5.2498,5.2498,5.2325,5.1504,5.12,5.1177,5.1041,5.0976,5.1114,5.171,5.1808,5.1512,5.0709,5.0513,5.0513,5.0513,5.0488,5.0702,5.1504,5.164,5.1615,5.1589,5.0926,5.0576,5.1157,5.0756,5.027,5.003,5.0313,5.0439,5.0056,5.0108,5.0329,5.0733,5.064,5.0519,5.0341,5.0313,5.0274,5.0143,5.016,5.016,5.016,5.008,5.008,5.0189,5.0246,5.0369,5.0585,4.9608,4.9488,5.022,5.091,5.1255,0.0,0.0,0.0,0.0,0.0,0.0,4.2008,4.2353,4.3003,0.0,0.0,0.0,0.0,0.0,0.0,0.0,0.0,0.0,0.0,0.0,0.0,0.0,0.0,0.0,0.0,4.6616,4.636,4.6958,4.6228,4.5477,4.4798,4.3796,4.3926,4.5386,4.555,4.6702,4.8899,4.8965,4.9387,5.0126,5.017,5.0547,5.1189,5.1435,5.1861,5.2372,5.2513,5.2536,5.2498,5.2498,5.2531,5.259,5.2526,5.2531,5.2563,5.2526,5.2498,5.2498,5.2498,5.2428,5.2275,5.1994,5.182,5.1723,5.1582,5.1533,5.1569,5.1705,5.1715,5.1512,5.0709,5.0513,5.0513,5.0513,5.0421,5.0535,5.1225,5.1158,5.0937,5.0847,5.0841,5.0902,5.1035,5.0867,5.0646,5.0484,5.0761,5.0911,5.0663,5.0646,5.0645,5.0622,5.0519,5.0313,5.0011,4.9913,4.9825,4.9796,4.9796,4.9872,5.0022,5.012,5.016,5.0189,5.0408,5.0547,5.0585,5.0557,5.0585,5.0743,5.0884,5.0936,0.0,0.0,0.0,4.3164,0.0,0.0,0.0,4.251,4.2862,0.0,0.0,0.0,0.0,0.0,0.0,0.0,0.0,0.0,0.0,0.0,0.0,0.0,0.0,0.0,0.0,4.7018,4.689,4.735,4.6892,4.6415,4.6011,4.5041,4.4875,4.5661,4.5985,4.693,4.8591,4.8969,4.9573,5.0399,5.0754,5.0871,5.0864,5.1615,5.1887,5.1754,5.217,5.2327,5.2293,5.2293,5.2322,5.2351,5.2387,5.2387,5.2351,5.2298,5.2293,5.2293,5.2293,5.2246,5.2174,5.198,5.1858,5.1783,5.1658,5.1658,5.169,5.1632,5.1658,5.1512,5.0709,5.0446,5.0371,5.0314,5.0102,5.0161,5.0876,5.1092,5.1134,5.1134,5.1392,5.1409,5.0807,5.0766,5.0749,5.0612,5.0811,5.0883,5.063,5.0602,5.0492,5.0183,5.0068,4.9971,4.9737,4.9708,4.9708,4.9708,4.9784,4.9889,5.0011,5.008,5.0092,5.0092,5.0285,5.038,5.038,5.0582,5.0737,5.0891,5.0891,5.0828,0.0,0.0,0.0,0.0,0.0,4.3196,0.0,0.0,0.0,4.2923,0.0,0.0,0.0,0.0,0.0,0.0,0.0,0.0,0.0,0.0,0.0,0.0,0.0,0.0,0.0,4.6837,4.6854,4.7242,4.7003,4.6856,4.6874,4.612,4.5789,4.5972,4.66,4.7375,4.8304,4.9119,4.9919,5.0639,5.1288,5.1203,5.0529,5.1715,5.1856,5.1167,5.179,5.2054,5.2054,5.2054,5.2054,5.2054,5.2216,5.2216,5.2102,5.2102,5.2102,5.2102,5.2078,5.2036,5.1987,5.174,5.1665,5.164,5.1531,5.1607,5.1665,5.1582,5.1607,5.1522,5.0855,5.0471,5.0257,5.0238,4.9899,4.9748,5.0465,5.1,5.1356,5.1442,5.1773,5.1791,5.0887,5.0945,5.1014,5.069,5.0829,5.0759,5.0331,5.0274,5.0114,4.9708,4.9649,4.959,4.9441,4.956,4.9649,4.9649,4.983,4.9964,5.0011,5.0011,5.0011,5.0011,5.0149,5.0189,5.0189,5.0313,5.0526,5.0792,5.0792,5.0719,0.0,0.0,0.0,0.0,4.4763,0.0,0.0,0.0,4.2452,4.1751,0.0,0.0,0.0,0.0,0.0,0.0,0.0,0.0,0.0,0.0,0.0,0.0,0.0,0.0,0.0,0.0,4.5669,4.6693,4.5854,4.5278,4.5361,4.5347,4.5735,4.6579,4.7357,4.8525,5.0083,5.0798,5.1506,5.2249,5.2224,5.2089,5.188,5.2036,5.2072,5.1958,5.1945,5.1932,5.1932,5.1932,5.1858,5.1765,5.2011,5.2108,5.2102,5.2102,5.2102,5.2084,5.1956,5.1858,5.1715,5.1582,5.1531,5.1505,5.1505,5.1607,5.169,5.1665,5.1607,5.1513,5.1398,5.0771,5.022,5.0629,5.0073,4.9532,4.9918,5.0363,5.0676,5.0571,5.1106,5.1674,5.1964,5.2122,5.1909,5.0991,5.1176,5.1032,4.9911,4.9796,4.9708,4.9547,4.95,4.9441,4.926,4.9411,4.95,4.95,4.9666,4.9813,5.0011,5.0011,5.0011,5.0011,5.0149,5.0189,5.0189,5.0313,5.0415,5.0471,5.0471,5.0425,0.0,0.0,0.0,0.0,0.0,0.0,0.0,0.0,4.2175,0.0,0.0,0.0,0.0,0.0,0.0,0.0,0.0,0.0,0.0,0.0,0.0,0.0,0.0,0.0,0.0,0.0,0.0,0.0,0.0,4.462,4.5745,4.5735,4.6134,4.7132,4.7864,4.8822,4.9987,5.0737,5.1504,5.2269,5.2198,5.1826,5.1184,5.1741,5.1589,5.098,5.1462,5.1658,5.1658,5.1582,5.1556,5.1582,5.1615,5.1665,5.1758,5.1758,5.169,5.1615,5.1582,5.1513,5.1454,5.1298,5.1264,5.1264,5.1185,5.1298,5.1462,5.1462,5.1747,5.1926,5.1604,5.129,5.0996,5.0637,4.9996,4.9516,4.9652,4.9991,5.0456,5.0929,5.1626,5.2337,5.2955,5.2478,5.1836,5.1439,5.1163,5.0781,5.0292,4.9834,4.95,4.935,4.932,4.926,4.9094,4.9229,4.9398,4.9488,4.9742,4.9906,5.0011,5.0011,5.0011,5.0011,5.0051,5.0063,5.0063,5.012,5.0178,5.0178,5.0331,5.0415,4.9989,0.0,0.0,0.0,0.0,0.0,0.0,0.0,0.0,0.0,0.0,0.0,0.0,0.0,0.0,0.0,0.0,0.0,0.0,0.0,0.0,0.0,0.0,0.0,0.0,0.0,0.0,4.3963,4.3351,4.3618,4.519,4.571,4.6295,4.7,4.8183,4.9117,4.9693,5.0694,5.1455,5.1987,5.1938,5.1511,5.0752,5.1415,5.1261,5.0466,5.1102,5.1394,5.1376,5.1272,5.1298,5.1376,5.1324,5.1324,5.1376,5.1428,5.1376,5.1281,5.1246,5.122,5.1167,5.1079,5.1105,5.1132,5.0927,5.1229,5.1573,5.1494,5.1961,5.2347,5.1926,5.1706,5.1407,5.0622,4.9921,4.9411,4.9337,4.9718,5.0306,5.1178,5.1989,5.2768,5.3515,5.2914,5.2272,5.2018,5.1353,5.0892,5.0861,5.0213,4.9674,4.9474,4.9443,4.9345,4.9018,4.9168,4.9381,4.9607,4.9877,5.0011,5.0011,5.0011,5.0011,5.0011,5.0011,5.0011,5.0011,5.0011,5.0011,4.9993,5.0206,5.0302,0.0,0.0,0.0,4.8514,0.0,0.0,0.0,0.0,4.1977,0.0,0.0,0.0,0.0,0.0,0.0,0.0,0.0,0.0,0.0,0.0,0.0,0.0,0.0,0.0,0.0,0.0,0.0,4.1455,4.1503,4.1831,4.2654,4.4685,4.5829,4.5846,4.8321,4.9675,4.9693,5.1131,5.184,5.1715,5.1582,5.1436,5.1289,5.1307,5.1307,5.1263,5.1167,5.1105,5.1105,5.1105,5.1105,5.1132,5.1246,5.122,5.1132,5.1246,5.1281,5.1272,5.1158,5.1025,5.0918,5.0918,5.1088,5.1228,5.0901,5.1537,5.2316,5.2062,5.228,5.2608,5.2573,5.18,5.0956,5.0672,4.9862,4.9135,4.8894,4.939,5.0116,5.0872,5.1728,5.2553,5.3365,5.3733,5.3656,5.2887,5.2121,5.1629,5.1471,5.0842,5.0272,5.0082,5.0082,4.9763,4.9069,4.9307,4.9637,4.9964,5.0011,5.0011,5.0011,5.0011,5.0011,5.0011,5.0011,5.0011,5.0011,5.0011,5.0011,5.0011,5.0011,5.008,0.0,0.0,5.2191,5.0401,0.0,0.0,0.0,0.0,0.0,0.0,0.0,0.0,0.0,0.0,0.0,0.0,0.0,0.0,0.0,0.0,0.0,0.0,0.0,0.0,0.0,0.0,0.0,3.948,3.9233,3.9754,4.1383,4.246,4.3685,4.5164,4.7126,4.85,4.9161,5.0713,5.1479,5.1436,5.1402,5.1298,5.1185,5.1272,5.1193,5.1034,5.1079,5.1105,5.1079,5.0998,5.1025,5.1096,5.1052,5.0909,5.0811,5.1061,5.1114,5.1008,5.0811,5.1107,5.1462,5.1237,5.1643,5.2158,5.1825,5.1969,5.2265,5.2283,5.2656,5.2853,5.1968,5.1597,5.1196,5.0133,4.9403,4.8909,4.8801,4.9263,4.9937,5.0675,5.1547,5.2421,5.318,5.3517,5.3566,5.3295,5.2599,5.2058,5.2042,5.1398,5.0909,5.0845,5.0828,5.0541,4.9779,4.9579,4.9829,5.054,5.0676,5.0959,5.1459,5.0994,5.0735,5.0735,5.0252,5.0011,5.0011,5.0011,5.0011,4.9993,5.0092,5.0178,5.5121,5.4756,0.0,5.1497,5.0756,0.0,4.7978,0.0,0.0,0.0,0.0,0.0,0.0,0.0,0.0,0.0,0.0,0.0,0.0,3.5623,0.0,0.0,0.0,0.0,0.0,0.0,3.7445,3.8417,3.8051,3.8601,0.0,0.0,4.2785,4.4216,4.6593,4.8171,4.8816,5.0407,5.122,5.122,5.1193,5.1114,5.1025,5.1114,5.1061,5.0918,5.0998,5.1025,5.1025,5.0945,5.09,5.0909,5.0828,5.0675,5.0547,5.0828,5.0846,5.0745,5.0861,5.1326,5.1769,5.1703,5.2178,5.2712,5.2231,5.233,5.2567,5.2536,5.2963,5.3261,5.2375,5.1993,5.1609,5.0643,4.9888,4.9384,4.9384,4.9655,5.0109,5.0844,5.1598,5.2337,5.3061,5.3382,5.3501,5.3501,5.2824,5.2401,5.2689,5.2063,5.1606,5.1606,5.1656,5.1346,5.0467,5.0141,5.0283,5.0931,5.1055,5.1291,5.1714,5.1283,5.1025,5.1025,5.0285,5.0073,5.039,5.0131,5.0022,5.008,5.0437,5.0449]}]]